Date StartTime U_cm/s V_cm/s W_cm/s Ustd_cm/s Vstd_cm/s Wstd_cm/s Uvar_(cm/s)^2 Vvar_(cm/s)^2 Wvar_(cm/s)^2 KE_(m/s)^2 TurbulentKE_(m/s)^2 HorizWindSpeed_cm/s FrictionSpeec_cm/s DragCoef SpeedOfSound_m/s SonicTemperature_C Pressure_mb 
09/14/2014  00:00:00     -101.482       -2.531      -13.504       24.608       19.174       16.559      605.544      367.630      274.187        0.587        0.062      101.513       10.310        0.010      344.790       21.857      860.592
09/14/2014  00:01:00      -87.907      -21.951       -7.266       36.375       22.276       17.075     1323.177      496.226      291.558        0.519        0.106       90.606       18.919        0.044      344.740       21.773      860.598
09/14/2014  00:02:00      -66.291      -10.963        2.896       27.228       26.036       16.417      741.344      677.858      269.510        0.311        0.084       67.192       16.000        0.057      344.596       21.527      860.602
09/14/2014  00:03:00      -68.620      -39.339       -4.157       29.216       14.644       10.294      853.593      214.433      105.958        0.372        0.059       79.097        7.721        0.010      344.616       21.562      860.600
09/14/2014  00:04:00      -61.908      -59.023       -1.454       37.658       27.036       19.860     1418.119      730.946      394.438        0.493        0.127       85.536       18.574        0.047      344.647       21.613      860.604
09/14/2014  00:05:00      -57.176      -31.754       -1.307       22.182       22.941       19.941      492.030      526.267      397.655        0.285        0.071       65.402        7.646        0.014      344.556       21.460      860.596
09/14/2014  00:06:00      -35.990      -42.646        2.594       25.481       26.469       11.508      649.275      700.632      132.432        0.230        0.074       55.803        6.030        0.012      344.566       21.478      860.588
09/14/2014  00:07:00      -39.972      -57.864        6.238       47.313       31.041       24.391     2238.515      963.526      594.898        0.439        0.190       70.327       31.446        0.200      344.507       21.377      860.582
09/14/2014  00:08:00      -62.466      -36.035        0.664       21.953       21.490       10.381      481.942      461.818      107.764        0.313        0.053       72.115       11.491        0.025      344.501       21.363      860.581
09/14/2014  00:09:00      -57.316      -20.529        3.170       29.685       17.326       14.206      881.173      300.180      201.809        0.255        0.069       60.881       13.951        0.053      344.534       21.422      860.597
09/14/2014  00:10:00      -13.870      -36.265        7.933       26.362       22.603       14.495      694.962      510.879      210.092        0.149        0.071       38.827       14.193        0.134      344.393       21.178      860.593
09/14/2014  00:11:00      -50.078      -28.247       -0.311       43.873       22.183       21.464     1924.878      492.075      460.709        0.309        0.144       57.495       27.074        0.222      344.444       21.267      860.582
09/14/2014  00:12:00      -76.269      -39.547       -9.235       41.294       23.180       16.241     1705.207      537.329      263.784        0.499        0.125       85.913       21.673        0.064      344.377       21.152      860.575
09/14/2014  00:13:00      -35.637      -44.034        3.376       49.743       31.369       21.102     2474.393      984.034      445.306        0.356        0.195       56.648       24.752        0.191      344.314       21.045      860.584
09/14/2014  00:14:00      -33.650      -42.967       -0.287       21.897       36.126       20.278      479.459     1305.062      411.199        0.259        0.110       54.576       14.537        0.071      344.269       20.968      860.587
09/14/2014  00:15:00      -57.108      -28.843       -7.956       37.485       27.981       13.833     1405.152      782.922      191.359        0.327        0.119       63.978        9.386        0.022      344.313       21.042      860.582
09/14/2014  00:16:00      -86.571      -90.065       -4.509       42.603       31.278       19.393     1815.002      978.316      376.101        0.940        0.158      124.925       14.765        0.014      344.219       20.880      860.589
09/14/2014  00:17:00      -84.209      -96.640      -12.707       51.678       48.918       26.327     2670.639     2392.971      693.086        1.117        0.288      128.181       25.551        0.040      344.177       20.811      860.586
09/14/2014  00:18:00      -87.031     -110.448       -2.318       33.752       51.811       21.376     1139.204     2684.423      456.936        1.203        0.214      140.617       17.819        0.016      344.118       20.710      860.600
09/14/2014  00:19:00      -93.329      -45.475       -4.006       32.678       41.340       22.109     1067.861     1708.976      488.793        0.703        0.163      103.818       19.903        0.037      344.045       20.587      860.597
09/14/2014  00:20:00      -61.890      -43.535        5.822       37.324       25.586       21.019     1393.102      654.655      441.805        0.412        0.124       75.668       18.193        0.058      344.046       20.588      860.586
09/14/2014  00:21:00      -79.165      -56.069       -0.073       43.043       28.709       21.782     1852.662      824.221      474.475        0.628        0.158       97.010       19.014        0.038      344.083       20.651      860.565
09/14/2014  00:22:00      -69.748      -59.370       -9.479       44.493       30.696       20.162     1979.622      942.271      406.524        0.590        0.166       91.594       17.420        0.036      344.085       20.654      860.560
09/14/2014  00:23:00      -41.417      -48.805        5.673       56.420       43.166       20.345     3183.190     1863.270      413.927        0.479        0.273       64.010       18.005        0.079      344.057       20.605      860.572
09/14/2014  00:24:00     -124.059     -110.622       -9.950       38.735       49.216       30.886     1500.395     2422.246      953.943        1.630        0.244      166.216       23.128        0.019      344.041       20.578      860.581
09/14/2014  00:25:00     -109.013     -100.906       -5.583       48.186       46.685       27.182     2321.888     2179.466      738.867        1.367        0.262      148.545       26.955        0.033      343.973       20.462      860.582
09/14/2014  00:26:00     -128.913      -91.775        0.302       56.312       53.974       30.540     3171.043     2913.244      932.716        1.603        0.351      158.245       32.515        0.042      343.949       20.421      860.590
09/14/2014  00:27:00      -99.096      -57.257       -0.364       62.005       42.731       30.547     3844.675     1825.909      933.131        0.985        0.330      114.448       34.577        0.091      343.849       20.250      860.596
09/14/2014  00:28:00     -113.509      -84.812       -3.914       52.948       59.220       25.554     2803.494     3507.038      653.021        1.353        0.348      141.694       19.736        0.019      343.891       20.322      860.598
09/14/2014  00:29:00     -117.862      -55.909       -2.456       33.752       34.539       19.772     1139.216     1192.969      390.946        0.987        0.136      130.450       13.988        0.011      343.871       20.287      860.613
09/14/2014  00:30:00      -63.217      -57.439       -1.902       34.369       29.215       18.006     1181.239      853.520      324.202        0.483        0.118       85.414       10.040        0.014      343.846       20.247      860.609
09/14/2014  00:31:00      -68.052      -78.731       -6.563       35.449       40.770       21.433     1256.600     1662.157      459.356        0.712        0.169      104.065       12.237        0.014      343.866       20.279      860.610
09/14/2014  00:32:00      -84.293     -123.197       -0.082       43.095       83.322       26.227     1857.138     6942.516      687.847        1.588        0.474      149.274       13.466        0.008      343.883       20.307      860.598
09/14/2014  00:33:00      -78.774      -78.773        7.513       62.500       47.625       34.476     3906.243     2268.127     1188.628        0.991        0.368      111.403       31.400        0.079      343.844       20.241      860.588
09/14/2014  00:34:00      -53.548     -104.188        8.500       45.431       60.136       34.756     2063.942     3616.376     1207.997        1.034        0.344      117.143       29.827        0.065      343.861       20.270      860.581
09/14/2014  00:35:00      -98.327     -114.527       -2.308       51.867       58.500       32.782     2690.235     3422.281     1074.654        1.499        0.359      150.946       30.278        0.040      343.872       20.289      860.576
09/14/2014  00:36:00      -98.156     -154.981       -4.619       39.569       51.701       20.976     1565.711     2672.955      439.992        1.918        0.234      183.450       17.570        0.009      343.859       20.266      860.575
09/14/2014  00:37:00      -97.299     -154.876       -7.287       39.423       61.837       32.853     1554.135     3823.843     1079.287        1.998        0.323      182.903       28.417        0.024      343.887       20.312      860.573
09/14/2014  00:38:00      -63.951      -80.865       -5.581       54.333       36.790       28.947     2952.102     1353.527      837.939        0.790        0.257      103.096       19.476        0.036      343.831       20.221      860.568
09/14/2014  00:39:00      -52.211      -54.274       -0.456       45.206       28.600       23.079     2043.560      817.943      532.623        0.453        0.170       75.310       12.741        0.029      343.750       20.082      860.572
09/14/2014  00:40:00      -46.582      -57.843        3.747       47.124       38.699       26.368     2220.693     1497.614      695.254        0.497        0.221       74.268       19.425        0.068      343.777       20.128      860.571
09/14/2014  00:41:00      -68.644      -32.886        2.247       31.273       27.515       16.239      978.016      757.095      263.697        0.390        0.100       76.116        9.663        0.016      343.729       20.045      860.577
09/14/2014  00:42:00      -27.065      -29.777        7.171       49.949       28.324       20.549     2494.916      802.259      422.280        0.269        0.186       40.239       19.486        0.235      343.676       19.956      860.584
09/14/2014  00:43:00      -68.681      -72.917       -4.731       43.610       53.374       27.281     1901.828     2848.800      744.270        0.777        0.275      100.170       25.346        0.064      343.776       20.126      860.591
09/14/2014  00:44:00      -75.309     -124.267        1.792       53.267       50.105       29.080     2837.372     2510.462      845.627        1.365        0.310      145.306       14.447        0.010      343.812       20.187      860.595
09/14/2014  00:45:00      -68.350      -97.295        3.675       49.057       40.281       28.981     2406.557     1622.531      839.927        0.951        0.243      118.904       24.115        0.041      343.798       20.163      860.609
09/14/2014  00:46:00      -61.523      -69.250        0.711       40.420       47.700       25.899     1633.810     2275.263      670.767        0.658        0.229       92.632       13.721        0.022      343.832       20.222      860.604
09/14/2014  00:47:00      -25.301      -84.512       -0.871       30.571       34.635       22.487      934.578     1199.574      505.644        0.521        0.132       88.218       17.062        0.037      343.902       20.340      860.597
09/14/2014  00:48:00      -72.627      -73.783       -5.844       30.420       36.332       21.676      925.362     1320.002      469.839        0.673        0.136      103.531        8.551        0.007      344.019       20.539      860.588
09/14/2014  00:49:00        1.241      -28.092       -1.510       36.573       30.851       14.309     1337.615      951.807      204.741        0.164        0.125       28.120       15.541        0.305      343.875       20.295      860.586
09/14/2014  00:50:00       29.577       12.691       21.355       21.875       24.178       14.564      478.508      584.596      212.117        0.138        0.064       32.184       12.724        0.156      343.665       19.936      860.568
09/14/2014  00:51:00       26.962       44.883      -11.236       21.284       14.517       13.322      452.993      210.735      177.481        0.185        0.042       52.358        6.808        0.017      343.535       19.714      860.582
09/14/2014  00:52:00       63.419       40.570        8.616       23.124       20.912       17.550      534.728      437.292      307.990        0.351        0.064       75.286       11.179        0.022      343.352       19.403      860.590
09/14/2014  00:53:00       70.684       32.503       -3.423       16.321       17.563       15.010      266.388      308.443      225.290        0.343        0.040       77.799        8.803        0.013      343.253       19.235      860.598
09/14/2014  00:54:00       40.961       46.264       19.690       17.937       14.529       15.441      321.743      211.104      238.438        0.249        0.039       61.791        7.725        0.016      343.222       19.182      860.621
09/14/2014  00:55:00       52.145       47.488       18.495       18.572       10.248       14.981      344.917      105.024      224.433        0.300        0.034       70.528       10.389        0.022      343.137       19.039      860.621
09/14/2014  00:56:00       43.018       38.059        8.552       20.348       16.879       12.428      414.044      284.888      154.448        0.211        0.043       57.437       10.592        0.034      343.073       18.927      860.622
09/14/2014  00:57:00       52.966       37.628       -0.853       24.027       17.209       14.215      577.306      296.133      202.071        0.265        0.054       64.971       10.691        0.027      343.101       18.976      860.624
09/14/2014  00:58:00       58.776       32.242       11.982       32.110       19.822       16.817     1031.058      392.930      282.819        0.317        0.085       67.038       15.723        0.055      343.270       19.265      860.612
09/14/2014  00:59:00       34.136       21.482       15.570       30.488       19.800       13.578      929.505      392.047      184.369        0.169        0.075       40.333        3.854        0.009      343.275       19.271      860.620
09/14/2014  01:00:00       48.116       21.206       14.175       20.152       18.139       17.294      406.084      329.037      299.074        0.200        0.052       52.582       12.190        0.054      343.442       19.556      860.632
09/14/2014  01:01:00       60.357       28.162       17.405       11.348       12.218       10.764      128.782      149.267      115.864        0.257        0.020       66.604        8.091        0.015      343.594       19.815      860.635
09/14/2014  01:02:00       51.702       29.650       12.829       12.923        9.423       10.594      167.009       88.799      112.231        0.204        0.018       59.600        4.756        0.006      343.469       19.602      860.635
09/14/2014  01:03:00       40.421       29.822       17.643       14.444       12.758       10.794      208.634      162.754      116.511        0.166        0.024       50.232        4.501        0.008      343.404       19.492      860.644
09/14/2014  01:04:00       23.511       17.199       21.531       21.786       14.001        8.241      474.634      196.033       67.916        0.103        0.037       29.130        4.886        0.028      343.393       19.472      860.641
09/14/2014  01:05:00       32.628       12.075       17.381       17.984       12.449       14.565      323.439      154.986      212.137        0.110        0.035       34.790       10.053        0.083      343.430       19.536      860.648
09/14/2014  01:06:00       31.571        7.032       14.711       14.289       10.231       10.781      204.185      104.675      116.235        0.084        0.021       32.345        8.482        0.069      343.338       19.378      860.664
09/14/2014  01:07:00       31.705        7.629       11.152       19.078       11.510        9.457      363.986      132.471       89.431        0.089        0.029       32.610        5.484        0.028      343.413       19.507      860.674
09/14/2014  01:08:00       33.016       20.249       13.808       21.534       14.279       10.241      463.699      203.893      104.888        0.123        0.039       38.731        7.034        0.033      343.418       19.516      860.672
09/14/2014  01:09:00       44.509       14.322       16.839       23.992       25.717       17.177      575.595      661.389      295.064        0.200        0.077       46.757        8.933        0.037      343.580       19.791      860.676
09/14/2014  01:10:00        1.625        0.612        4.429       16.576       22.285       12.275      274.749      496.631      150.686        0.047        0.046        1.736       12.522       52.010      343.610       19.843      860.691
09/14/2014  01:11:00      -13.423      -11.282       -1.541       10.827        9.421        7.393      117.223       88.764       54.662        0.029        0.013       17.534        2.724        0.024      343.602       19.828      860.698
09/14/2014  01:12:00      -15.811        3.421       11.288       11.008       17.421        9.111      121.184      303.490       83.010        0.045        0.025       16.177        9.883        0.373      343.570       19.773      860.712
09/14/2014  01:13:00      -11.918        0.961       12.448       21.904       16.239       10.751      479.773      263.712      115.574        0.058        0.043       11.956       15.553        1.692      343.578       19.789      860.718
09/14/2014  01:14:00      -26.052      -32.039       -2.032        9.232       12.617        7.532       85.222      159.183       56.738        0.101        0.015       41.295        3.445        0.007      343.720       20.029      860.720
09/14/2014  01:15:00      -39.921      -20.046       -5.505        8.904        9.280        6.456       79.287       86.120       41.686        0.112        0.010       44.671        4.090        0.008      343.638       19.892      860.726
09/14/2014  01:16:00      -40.151       -7.276       -4.903        8.474        7.631        5.574       71.817       58.238       31.067        0.093        0.008       40.805        4.612        0.013      343.308       19.328      860.738
09/14/2014  01:17:00      -48.621      -35.231       -3.194       10.074       15.497       10.150      101.492      240.145      103.031        0.203        0.022       60.044        6.158        0.011      343.755       20.091      860.729
09/14/2014  01:18:00      -50.846      -15.757       -3.278       15.194       10.660        9.841      230.854      113.638       96.837        0.164        0.022       53.232        7.315        0.019      343.313       19.337      860.710
09/14/2014  01:19:00      -41.699       -4.770       -5.359       11.245        9.985        6.060      126.440       99.704       36.723        0.103        0.013       41.971        6.045        0.021      343.338       19.381      860.702
09/14/2014  01:20:00      -59.611       -1.676       -8.179        6.475        8.765        8.475       41.922       76.826       71.834        0.191        0.010       59.635        3.885        0.004      343.272       19.267      860.704
09/14/2014  01:21:00      -68.441      -25.513       -4.288        9.980       15.378        7.300       99.609      236.486       53.287        0.287        0.019       73.042        4.394        0.004      343.376       19.444      860.694
09/14/2014  01:22:00      -90.833      -41.744       -2.319       16.070       22.503        9.452      258.230      506.377       89.333        0.543        0.043       99.966        7.602        0.006      343.258       19.242      860.703
09/14/2014  01:23:00      -73.143      -33.154        0.930       41.892       21.486       15.242     1754.957      461.664      232.323        0.445        0.122       80.306       17.550        0.048      342.984       18.776      860.721
09/14/2014  01:24:00      -79.132      -47.040       -3.796       30.598       20.317       14.705      936.258      412.798      216.236        0.503        0.078       92.058        9.778        0.011      342.965       18.745      860.738
09/14/2014  01:25:00      -93.245      -16.199       -2.361       24.169       21.887       17.852      584.155      479.054      318.690        0.517        0.069       94.641       13.155        0.019      342.950       18.719      860.738
09/14/2014  01:26:00     -105.975      -11.572       -3.293       32.205       21.463       18.645     1037.145      460.654      347.647        0.661        0.092      106.605       16.098        0.023      342.804       18.469      860.731
09/14/2014  01:27:00      -80.080      -25.009        5.673       42.287       28.555       17.713     1788.211      815.400      313.759        0.499        0.146       83.894       17.271        0.042      342.746       18.373      860.737
09/14/2014  01:28:00      -81.174      -14.852        2.703       41.024       32.235       21.094     1682.956     1039.087      444.967        0.499        0.158       82.522       17.263        0.044      342.826       18.508      860.736
09/14/2014  01:29:00      -72.255      -25.084        8.102       31.448       31.276       22.098      988.948      978.160      488.320        0.419        0.123       76.485       19.063        0.062      342.782       18.431      860.726
09/14/2014  01:30:00      -87.989      -37.090        9.907       47.412       47.478       22.652     2247.883     2254.174      513.093        0.711        0.251       95.487       23.156        0.059      342.842       18.536      860.714
09/14/2014  01:31:00     -134.725      -50.061        6.611       44.129       33.615       22.875     1947.393     1129.935      523.253        1.215        0.180      143.725       21.114        0.022      342.895       18.624      860.727
09/14/2014  01:32:00     -132.070      -39.986        5.869       56.442       52.230       28.461     3185.686     2727.991      810.049        1.290        0.336      137.990       29.067        0.044      342.945       18.709      860.747
09/14/2014  01:33:00     -159.219      -78.092       -0.662       51.957       41.592       26.781     2699.548     1729.854      717.231        1.830        0.257      177.339       30.232        0.029      342.961       18.735      860.745
09/14/2014  01:34:00     -143.788      -74.618       -3.519       76.641       41.542       38.170     5873.887     1725.752     1456.971        1.765        0.453      161.996       40.691        0.063      342.985       18.776      860.733
09/14/2014  01:35:00     -158.818      -44.559      -10.307       47.871       33.359       26.044     2291.642     1112.805      678.291        1.570        0.204      164.951       25.210        0.023      343.035       18.863      860.721
09/14/2014  01:36:00     -152.702      -51.738       -1.865       54.822       34.607       24.777     3005.498     1197.655      613.889        1.541        0.241      161.229       26.500        0.027      342.992       18.789      860.714
09/14/2014  01:37:00     -103.689      -63.820        9.436       53.913       41.676       24.466     2906.660     1736.910      598.577        1.008        0.262      121.755       24.270        0.040      342.836       18.523      860.720
09/14/2014  01:38:00      -54.919      -28.093       11.470       48.335       26.333       25.538     2336.288      693.441      652.195        0.381        0.184       61.687       24.791        0.162      342.735       18.352      860.723
09/14/2014  01:39:00      -40.890      -47.625        6.779       29.162       40.739       16.451      850.420     1659.636      270.622        0.338        0.139       62.771       15.509        0.061      342.732       18.346      860.740
09/14/2014  01:40:00      -28.403      -25.749       12.244       28.585       18.598       14.024      817.074      345.891      196.673        0.149        0.068       38.337       12.981        0.115      342.695       18.283      860.745
09/14/2014  01:41:00      -86.232      -25.134        0.528       43.234       28.416       15.183     1869.189      807.492      230.533        0.549        0.145       89.821       16.215        0.033      342.692       18.280      860.743
09/14/2014  01:42:00      -49.914      -34.418        5.154       40.990       28.523       18.337     1680.182      813.589      336.240        0.327        0.142       60.630       18.304        0.091      342.590       18.107      860.742
09/14/2014  01:43:00      -63.969      -34.898        2.871       41.155       24.851       17.254     1693.740      617.563      297.712        0.396        0.130       72.870       20.472        0.079      342.532       18.007      860.752
09/14/2014  01:44:00      -44.475      -26.973        2.955       45.955       19.951       16.389     2111.821      398.056      268.612        0.275        0.139       52.015       22.712        0.191      342.534       18.011      860.743
09/14/2014  01:45:00      -69.815      -33.632       -2.731       30.606       18.930       16.536      936.752      358.342      273.426        0.379        0.078       77.493       15.582        0.040      342.487       17.932      860.732
09/14/2014  01:46:00      -64.796      -17.808       -3.072       26.529       21.110       15.112      703.810      445.625      228.358        0.295        0.069       67.198       16.956        0.064      342.346       17.690      860.733
09/14/2014  01:47:00      -58.857      -28.196        1.553       29.297       15.088       11.920      858.298      227.649      142.076        0.274        0.061       65.262       10.368        0.025      342.389       17.764      860.735
09/14/2014  01:48:00      -45.745      -11.550        2.332       23.149       14.468       12.768      535.858      209.319      163.021        0.157        0.045       47.181       11.539        0.060      342.351       17.699      860.730
09/14/2014  01:49:00      -55.430      -25.175       -5.204       28.367       13.576       11.672      804.664      184.301      136.237        0.243        0.056       60.879       14.875        0.060      342.362       17.719      860.739
09/14/2014  01:50:00      -80.154      -30.666       -2.282       12.450       12.374       12.178      155.015      153.110      148.310        0.391        0.023       85.820        6.001        0.005      342.398       17.780      860.747
09/14/2014  01:51:00      -47.596      -33.287        1.363       26.527       18.972       14.802      703.658      359.924      219.086        0.233        0.064       58.081       12.690        0.048      342.366       17.725      860.747
09/14/2014  01:52:00      -66.405      -34.566       -4.466       19.785       14.035        7.846      391.447      196.972       61.561        0.314        0.032       74.863        5.094        0.005      342.477       17.914      860.733
09/14/2014  01:53:00      -90.299      -32.103       -7.747       12.285       12.963        8.038      150.926      168.027       64.617        0.481        0.019       95.836        4.530        0.002      342.469       17.900      860.732
09/14/2014  01:54:00      -74.285      -28.093       -4.574       23.628       18.343       13.723      558.271      336.453      188.313        0.371        0.054       79.420       14.190        0.032      342.406       17.794      860.732
09/14/2014  01:55:00      -39.368      -24.894        4.535       33.927       18.905       14.646     1151.065      357.414      214.501        0.196        0.086       46.578       17.420        0.140      342.350       17.697      860.729
09/14/2014  01:56:00      -27.245      -16.647       -0.786       31.254       22.410       15.609      976.833      502.198      243.655        0.137        0.086       31.928       13.001        0.166      342.301       17.615      860.734
09/14/2014  01:57:00      -34.414      -39.021        7.108       39.366       21.018       19.030     1549.716      441.738      362.151        0.256        0.118       52.029       22.284        0.183      342.314       17.637      860.747
09/14/2014  01:58:00      -65.713      -50.517        5.612       41.608       32.583       23.688     1731.258     1061.683      561.125        0.513        0.168       82.886       21.054        0.065      342.378       17.746      860.745
09/14/2014  01:59:00     -100.278      -87.774        2.177       25.408       24.072       18.381      645.584      579.462      337.865        0.966        0.078      133.266       15.224        0.013      342.481       17.922      860.740
09/14/2014  02:00:00      -84.517      -64.229       -0.201       42.800       26.640       21.989     1831.799      709.672      483.534        0.715        0.151      106.153       19.818        0.035      342.413       17.806      860.740
09/14/2014  02:01:00      -67.671      -58.868        7.588       38.392       37.415       21.525     1473.945     1399.854      463.319        0.572        0.167       89.693       21.383        0.057      342.343       17.687      860.738
09/14/2014  02:02:00     -102.392      -80.991        1.015       46.091       32.238       19.537     2124.388     1039.306      381.712        1.029        0.177      130.552       19.507        0.022      342.373       17.736      860.743
09/14/2014  02:03:00      -77.334      -69.014       -3.775       40.649       23.795       22.074     1652.346      566.198      487.277        0.673        0.135      103.651       22.302        0.046      342.359       17.713      860.740
09/14/2014  02:04:00     -114.272      -68.811        2.986       46.707       32.313       26.474     2181.541     1044.143      700.890        1.086        0.196      133.391       25.720        0.037      342.399       17.782      860.720
09/14/2014  02:05:00     -138.079      -54.313       -3.360       33.109       29.969       20.652     1096.236      898.123      426.500        1.222        0.121      148.377       18.851        0.016      342.478       17.915      860.707
09/14/2014  02:06:00     -124.625      -55.052       -4.693       28.637       29.109       20.006      820.097      847.308      400.256        1.033        0.103      136.243       17.751        0.017      342.477       17.915      860.694
09/14/2014  02:07:00      -94.872      -46.699        3.385       43.851       23.387       22.510     1922.881      546.934      506.684        0.708        0.149      105.743       20.911        0.039      342.394       17.774      860.680
09/14/2014  02:08:00      -76.675      -36.980        8.198       36.340       24.417       20.228     1320.606      596.212      409.180        0.482        0.116       85.127       15.856        0.035      342.335       17.673      860.681
09/14/2014  02:09:00     -105.380      -50.207        1.187       35.838       31.676       19.752     1284.352     1003.351      390.159        0.815        0.134      116.729       20.717        0.031      342.394       17.776      860.689
09/14/2014  02:10:00      -88.082      -37.840        1.090       37.290       34.209       19.602     1390.512     1170.288      384.256        0.607        0.147       95.867       20.282        0.045      342.350       17.699      860.688
09/14/2014  02:11:00      -88.007      -47.087        7.468       36.130       24.340       19.491     1305.380      592.412      379.900        0.615        0.114       99.812       15.814        0.025      342.403       17.787      860.679
09/14/2014  02:12:00      -90.742      -47.065        2.797       29.961       26.282       18.095      897.656      690.744      327.430        0.619        0.096      102.222       18.913        0.034      342.306       17.622      860.684
09/14/2014  02:13:00      -78.834      -59.231        1.458       36.260       36.879       20.780     1314.821     1360.029      431.820        0.642        0.155       98.606       17.398        0.031      342.367       17.726      860.680
09/14/2014  02:14:00     -108.987      -63.809      -10.060       32.966       26.710       15.838     1086.736      713.417      250.858        0.905        0.103      126.293       12.465        0.010      342.388       17.762      860.669
09/14/2014  02:15:00     -139.684      -57.131       -0.493       31.524       36.119       22.062      993.773     1304.583      486.742        1.278        0.139      150.916       20.230        0.018      342.284       17.586      860.678
09/14/2014  02:16:00     -123.036      -53.854        0.902       46.793       28.919       21.324     2189.540      836.288      454.711        1.076        0.174      134.306       18.488        0.019      342.217       17.471      860.673
09/14/2014  02:17:00     -134.353      -26.479      -10.112       35.895       32.290       20.068     1288.466     1042.659      402.725        1.079        0.137      136.938       19.439        0.020      342.098       17.270      860.670
09/14/2014  02:18:00     -117.104      -49.984       -0.253       34.678       34.435       19.158     1202.596     1185.798      367.017        0.948        0.138      127.326       14.126        0.012      342.058       17.202      860.679
09/14/2014  02:19:00     -163.487      -59.811       -6.114       36.764       32.656       19.635     1351.608     1066.386      385.533        1.657        0.140      174.085       20.134        0.013      342.028       17.152      860.682
09/14/2014  02:20:00     -133.080      -21.755       -5.964       54.247       28.563       23.529     2942.762      815.863      553.617        1.126        0.216      134.846       29.545        0.048      342.009       17.119      860.680
09/14/2014  02:21:00     -142.137       -8.933      -13.704       30.996       22.948       17.228      960.777      526.627      296.799        1.113        0.089      142.417       12.991        0.008      341.948       17.016      860.684
09/14/2014  02:22:00     -130.393        8.950       -4.114       44.921       21.745       22.929     2017.910      472.836      525.747        1.006        0.151      130.700       22.856        0.031      342.035       17.164      860.688
09/14/2014  02:23:00     -139.812        7.634       -8.719       36.801       24.934       16.870     1354.281      621.684      284.586        1.097        0.113      140.021       16.893        0.015      341.959       17.033      860.688
09/14/2014  02:24:00     -146.315       14.877      -11.327       22.132       19.598       13.304      489.838      384.068      176.991        1.140        0.053      147.069        6.310        0.002      341.987       17.081      860.688
09/14/2014  02:25:00     -127.454        3.112       -5.798       40.912       22.478       17.187     1673.778      505.270      295.410        0.938        0.124      127.492       14.982        0.014      342.073       17.228      860.696
09/14/2014  02:26:00      -89.702      -14.917       -1.567       24.371       26.268       16.891      593.960      690.023      285.301        0.492        0.078       90.934       14.125        0.024      342.040       17.173      860.708
09/14/2014  02:27:00      -83.612      -38.209       -8.723       21.587       12.002       12.017      466.001      144.040      144.410        0.464        0.038       91.928       11.295        0.015      342.011       17.122      860.718
09/14/2014  02:28:00      -90.060      -38.579       -1.300       23.286       11.890       10.143      542.228      141.371      102.871        0.519        0.039       97.975        9.983        0.010      342.073       17.228      860.725
09/14/2014  02:29:00      -78.349      -30.747       -3.348       23.735       15.161       15.544      563.355      229.860      241.629        0.406        0.052       84.166       14.642        0.030      342.078       17.235      860.730
09/14/2014  02:30:00      -71.071      -48.029       -1.922       35.836       26.501       14.767     1284.253      702.297      218.064        0.478        0.110       85.778       13.080        0.023      342.013       17.126      860.729
09/14/2014  02:31:00      -94.741      -53.067       -0.842       35.863       26.300       18.342     1286.186      691.715      336.423        0.705        0.116      108.591       14.314        0.017      342.078       17.236      860.730
09/14/2014  02:32:00      -55.525      -69.375        0.351       38.436       30.283       21.328     1477.351      917.062      454.885        0.537        0.142       88.859       16.431        0.034      342.009       17.118      860.747
09/14/2014  02:33:00      -77.121      -69.435       -4.950       49.126       32.855       24.026     2413.347     1079.464      577.265        0.743        0.204      103.773       25.438        0.060      342.007       17.116      860.739
09/14/2014  02:34:00     -118.609      -58.538       -2.105       29.082       23.162       18.713      845.771      536.463      350.176        0.962        0.087      132.268       14.171        0.011      342.155       17.367      860.737
09/14/2014  02:35:00      -61.028      -50.157        7.714       49.690       32.335       24.027     2469.135     1045.522      577.316        0.520        0.205       78.994       24.597        0.097      342.177       17.404      860.739
09/14/2014  02:36:00      -81.868      -66.197        1.573       48.655       29.255       21.442     2367.353      855.847      459.752        0.738        0.184      105.282       20.950        0.040      342.255       17.537      860.728
09/14/2014  02:37:00      -49.613      -29.383        6.689       40.979       29.910       18.512     1679.252      894.579      342.678        0.314        0.146       57.661       18.096        0.098      342.231       17.495      860.723
09/14/2014  02:38:00      -66.396      -29.568       -1.016       22.986       19.165       13.738      528.339      367.306      188.729        0.318        0.054       72.682       10.180        0.020      342.099       17.272      860.731
09/14/2014  02:39:00      -60.618      -41.749       -2.753       29.266       21.149       16.137      856.481      447.294      260.400        0.349        0.078       73.604       13.068        0.032      342.179       17.406      860.734
09/14/2014  02:40:00      -60.781      -36.323       -0.610       39.068       22.806       16.232     1526.329      520.117      263.483        0.366        0.115       70.808       15.882        0.050      342.154       17.364      860.744
09/14/2014  02:41:00      -96.650      -54.263       -1.363       23.007       26.188       14.801      529.326      685.805      219.071        0.686        0.072      110.841       14.419        0.017      342.224       17.483      860.761
09/14/2014  02:42:00     -124.503      -56.306       -2.207       36.788       24.445       15.669     1353.366      597.579      245.529        1.044        0.110      136.644       18.447        0.018      342.259       17.545      860.777
09/14/2014  02:43:00      -97.190      -32.807        3.008       27.962       31.986       19.745      781.853     1023.114      389.870        0.636        0.110      102.578       18.141        0.031      342.198       17.439      860.784
09/14/2014  02:44:00      -58.937      -32.368        9.827       41.705       18.452       18.622     1739.317      340.474      346.771        0.352        0.121       67.240       18.949        0.079      342.206       17.453      860.795
09/14/2014  02:45:00      -41.907      -39.925       10.574       43.943       28.867       19.843     1930.975      833.317      393.735        0.331        0.158       57.881       20.069        0.120      342.163       17.380      860.809
09/14/2014  02:46:00     -103.244      -83.252       -3.387       29.005       32.716       18.602      841.291     1070.316      346.022        0.993        0.113      132.628       12.373        0.009      342.254       17.535      860.830
09/14/2014  02:47:00      -66.986      -53.588        4.789       40.598       31.647       22.695     1648.177     1001.501      515.081        0.527        0.158       85.784       18.758        0.048      342.189       17.425      860.831
09/14/2014  02:48:00      -38.731      -39.954        4.472       44.543       39.367       21.835     1984.044     1549.721      476.763        0.356        0.201       55.645       23.520        0.179      342.126       17.318      860.829
09/14/2014  02:49:00      -67.044      -83.150        2.946       38.469       27.119       17.641     1479.885      735.435      311.212        0.697        0.126      106.812       18.849        0.031      342.224       17.483      860.838
09/14/2014  02:50:00      -66.299      -41.795       -0.525       21.145       20.993       13.859      447.098      440.704      192.084        0.361        0.054       78.374       11.183        0.020      342.219       17.475      860.838
09/14/2014  02:51:00      -87.888      -44.205       -2.412       21.237       24.718       13.854      451.026      610.995      191.931        0.547        0.063       98.379        8.350        0.007      342.214       17.467      860.831
09/14/2014  02:52:00      -33.462      -14.317        4.025       23.654       21.291       14.138      559.500      453.290      199.874        0.128        0.061       36.396       12.325        0.115      342.097       17.267      860.829
09/14/2014  02:53:00      -44.008      -25.920        3.573       34.191       20.128       16.705     1169.056      405.121      279.058        0.224        0.093       51.074       18.692        0.134      342.064       17.214      860.846
09/14/2014  02:54:00      -24.190      -25.919       -0.570       38.310       14.569       15.872     1467.670      212.241      251.922        0.159        0.097       35.454       11.345        0.102      342.084       17.246      860.859
09/14/2014  02:55:00      -49.759      -50.450       -0.959       43.627       35.758       20.975     1903.311     1278.642      439.936        0.432        0.181       70.860       22.050        0.097      341.980       17.070      860.867
09/14/2014  02:56:00      -73.604      -59.573       -5.143       23.708       29.128       18.831      562.074      848.440      354.596        0.538        0.088       94.692       15.555        0.027      341.997       17.098      860.866
09/14/2014  02:57:00      -62.315      -79.248       -0.769       32.901       36.615       14.342     1082.453     1340.645      205.697        0.640        0.131      100.814       14.565        0.021      342.034       17.162      860.851
09/14/2014  02:58:00      -93.207      -27.748        3.071       40.765       26.923       15.295     1661.821      724.822      233.941        0.604        0.131       97.250       17.065        0.031      341.984       17.077      860.850
09/14/2014  02:59:00      -69.367      -28.693        4.535       32.017       24.924       14.729     1025.100      621.200      216.944        0.376        0.093       75.068       13.950        0.035      341.952       17.023      860.848
09/14/2014  03:00:00      -65.968      -41.685        0.359       30.674       21.087       14.908      940.915      444.667      222.255        0.385        0.080       78.034        7.678        0.010      342.007       17.116      860.837
09/14/2014  03:01:00      -60.122      -32.894        6.343       30.118       22.579       15.042      907.096      509.799      226.264        0.319        0.082       68.532       11.575        0.029      341.953       17.023      860.826
09/14/2014  03:02:00      -70.521      -37.225        6.803       34.579       25.160       19.580     1195.716      633.000      383.387        0.431        0.111       79.742       20.648        0.067      341.937       16.996      860.829
09/14/2014  03:03:00      -71.548      -61.957        5.549       40.173       35.680       18.686     1613.876     1273.028      349.176        0.611        0.162       94.646       17.586        0.035      341.981       17.072      860.833
09/14/2014  03:04:00      -67.168      -40.594        7.240       35.935       26.372       20.276     1291.343      695.474      411.105        0.430        0.120       78.482       18.304        0.054      341.957       17.030      860.827
09/14/2014  03:05:00      -87.045      -51.798        7.513       32.371       26.366       18.065     1047.878      695.190      326.327        0.619        0.103      101.291       16.847        0.028      341.968       17.051      860.819
09/14/2014  03:06:00      -89.901      -44.042      -10.783       35.818       38.713       18.847     1282.893     1498.691      355.211        0.664        0.157      100.109       14.510        0.021      342.015       17.129      860.823
09/14/2014  03:07:00      -97.232       -8.690       -5.415       33.294       27.026       19.210     1108.466      730.409      369.027        0.588        0.110       97.619       19.106        0.038      341.993       17.092      860.828
09/14/2014  03:08:00      -91.200      -25.529       -2.187       30.183       23.493       19.772      911.005      551.934      390.938        0.541        0.093       94.706       16.910        0.032      341.907       16.944      860.825
09/14/2014  03:09:00      -85.112      -34.287        4.677       30.702       24.186       19.077      942.609      584.939      363.915        0.517        0.095       91.759       15.532        0.029      341.808       16.778      860.828
09/14/2014  03:10:00      -86.449      -31.371       -8.246       22.825       19.199       13.175      520.968      368.583      173.583        0.479        0.053       91.965       10.335        0.013      341.811       16.783      860.834
09/14/2014  03:11:00      -85.257      -19.565       -5.425       28.501       15.533       12.577      812.316      241.277      158.176        0.445        0.061       87.473       12.834        0.022      341.734       16.652      860.830
09/14/2014  03:12:00     -112.547      -16.032       -4.101       25.557       21.473       15.502      653.186      461.098      240.313        0.715        0.068      113.683       14.625        0.017      341.615       16.449      860.829
09/14/2014  03:13:00     -120.035      -35.441       -3.215       26.645       19.504       14.862      709.959      380.410      220.866        0.849        0.066      125.158       12.135        0.009      341.561       16.359      860.830
09/14/2014  03:14:00     -125.004      -47.147        3.565       35.788       23.392       17.367     1280.759      547.185      301.618        1.000        0.106      133.599       15.852        0.014      341.555       16.350      860.843
09/14/2014  03:15:00     -138.064      -51.194        0.719       33.368       26.001       17.466     1113.397      676.053      305.078        1.189        0.105      147.250       16.728        0.013      341.582       16.393      860.849
09/14/2014  03:16:00     -133.641      -63.514        0.170       32.763       23.546       17.740     1073.437      554.424      314.723        1.192        0.097      147.966       14.042        0.009      341.626       16.470      860.838
09/14/2014  03:17:00     -126.700      -48.848       -2.227       22.808       23.543       14.053      520.195      554.295      197.483        0.986        0.064      135.790        9.247        0.005      341.667       16.539      860.831
09/14/2014  03:18:00      -90.293      -24.696       -4.203       22.676       20.930       12.492      514.210      438.070      156.055        0.494        0.055       93.609        6.880        0.005      341.598       16.421      860.823
09/14/2014  03:19:00     -110.663      -13.338      -13.635       22.198       19.127       12.497      492.767      365.860      156.163        0.681        0.051      111.464        6.710        0.004      341.571       16.376      860.823
09/14/2014  03:20:00     -123.056      -34.967       -5.293       29.195       22.017       17.266      852.348      484.763      298.130        0.901        0.082      127.928       15.490        0.015      341.483       16.226      860.838
09/14/2014  03:21:00      -99.098      -51.361        4.622       58.203       25.673       17.256     3387.600      659.115      297.766        0.841        0.217      111.617       20.159        0.033      341.525       16.298      860.847
09/14/2014  03:22:00      -98.448      -92.808       -0.112       49.691       48.878       26.305     2469.156     2389.039      691.968        1.193        0.278      135.297       26.380        0.038      341.646       16.503      860.850
09/14/2014  03:23:00      -80.007      -87.118       18.315       58.792       55.336       30.795     3456.454     3062.126      948.307        1.090        0.373      118.283       27.649        0.055      341.695       16.587      860.864
09/14/2014  03:24:00      -93.368      -67.637       -3.794       59.739       61.971       27.928     3568.692     3840.426      779.957        1.075        0.409      115.293       27.734        0.058      341.691       16.580      860.877
09/14/2014  03:25:00     -126.045      -48.911      -14.542       43.969       54.885       25.784     1933.304     3012.402      664.798        1.205        0.281      135.202       26.543        0.039      341.585       16.401      860.874
09/14/2014  03:26:00     -104.890      -41.119       -2.118       38.743       36.885       27.014     1501.006     1360.516      729.757        0.814        0.180      112.661       23.365        0.043      341.534       16.311      860.867
09/14/2014  03:27:00     -124.597      -71.618       -7.087       28.545       49.804       22.205      814.799     2480.472      493.041        1.225        0.189      143.713       18.638        0.017      341.599       16.422      860.849
09/14/2014  03:28:00     -107.121      -46.379       -0.377       37.793       26.202       16.716     1428.282      686.532      279.435        0.801        0.120      116.730       16.892        0.021      341.539       16.321      860.843
09/14/2014  03:29:00     -114.290      -46.137        2.461       40.237       25.832       22.935     1619.052      667.277      526.002        0.900        0.141      123.251       21.280        0.030      341.504       16.261      860.827
09/14/2014  03:30:00      -86.349      -51.487        1.517       33.531       22.736       20.713     1124.306      516.941      429.027        0.609        0.104      100.534       19.482        0.038      341.528       16.303      860.824
09/14/2014  03:31:00     -121.181      -69.616       -1.195       34.563       26.782       26.408     1194.612      717.294      697.382        1.107        0.130      139.754       17.372        0.015      341.561       16.360      860.830
09/14/2014  03:32:00     -136.797      -56.738       -1.653       38.965       38.673       19.967     1518.250     1495.578      398.692        1.267        0.171      148.097       19.314        0.017      341.469       16.202      860.853
09/14/2014  03:33:00     -135.142      -42.199       -3.040       56.734       39.724       21.743     3218.779     1578.007      472.758        1.266        0.263      141.577       24.253        0.029      341.516       16.284      860.857
09/14/2014  03:34:00     -112.522      -25.554        4.240       50.255       45.466       26.992     2525.547     2067.172      728.556        0.933        0.266      115.387       24.939        0.047      341.452       16.174      860.846
09/14/2014  03:35:00      -89.002      -30.375        5.533       43.494       32.407       18.523     1891.771     1050.228      343.089        0.608        0.164       94.043       21.062        0.050      341.383       16.058      860.848
09/14/2014  03:36:00      -71.300      -44.302        2.469       50.749       31.444       21.313     2575.505      988.740      454.247        0.553        0.201       83.942       20.487        0.060      341.428       16.133      860.846
09/14/2014  03:37:00     -108.781      -24.360       -3.268       32.399       30.807       21.675     1049.691      949.089      469.823        0.745        0.123      111.475       19.898        0.032      341.450       16.171      860.830
09/14/2014  03:38:00      -94.856      -27.019       -7.362       33.479       28.147       18.064     1120.840      792.259      326.308        0.601        0.112       98.629       17.044        0.030      341.407       16.097      860.837
09/14/2014  03:39:00      -72.018      -41.624        5.691       34.621       23.590       15.829     1198.635      556.472      250.556        0.448        0.100       83.181       17.642        0.045      341.372       16.040      860.847
09/14/2014  03:40:00      -53.419      -44.079        5.234       47.679       31.831       21.868     2273.310     1013.195      478.227        0.429        0.188       69.257       21.491        0.096      341.468       16.200      860.852
09/14/2014  03:41:00      -95.887      -55.491        4.233       44.143       29.128       18.717     1948.597      848.445      350.336        0.772        0.157      110.786       19.278        0.030      341.403       16.091      860.858
09/14/2014  03:42:00     -137.779      -42.081       -8.422       17.806       19.756       16.653      317.040      390.309      277.308        1.090        0.049      144.062        6.717        0.002      341.299       15.916      860.870
09/14/2014  03:43:00     -131.844      -38.515       -4.496       30.885       27.793       18.307      953.903      772.446      335.155        1.047        0.103      137.354       14.244        0.011      341.303       15.923      860.852
09/14/2014  03:44:00     -135.033      -61.799       -3.173       23.698       24.824       16.301      561.577      616.207      265.715        1.175        0.072      148.503       12.394        0.007      341.292       15.903      860.832
09/14/2014  03:45:00     -145.091      -49.815       -4.791       14.065       20.614       11.616      197.827      424.938      134.941        1.216        0.038      153.404        8.168        0.003      341.273       15.871      860.821
09/14/2014  03:46:00     -139.821      -36.362       -3.283       32.283       24.388       19.596     1042.178      594.792      384.020        1.145        0.101      144.472       14.029        0.009      341.176       15.707      860.832
09/14/2014  03:47:00     -128.815      -43.928       -0.735       43.051       27.105       20.128     1853.386      734.699      405.127        1.076        0.150      136.100       20.030        0.022      341.082       15.549      860.839
09/14/2014  03:48:00     -164.803      -69.222       -4.537       29.112       26.610       17.610      847.490      708.106      310.100        1.692        0.093      178.750       13.814        0.006      341.049       15.493      860.842
09/14/2014  03:49:00     -159.093      -41.439       -4.150       32.879       24.614       16.304     1081.049      605.853      265.829        1.450        0.098      164.401       17.495        0.011      341.172       15.700      860.833
09/14/2014  03:50:00     -116.391      -16.707       -6.357       28.212       24.369       13.513      795.916      593.834      182.612        0.772        0.079      117.584       14.494        0.015      341.144       15.653      860.828
09/14/2014  03:51:00     -141.367        7.577      -13.467       30.368       22.003       14.886      922.224      484.115      221.605        1.093        0.081      141.569       15.527        0.012      341.114       15.603      860.815
09/14/2014  03:52:00     -118.251       12.248       -9.083       40.206       25.466       18.508     1616.540      648.505      342.549        0.841        0.130      118.884       18.921        0.025      341.322       15.954      860.796
09/14/2014  03:53:00      -94.311      -16.707       -3.748       26.954       29.813       18.071      726.513      888.789      326.561        0.556        0.097       95.779       16.634        0.030      341.322       15.956      860.790
09/14/2014  03:54:00      -78.840      -19.875        0.030       33.550       37.542       16.669     1125.613     1409.422      277.872        0.471        0.141       81.306       12.985        0.026      341.226       15.792      860.793
09/14/2014  03:55:00      -61.768      -31.623        5.016       33.269       34.778       20.104     1106.804     1209.520      404.185        0.378        0.136       69.392       17.689        0.065      341.184       15.721      860.794
09/14/2014  03:56:00      -56.716      -17.354        1.591       28.423       22.673       14.009      807.891      514.083      196.249        0.252        0.076       59.312       12.858        0.047      341.158       15.676      860.789
09/14/2014  03:57:00      -21.595      -18.355       -4.865       23.858       15.970       14.653      569.208      255.027      214.722        0.093        0.052       28.341        5.654        0.040      341.146       15.656      860.802
09/14/2014  03:58:00       -9.957      -18.812        3.373       26.422       18.457       16.208      698.128      340.658      262.697        0.088        0.065       21.285       11.958        0.316      341.106       15.588      860.822
09/14/2014  03:59:00      -70.779      -19.009       -1.131       31.541       24.526       14.057      994.812      601.524      197.605        0.358        0.090       73.287       15.143        0.043      341.011       15.427      860.834
09/14/2014  04:00:00      -78.827      -51.880       -6.287       20.868       21.177       17.236      435.461      448.447      297.089        0.506        0.059       94.367        7.690        0.007      341.016       15.438      860.845
09/14/2014  04:01:00      -51.255      -31.639       -4.939       25.563       21.036       19.456      653.449      442.511      378.527        0.256        0.074       60.234       12.961        0.046      340.960       15.342      860.850
09/14/2014  04:02:00       -8.867      -17.450        6.623       39.533       24.647       20.032     1562.819      607.466      401.291        0.150        0.129       19.573       19.699        1.013      340.932       15.294      860.858
09/14/2014  04:03:00      -31.704      -22.544        6.268       45.856       33.295       28.170     2102.783     1108.557      793.571        0.278        0.200       38.902       32.395        0.693      340.977       15.371      860.864
09/14/2014  04:04:00      -22.566      -11.700        9.811       25.633       22.460       18.257      657.049      504.457      333.308        0.112        0.075       25.419       13.834        0.296      340.952       15.327      860.861
09/14/2014  04:05:00      -43.008      -42.145      -10.629       25.958       22.991       14.663      673.793      528.566      215.011        0.258        0.071       60.215        6.478        0.012      340.930       15.289      860.865
09/14/2014  04:06:00      -23.834      -28.522      -11.210       23.526       17.309       11.835      553.452      299.587      140.069        0.125        0.050       37.170        8.005        0.046      341.040       15.476      860.867
09/14/2014  04:07:00      -75.109      -11.272      -12.756       16.712       15.109       12.782      279.304      228.284      163.383        0.330        0.034       75.950        7.283        0.009      341.047       15.490      860.856
09/14/2014  04:08:00      -89.380      -12.019      -19.922       11.454       15.548       12.049      131.205      241.755      145.176        0.452        0.026       90.184        7.894        0.008      341.137       15.643      860.853
09/14/2014  04:09:00      -95.157       -2.880      -18.922       13.431       17.717       12.314      180.399      313.900      151.625        0.503        0.032       95.200        7.084        0.006      341.121       15.615      860.865
09/14/2014  04:10:00      -98.553      -22.573      -19.226       22.285       17.812       18.148      496.627      317.251      329.336        0.587        0.057      101.105        9.298        0.008      341.058       15.508      860.860
09/14/2014  04:11:00      -87.902      -53.561      -19.466       23.568       33.644       16.547      555.432     1131.898      273.805        0.647        0.098      102.934       13.569        0.017      341.031       15.461      860.856
09/14/2014  04:12:00      -54.441      -57.340       -3.066       35.092       27.068       25.632     1231.458      732.690      656.989        0.444        0.131       79.067       24.423        0.095      340.867       15.184      860.855
09/14/2014  04:13:00     -121.318      -56.755      -17.767       29.112       25.298       17.546      847.488      639.973      307.856        1.002        0.090      133.937       11.549        0.007      340.856       15.167      860.859
09/14/2014  04:14:00      -71.862      -47.427       -5.143       45.239       29.143       19.621     2046.544      849.285      384.969        0.536        0.164       86.101       12.936        0.023      340.802       15.074      860.857
09/14/2014  04:15:00     -114.707      -20.271       -7.206       41.833       27.323       21.628     1750.010      746.550      467.773        0.829        0.148      116.485       22.759        0.038      340.814       15.094      860.853
09/14/2014  04:16:00      -76.077      -41.699       -9.048       33.476       23.634       17.927     1120.611      558.551      321.363        0.480        0.100       86.755       14.828        0.029      340.799       15.069      860.853
09/14/2014  04:17:00     -101.722      -58.321      -11.474       28.073       18.226       12.477      788.116      332.173      155.673        0.758        0.064      117.255       10.389        0.008      340.746       14.979      860.865
09/14/2014  04:18:00     -110.640      -67.324       -1.501       23.563       21.522       15.238      555.225      463.207      232.184        0.901        0.063      129.513       12.698        0.010      340.860       15.173      860.861
09/14/2014  04:19:00      -78.042      -40.432       -2.431       26.716       19.381       14.305      713.757      375.606      204.632        0.451        0.065       87.894        9.282        0.011      340.931       15.292      860.859
09/14/2014  04:20:00     -104.147      -50.866       -7.357       14.165       11.022       10.678      200.638      121.476      114.022        0.696        0.022      115.905        1.886        0.000      340.976       15.367      860.869
09/14/2014  04:21:00     -117.872      -67.409       -6.327       19.625       21.011       15.472      385.123      441.445      239.385        0.977        0.053      135.786        7.724        0.003      340.953       15.329      860.875
09/14/2014  04:22:00     -158.937      -68.415       -9.942       20.638       22.677       15.994      425.918      514.239      255.815        1.562        0.060      173.037       12.523        0.005      340.911       15.260      860.876
09/14/2014  04:23:00     -167.290      -75.919       -0.713       40.531       36.978       20.434     1642.733     1367.394      417.544        1.859        0.171      183.710       19.001        0.011      340.876       15.199      860.886
09/14/2014  04:24:00     -136.126      -60.154        2.536       41.530       33.099       20.543     1724.739     1095.570      422.035        1.270        0.162      148.825       17.352        0.014      340.866       15.182      860.894
09/14/2014  04:25:00     -139.347      -59.747       -0.591       39.334       31.180       22.471     1547.165      972.219      504.926        1.301        0.151      151.615       20.225        0.018      340.895       15.232      860.890
09/14/2014  04:26:00     -134.093      -60.784        0.131       43.609       24.744       20.193     1901.778      612.251      407.752        1.230        0.146      147.227       19.716        0.018      340.924       15.279      860.881
09/14/2014  04:27:00      -92.931      -43.967        5.749       43.848       19.946       21.721     1922.644      397.831      471.818        0.670        0.140      102.807       18.177        0.031      340.821       15.108      860.892
09/14/2014  04:28:00     -115.257      -30.794       -3.734       25.619       28.156       16.728      656.341      792.759      279.819        0.799        0.086      119.300       13.142        0.012      340.782       15.041      860.881
09/14/2014  04:29:00      -71.938      -46.493       -2.505       38.764       22.062       16.264     1502.652      486.714      264.507        0.480        0.113       85.654       19.521        0.052      340.757       14.998      860.880
09/14/2014  04:30:00      -48.282      -47.273        4.757       28.830       23.798       19.286      831.157      566.339      371.952        0.318        0.088       67.571       14.300        0.045      340.757       14.998      860.884
09/14/2014  04:31:00      -31.482      -49.747        9.725       44.694       47.223       26.395     1997.574     2229.977      696.705        0.424        0.246       58.872       25.761        0.191      340.784       15.044      860.903
09/14/2014  04:32:00     -129.215      -81.408       -0.303       56.214       51.979       37.531     3160.034     2701.831     1408.587        1.530        0.364      152.721       35.544        0.054      340.856       15.165      860.901
09/14/2014  04:33:00     -144.365      -92.574       -2.158       45.890       37.053       26.526     2105.863     1372.955      703.638        1.680        0.209      171.497       25.799        0.023      340.995       15.401      860.898
09/14/2014  04:34:00     -121.550      -96.688        3.153       58.467       46.682       32.493     3418.349     2179.254     1055.805        1.539        0.333      155.316       30.059        0.037      340.963       15.347      860.889
09/14/2014  04:35:00     -130.430      -58.450       -9.647       62.943       30.883       24.614     3961.799      953.740      605.833        1.302        0.276      142.928       18.384        0.017      340.951       15.325      860.879
09/14/2014  04:36:00     -155.287      -57.197       -5.910       43.947       39.494       23.633     1931.311     1559.752      558.533        1.573        0.202      165.486       22.819        0.019      340.919       15.272      860.861
09/14/2014  04:37:00     -156.829      -30.223       -5.819       49.374       32.670       23.159     2437.786     1067.310      536.320        1.479        0.202      159.715       22.955        0.021      340.866       15.183      860.860
09/14/2014  04:38:00     -150.102      -42.164       -5.008       48.583       38.012       26.010     2360.345     1444.878      676.506        1.441        0.224      155.911       24.794        0.025      340.889       15.221      860.876
09/14/2014  04:39:00     -114.048      -30.612      -12.509       30.408       31.197       15.704      924.639      973.272      246.607        0.812        0.107      118.085       10.910        0.009      340.910       15.257      860.883
09/14/2014  04:40:00      -85.445      -40.919       -5.753       16.614       21.613       14.987      276.027      467.108      224.613        0.499        0.048       94.738        6.804        0.005      340.892       15.227      860.893
09/14/2014  04:41:00     -116.799      -41.522       -5.588       21.478       22.302       13.523      461.317      497.384      182.873        0.827        0.057      123.960       11.991        0.009      340.976       15.368      860.912
09/14/2014  04:42:00      -91.833      -29.006       -4.075       25.921       20.147       14.415      671.888      405.919      207.799        0.529        0.064       96.305       15.822        0.027      341.035       15.468      860.909
09/14/2014  04:43:00     -111.537      -35.615      -12.947       12.799       16.539       12.476      163.820      273.534      155.663        0.723        0.030      117.086        6.506        0.003      341.005       15.417      860.909
09/14/2014  04:44:00      -94.632      -29.979      -10.716       15.990       15.616       11.042      255.680      243.845      121.930        0.530        0.031       99.267        8.722        0.008      341.060       15.512      860.904
09/14/2014  04:45:00     -116.813       -4.296      -12.270       27.572       18.980       18.120      760.243      360.224      328.351        0.763        0.072      116.892       13.939        0.014      340.934       15.299      860.885
09/14/2014  04:46:00     -102.651       -7.524       -5.433       37.102       20.416       17.853     1376.525      416.808      318.738        0.637        0.106      102.927       19.819        0.037      340.764       15.011      860.870
09/14/2014  04:47:00      -69.961       -5.133        2.230       25.526       24.178       17.232      651.565      584.580      296.938        0.323        0.077       70.149       13.254        0.036      340.760       15.003      860.859
09/14/2014  04:48:00      -44.302      -31.023        8.638       37.890       27.823       18.629     1435.670      774.098      347.026        0.278        0.128       54.084       18.313        0.115      340.861       15.173      860.864
09/14/2014  04:49:00      -46.871      -36.256        5.531       50.793       27.228       19.585     2579.880      741.359      383.577        0.362        0.185       59.257       21.586        0.133      340.910       15.257      860.887
09/14/2014  04:50:00      -74.528      -53.619        5.036       47.009       35.642       20.009     2209.829     1270.339      400.372        0.617        0.194       91.812       19.691        0.046      340.808       15.084      860.908
09/14/2014  04:51:00      -62.745      -66.105       10.217       47.507       29.140       25.227     2256.871      849.146      636.388        0.608        0.187       91.142       22.695        0.062      341.003       15.414      860.912
09/14/2014  04:52:00      -69.363      -75.847       -2.969       34.116       31.453       20.123     1163.877      989.306      404.937        0.657        0.128      102.781       16.662        0.026      341.087       15.557      860.926
09/14/2014  04:53:00     -107.806      -69.425       -4.909       45.422       33.720       23.354     2063.184     1137.040      545.421        1.011        0.187      128.226       23.358        0.033      341.180       15.712      860.922
09/14/2014  04:54:00     -107.006      -77.809        1.964       29.109       38.391       22.900      847.343     1473.862      524.403        1.018        0.142      132.305       17.775        0.018      341.376       16.044      860.909
09/14/2014  04:55:00      -59.345      -52.923       10.633       46.222       32.602       25.174     2136.479     1062.890      633.713        0.513        0.192       79.515       25.885        0.106      341.298       15.912      860.893
09/14/2014  04:56:00      -98.099      -61.869        0.594       46.651       25.438       17.899     2176.319      647.082      320.392        0.830        0.157      115.979       20.637        0.032      341.168       15.694      860.889
09/14/2014  04:57:00      -67.668      -40.410        3.557       45.831       35.180       20.203     2100.443     1237.665      408.180        0.498        0.187       78.815       22.938        0.085      341.122       15.614      860.892
09/14/2014  04:58:00      -62.289      -28.723        4.394       38.554       21.210       14.367     1486.448      449.862      206.399        0.343        0.107       68.593       10.007        0.021      341.117       15.608      860.895
09/14/2014  04:59:00      -30.586      -22.169        1.231       29.876       19.836       13.303      892.555      393.462      176.977        0.145        0.073       37.775       11.575        0.094      341.147       15.658      860.899
09/14/2014  05:00:00      -22.963      -12.188        3.985       27.456       12.260        9.163      753.840      150.315       83.969        0.084        0.049       25.997        4.187        0.026      341.099       15.575      860.902
09/14/2014  05:01:00      -45.553      -28.733        5.647       37.078       24.944       18.974     1374.750      622.217      360.027        0.264        0.118       53.858       20.074        0.139      341.055       15.503      860.906
09/14/2014  05:02:00      -59.686      -43.392       -1.119       43.888       32.576       24.877     1926.193     1061.224      618.878        0.453        0.180       73.792       23.674        0.103      340.992       15.395      860.916
09/14/2014  05:03:00      -89.964      -50.708       -4.789       39.768       19.754       15.486     1581.463      390.210      239.825        0.645        0.111      103.270       14.621        0.020      340.863       15.178      860.928
09/14/2014  05:04:00      -87.503      -60.582       -6.376       29.632       24.686       16.594      878.055      609.407      275.345        0.656        0.088      106.428       14.928        0.020      340.957       15.336      860.925
09/14/2014  05:05:00      -70.036      -43.390        3.041       40.107       23.396       21.519     1608.598      547.396      463.057        0.471        0.131       82.388       17.633        0.046      341.015       15.435      860.926
09/14/2014  05:06:00      -68.259      -38.595        3.495       28.351       18.745       20.691      803.776      351.359      428.100        0.387        0.079       78.415       14.405        0.034      340.925       15.282      860.940
09/14/2014  05:07:00      -32.862      -38.843        6.953       46.371       30.220       23.403     2150.270      913.224      547.703        0.312        0.181       50.879       25.295        0.247      340.898       15.235      860.956
09/14/2014  05:08:00      -65.631      -73.543        0.911       33.184       34.753       19.211     1101.162     1207.780      369.047        0.620        0.134       98.570       15.976        0.026      340.958       15.338      860.968
09/14/2014  05:09:00      -80.874      -60.107       -0.275       29.574       23.442       20.588      874.594      549.536      423.864        0.600        0.092      100.764       13.625        0.018      340.966       15.354      860.976
09/14/2014  05:10:00      -89.835      -57.337       -8.837       27.504       22.275       13.116      756.457      496.159      172.036        0.643        0.071      106.574       11.952        0.013      341.073       15.532      860.965
09/14/2014  05:11:00      -86.621      -58.278        0.518       31.011       27.555       14.947      961.692      759.261      223.413        0.642        0.097      104.400       10.840        0.011      341.079       15.544      860.968
09/14/2014  05:12:00      -82.082      -59.526       -0.109       31.419       22.108       16.190      987.159      488.773      262.110        0.601        0.087      101.395       15.778        0.024      341.026       15.454      860.970
09/14/2014  05:13:00      -32.447      -50.448       11.446       35.119       26.589       18.153     1233.344      706.958      329.539        0.300        0.113       59.982       17.900        0.089      340.989       15.389      860.985
09/14/2014  05:14:00      -65.354      -46.389        9.499       37.485       33.289       22.337     1405.137     1108.141      498.938        0.476        0.151       80.145       16.669        0.043      340.926       15.285      860.996
09/14/2014  05:15:00      -93.534      -53.063       -4.635       34.328       21.714       16.790     1178.421      471.517      281.907        0.676        0.097      107.537       17.708        0.027      340.925       15.283      861.002
09/14/2014  05:16:00     -119.752      -49.967        1.601       36.367       26.941       19.354     1322.523      725.810      374.569        0.963        0.121      129.758       14.752        0.013      340.878       15.200      861.002
09/14/2014  05:17:00     -108.899      -50.748        3.666       36.968       35.462       25.705     1366.653     1257.551      660.771        0.887        0.164      120.143       21.429        0.032      340.849       15.153      860.999
09/14/2014  05:18:00     -127.587      -35.790        2.860       37.584       37.605       21.826     1412.565     1414.129      476.376        1.043        0.165      132.512       21.618        0.027      340.891       15.224      861.004
09/14/2014  05:19:00     -101.383      -51.679        3.206       51.692       28.783       21.520     2672.105      828.455      463.107        0.846        0.198      113.795       21.824        0.037      340.860       15.173      861.014
09/14/2014  05:20:00     -125.850      -58.319       -2.134       32.862       34.628       15.233     1079.930     1199.076      232.048        1.088        0.126      138.706       17.124        0.015      340.882       15.210      861.016
09/14/2014  05:21:00      -92.726      -34.798        1.371       35.214       34.286       19.311     1240.022     1175.522      372.916        0.630        0.139       99.041       15.054        0.023      340.802       15.073      861.015
09/14/2014  05:22:00     -106.619      -43.707       -2.406       26.627       28.424       15.230      708.995      807.944      231.944        0.752        0.087      115.229       10.174        0.008      340.757       14.997      861.018
09/14/2014  05:23:00      -91.354       -9.618        0.329       38.792       22.961       17.956     1504.822      527.222      322.400        0.540        0.118       91.859       16.710        0.033      340.607       14.743      861.024
09/14/2014  05:24:00      -80.774      -10.572        1.566       37.218       21.400       20.209     1385.203      457.963      408.413        0.444        0.113       81.463       21.858        0.072      340.544       14.638      861.037
09/14/2014  05:25:00      -94.704      -25.780       -7.152       14.069       16.806       10.122      197.944      282.433      102.454        0.513        0.029       98.150        6.665        0.005      340.617       14.761      861.054
09/14/2014  05:26:00      -91.026      -36.014      -13.025       15.363       14.845       13.035      236.008      220.373      169.907        0.519        0.031       97.891        9.135        0.009      340.622       14.771      861.072
09/14/2014  05:27:00      -87.098      -50.874       -0.517       33.060       24.605       17.798     1092.968      605.405      316.773        0.609        0.101      100.867       11.623        0.013      340.484       14.536      861.089
09/14/2014  05:28:00     -107.733      -56.298        2.551       30.824       25.054       19.424      950.142      627.679      377.283        0.837        0.098      121.556       15.082        0.015      340.601       14.733      861.098
09/14/2014  05:29:00      -69.095      -44.379        6.797       38.175       23.457       17.408     1457.350      550.208      303.053        0.455        0.116       82.119       13.791        0.028      340.579       14.698      861.112
09/14/2014  05:30:00      -50.548      -47.228        1.150       33.902       22.633       20.571     1149.319      512.250      423.173        0.344        0.104       69.178       21.832        0.100      340.644       14.807      861.128
09/14/2014  05:31:00      -22.984      -23.053       14.448       49.125       15.620       21.918     2413.294      243.998      480.412        0.220        0.157       32.553       29.199        0.805      340.668       14.848      861.135
09/14/2014  05:32:00      -57.645      -22.435       -3.143       18.483       13.950       12.172      341.622      194.593      148.169        0.226        0.034       61.856       10.620        0.029      340.669       14.849      861.132
09/14/2014  05:33:00      -49.423      -16.392       -3.350       18.318       14.819       11.207      335.559      219.611      125.604        0.170        0.034       52.071        8.350        0.026      340.640       14.800      861.122
09/14/2014  05:34:00      -54.893      -34.951       -4.652       28.258       15.184       13.485      798.509      230.542      181.849        0.273        0.061       65.075       13.207        0.041      340.645       14.808      861.123
09/14/2014  05:35:00      -95.177      -58.515       -1.498       43.713       27.130       22.825     1910.787      736.058      520.977        0.783        0.158      111.726       13.928        0.016      340.558       14.662      861.133
09/14/2014  05:36:00      -49.929      -34.117        7.043       40.936       36.997       23.284     1675.772     1368.777      542.161        0.365        0.179       60.472       20.409        0.114      340.496       14.558      861.149
09/14/2014  05:37:00      -79.720      -51.025        4.253       46.501       32.324       18.442     2162.306     1044.819      340.118        0.626        0.177       94.651       20.913        0.049      340.495       14.554      861.159
09/14/2014  05:38:00      -73.379      -41.162        8.378       54.919       28.077       20.386     3016.082      788.315      415.570        0.568        0.211       84.135       28.988        0.119      340.503       14.571      861.170
09/14/2014  05:39:00      -81.655      -40.736        2.663       36.810       26.085       19.608     1354.995      680.453      384.461        0.538        0.121       91.252       17.655        0.037      340.502       14.567      861.188
09/14/2014  05:40:00      -45.765      -83.498        5.064       49.862       43.712       26.711     2486.244     1910.779      713.466        0.710        0.256       95.217       22.435        0.056      340.595       14.724      861.206
09/14/2014  05:41:00      -91.548      -95.494        3.680       65.085       47.052       25.904     4236.050     2213.847      670.998        1.232        0.356      132.288       29.592        0.050      340.661       14.836      861.214
09/14/2014  05:42:00     -117.416      -77.202        1.223       54.807       46.969       31.215     3003.850     2206.051      974.379        1.297        0.309      140.523       26.849        0.037      340.645       14.809      861.210
09/14/2014  05:43:00      -78.068      -61.197        3.832       66.476       36.263       27.023     4419.053     1314.990      730.239        0.816        0.323       99.195       31.105        0.098      340.642       14.805      861.197
09/14/2014  05:44:00     -136.745      -73.662       -4.765       47.221       32.188       21.458     2229.820     1036.059      460.450        1.394        0.186      155.323       20.565        0.018      340.633       14.789      861.186
09/14/2014  05:45:00     -135.422      -73.691       -5.671       42.183       47.335       23.091     1779.406     2240.587      533.211        1.418        0.228      154.174       17.999        0.014      340.628       14.779      861.183
09/14/2014  05:46:00     -124.496      -49.040       -7.088       29.967       33.882       15.792      898.046     1147.971      249.385        1.012        0.115      133.807       10.300        0.006      340.602       14.736      861.176
09/14/2014  05:47:00     -119.199      -45.399        1.255       47.340       30.071       19.954     2241.046      904.251      398.156        0.991        0.177      127.551       21.038        0.027      340.511       14.580      861.182
09/14/2014  05:48:00     -134.307      -25.943       -5.011       46.449       32.012       22.830     2157.492     1024.740      521.213        1.122        0.185      136.790       25.409        0.035      340.438       14.459      861.178
09/14/2014  05:49:00     -125.633      -58.191        3.722       50.380       40.474       24.247     2538.096     1638.175      587.897        1.197        0.238      138.456       25.263        0.033      340.364       14.335      861.181
09/14/2014  05:50:00      -87.905      -64.171        5.548       47.226       39.994       23.896     2230.322     1599.545      571.027        0.814        0.220      108.835       24.834        0.052      340.382       14.363      861.190
09/14/2014  05:51:00      -71.986      -35.163       14.681       58.018       30.867       24.810     3366.069      952.792      615.551        0.578        0.247       80.115       27.494        0.118      340.390       14.377      861.208
09/14/2014  05:52:00      -99.675      -58.012        4.978       39.648       26.703       20.714     1571.981      713.030      429.050        0.802        0.136      115.328       22.137        0.037      340.384       14.368      861.217
09/14/2014  05:53:00      -87.878      -46.006        4.020       40.179       27.090       20.560     1614.374      733.874      422.707        0.631        0.139       99.192       19.658        0.039      340.391       14.378      861.236
09/14/2014  05:54:00      -62.082      -55.686       -0.118       40.742       29.832       16.175     1659.912      889.938      261.638        0.488        0.141       83.397       11.004        0.017      340.465       14.503      861.263
09/14/2014  05:55:00      -59.286      -90.826        0.180       39.767       40.738       23.532     1581.449     1659.594      553.765        0.778        0.190      108.463       20.951        0.037      340.559       14.663      861.288
09/14/2014  05:56:00      -53.352      -55.568        4.932       35.749       40.940       26.973     1277.995     1676.100      727.517        0.482        0.184       77.034       24.991        0.105      340.531       14.616      861.294
09/14/2014  05:57:00      -78.262      -99.666       -8.312       28.475       48.106       17.388      810.852     2314.142      302.332        0.978        0.171      126.721       14.009        0.012      340.490       14.544      861.275
09/14/2014  05:58:00      -91.018      -24.658       -0.212       44.184       20.528       19.290     1952.213      421.383      372.094        0.582        0.137       94.299       17.713        0.035      340.548       14.644      861.252
09/14/2014  05:59:00      -42.433      -41.585        5.759       46.492       21.571       17.794     2161.503      465.324      316.636        0.325        0.147       59.413       15.688        0.070      340.521       14.598      861.254
09/14/2014  06:00:00      -23.197      -36.647        6.471       28.950       26.045       20.052      838.082      678.356      402.071        0.192        0.096       43.372       17.385        0.161      340.557       14.659      861.260
09/14/2014  06:01:00      -43.975      -46.760        3.991       39.074       27.370       19.400     1526.805      749.107      376.345        0.339        0.133       64.189       19.871        0.096      340.562       14.668      861.270
09/14/2014  06:02:00      -62.075      -80.749        0.619       51.131       60.919       29.779     2614.411     3711.070      886.790        0.879        0.361      101.852       29.148        0.082      340.477       14.525      861.277
09/14/2014  06:03:00     -130.110      -78.821       -1.463       49.838       52.102       26.277     2483.850     2714.592      690.495        1.452        0.294      152.123       24.092        0.025      340.455       14.485      861.285
09/14/2014  06:04:00     -118.777      -69.761        2.577       48.420       35.269       24.070     2344.497     1243.868      579.385        1.157        0.208      137.748       24.667        0.032      340.454       14.484      861.300
09/14/2014  06:05:00      -52.621      -23.835        4.774       28.314       24.498       19.692      801.675      600.149      387.768        0.257        0.089       57.767        9.745        0.028      340.446       14.473      861.317
09/14/2014  06:06:00      -71.182      -39.034        1.645       24.195       16.165       12.642      585.377      261.299      159.825        0.380        0.050       81.182       10.293        0.016      340.447       14.473      861.341
09/14/2014  06:07:00      -42.625      -29.109        5.939       31.416       22.727       16.792      986.948      516.533      281.957        0.224        0.089       51.616       10.856        0.044      340.355       14.318      861.364
09/14/2014  06:08:00      -40.807      -50.069        3.710       44.671       42.000       19.378     1995.483     1764.041      375.488        0.416        0.207       64.591       10.646        0.027      340.389       14.375      861.384
09/14/2014  06:09:00     -107.190      -73.875       -2.661       42.495       35.135       26.050     1805.850     1234.464      678.584        1.034        0.186      130.182       24.032        0.034      340.366       14.337      861.375
09/14/2014  06:10:00      -66.970      -52.982        8.766       59.890       25.758       25.059     3586.872      663.474      627.932        0.612        0.244       85.394       31.501        0.136      340.358       14.324      861.364
09/14/2014  06:11:00      -43.760      -42.901        5.853       34.272       25.799       22.406     1174.557      665.612      502.038        0.307        0.117       61.281       17.164        0.078      340.348       14.305      861.368
09/14/2014  06:12:00     -110.728      -77.487       -1.303       54.407       48.771       26.215     2960.081     2378.624      687.234        1.215        0.301      135.148       24.973        0.034      340.344       14.297      861.380
09/14/2014  06:13:00     -139.536      -93.965       -5.029       49.095       44.979       31.207     2410.307     2023.108      973.881        1.687        0.270      168.225       22.668        0.018      340.321       14.259      861.375
09/14/2014  06:14:00      -66.626      -63.177        7.591       61.671       42.982       28.396     3803.339     1847.441      806.329        0.747        0.323       91.817       31.543        0.118      340.337       14.287      861.379
09/14/2014  06:15:00     -104.264      -53.098       -0.391       55.844       40.243       23.362     3118.521     1619.476      545.785        0.949        0.264      117.006       27.443        0.055      340.308       14.238      861.384
09/14/2014  06:16:00     -106.269      -61.462        6.118       60.619       49.110       30.559     3674.671     2411.818      933.826        1.106        0.351      122.763       32.342        0.069      340.304       14.231      861.388
09/14/2014  06:17:00     -100.026      -64.065       -1.672       31.688       39.228       21.270     1004.116     1538.835      452.393        0.855        0.150      118.784       15.861        0.018      340.268       14.173      861.394
09/14/2014  06:18:00      -85.385      -48.811       -0.133       38.246       37.177       23.064     1462.772     1382.160      531.943        0.652        0.169       98.352       20.529        0.044      340.303       14.230      861.395
09/14/2014  06:19:00      -91.291      -73.900        2.127       53.320       32.556       30.853     2842.999     1059.901      951.929        0.933        0.243      117.453       31.897        0.074      340.342       14.296      861.404
09/14/2014  06:20:00     -146.259      -33.224      -14.100       36.142       34.519       22.258     1306.215     1191.588      495.404        1.284        0.150      149.985       18.591        0.015      340.344       14.301      861.401
09/14/2014  06:21:00     -147.295      -40.930       -8.958       27.929       29.150       20.684      780.004      849.718      427.848        1.275        0.103      152.876       14.583        0.009      340.270       14.174      861.396
09/14/2014  06:22:00     -147.184      -33.645      -13.863       29.485       25.927       19.766      869.365      672.228      390.712        1.246        0.097      150.980       13.001        0.007      340.120       13.922      861.394
09/14/2014  06:23:00     -124.704      -62.705       -2.066       40.748       33.918       20.373     1660.398     1150.425      415.075        1.136        0.161      139.581       19.081        0.019      340.078       13.850      861.408
09/14/2014  06:24:00     -125.800      -45.846        2.464       40.150       24.825       17.709     1612.032      616.264      313.600        1.024        0.127      133.894       17.521        0.017      340.018       13.750      861.413
09/14/2014  06:25:00     -106.015      -55.557       -8.049       28.138       15.558       14.086      791.723      242.057      198.418        0.781        0.062      119.691        8.999        0.006      340.100       13.889      861.418
09/14/2014  06:26:00      -58.587      -54.517        5.985       36.345       28.868       19.859     1320.934      833.348      394.363        0.449        0.127       80.028       17.534        0.048      340.152       13.974      861.431
09/14/2014  06:27:00      -85.511      -91.832       -4.093       33.742       33.332       16.524     1138.550     1111.008      273.054        0.914        0.126      125.480       17.856        0.020      340.228       14.104      861.453
09/14/2014  06:28:00     -101.618      -96.222       -1.669       51.083       46.476       30.650     2609.457     2160.043      939.418        1.265        0.285      139.945       31.030        0.049      340.266       14.169      861.471
09/14/2014  06:29:00     -111.714     -108.007       -4.138       38.520       43.468       26.040     1483.758     1889.472      678.057        1.411        0.203      155.388       20.885        0.018      340.243       14.129      861.484
09/14/2014  06:30:00     -115.405      -71.768        2.613       68.523       46.687       26.048     4695.464     2179.696      678.514        1.301        0.378      135.901       34.561        0.065      340.252       14.143      861.476
09/14/2014  06:31:00     -131.942      -83.985       -5.826       33.908       31.898       22.217     1149.758     1017.485      493.612        1.358        0.133      156.404       16.818        0.012      340.300       14.225      861.470
09/14/2014  06:32:00      -60.821      -48.420       12.041       46.891       24.816       19.336     2198.735      615.856      373.873        0.469        0.159       77.741       23.344        0.090      340.252       14.143      861.463
09/14/2014  06:33:00      -80.876      -72.492        1.600       32.501       25.492       18.416     1056.288      649.850      339.160        0.692        0.102      108.610       14.926        0.019      340.261       14.158      861.460
09/14/2014  06:34:00      -59.317      -58.197        2.752       34.586       28.570       18.560     1196.206      816.263      344.479        0.463        0.118       83.099       17.834        0.046      340.336       14.287      861.459
09/14/2014  06:35:00      -44.461      -58.266       -0.080       35.634       25.235       16.850     1269.798      636.794      283.913        0.378        0.110       73.292       17.593        0.058      340.311       14.243      861.468
09/14/2014  06:36:00      -89.172      -53.714       -3.598       30.825       18.827       19.206      950.208      354.439      368.883        0.626        0.084      104.100       18.199        0.031      340.264       14.164      861.466
09/14/2014  06:37:00      -57.082      -37.165        6.904       35.620       20.849       14.115     1268.761      434.697      199.240        0.329        0.095       68.115       15.674        0.053      340.264       14.162      861.470
09/14/2014  06:38:00      -46.068      -60.449        9.015       50.692       25.130       21.360     2569.715      631.518      456.259        0.476        0.183       76.002       24.130        0.101      340.297       14.221      861.476
09/14/2014  06:39:00      -93.480      -83.655        1.228       52.017       42.972       30.208     2705.797     1846.619      912.532        1.060        0.273      125.446       26.228        0.044      340.236       14.116      861.485
09/14/2014  06:40:00      -99.612      -53.003        1.182       45.412       41.770       29.218     2062.218     1744.713      853.709        0.870        0.233      112.836       23.514        0.043      340.202       14.059      861.475
09/14/2014  06:41:00     -124.531      -79.183       -3.880       33.278       29.399       21.147     1107.449      864.295      447.209        1.211        0.121      147.574       13.823        0.009      340.239       14.121      861.469
09/14/2014  06:42:00      -36.108      -46.262       -0.573       41.039       25.569       24.117     1684.238      653.776      581.635        0.318        0.146       58.685       18.192        0.096      340.282       14.194      861.471
09/14/2014  06:43:00      -75.130      -31.294       -5.670       38.291       12.718       18.471     1466.184      161.748      341.165        0.431        0.098       81.386       23.864        0.086      340.206       14.067      861.471
09/14/2014  06:44:00     -111.768      -33.462      -16.655       17.040       13.697       11.337      290.357      187.617      128.524        0.725        0.030      116.669        7.076        0.004      340.057       13.816      861.476
09/14/2014  06:45:00     -136.189      -34.718      -23.113       13.994       12.325       10.827      195.835      151.896      117.221        1.038        0.023      140.544        7.511        0.003      340.075       13.846      861.479
09/14/2014  06:46:00     -158.181      -29.749      -26.263       15.865       17.790       12.132      251.710      316.477      147.189        1.366        0.036      160.954        5.910        0.001      340.033       13.776      861.488
09/14/2014  06:47:00     -145.034      -35.356      -20.729       16.708       19.363       13.237      279.163      374.908      175.211        1.177        0.041      149.282        8.030        0.003      340.085       13.864      861.501
09/14/2014  06:48:00     -126.677      -30.366       -8.768       18.971       11.835       13.538      359.904      140.070      183.289        0.886        0.034      130.266       10.644        0.007      340.061       13.821      861.507
09/14/2014  06:49:00     -115.280      -44.932      -18.390        9.541       10.436        7.889       91.029      108.900       62.231        0.795        0.013      123.727        1.551        0.000      340.003       13.723      861.510
09/14/2014  06:50:00      -81.072      -42.288       -3.747       30.349       18.452       17.740      921.066      340.473      314.723        0.498        0.079       91.438       16.187        0.031      339.908       13.563      861.518
09/14/2014  06:51:00      -27.661      -58.506        0.183       34.325       16.221       20.355     1178.219      263.122      414.314        0.302        0.093       64.716       20.479        0.100      339.982       13.689      861.525
09/14/2014  06:52:00       -5.717      -35.912       -6.823       34.064       20.757       16.902     1160.351      430.844      285.663        0.162        0.094       36.365        5.024        0.019      339.990       13.702      861.536
09/14/2014  06:53:00      -89.541      -40.863       -9.999       19.314        9.656        8.096      373.046       93.233       65.544        0.516        0.027       98.424        5.790        0.003      339.852       13.469      861.540
09/14/2014  06:54:00      -96.096      -21.294      -10.213       19.089       16.064        9.518      364.393      258.058       90.597        0.525        0.036       98.427        9.069        0.008      339.841       13.450      861.546
09/14/2014  06:55:00      -93.538      -41.854       -9.237       19.632       18.883       11.311      385.426      356.577      127.928        0.573        0.043      102.475        9.436        0.008      339.925       13.593      861.540
09/14/2014  06:56:00      -81.150      -37.965      -11.865       19.692       14.320        9.815      387.775      205.053       96.330        0.443        0.034       89.592        8.756        0.010      339.910       13.566      861.528
09/14/2014  06:57:00      -63.691      -14.573       -7.538       19.300       25.122       13.859      372.484      631.090      192.059        0.276        0.060       65.337        9.560        0.021      339.854       13.473      861.523
09/14/2014  06:58:00      -62.563      -31.167       -2.908       30.715       28.015       17.721      943.416      784.865      314.040        0.347        0.102       69.897       16.190        0.054      339.818       13.412      861.535
09/14/2014  06:59:00      -64.272      -48.138        1.672       26.816       29.076       17.353      719.081      845.439      301.134        0.416        0.093       80.300       11.363        0.020      339.834       13.441      861.559
09/14/2014  07:00:00     -103.426      -64.444       -6.478       24.755       26.603       19.384      612.817      707.740      375.755        0.829        0.085      121.861       16.501        0.018      339.924       13.590      861.578
09/14/2014  07:01:00      -84.222      -25.179       -4.174       20.409       15.755       12.982      416.544      248.211      168.527        0.429        0.042       87.906       10.994        0.016      340.002       13.722      861.589
09/14/2014  07:02:00      -81.430      -47.775       -3.181       22.974       20.640       17.660      527.792      426.028      311.887        0.509        0.063       94.410       10.106        0.011      340.168       14.002      861.594
09/14/2014  07:03:00     -106.799      -34.451        1.122       28.772       22.418       16.107      827.855      502.566      259.432        0.709        0.079      112.218       17.048        0.023      340.004       13.724      861.600
09/14/2014  07:04:00      -89.747      -23.052       -1.429       30.518       22.015       14.933      931.320      484.669      222.997        0.511        0.082       92.660       11.910        0.017      340.020       13.752      861.598
09/14/2014  07:05:00      -99.178      -13.393       -4.414       23.810       16.277       15.377      566.919      264.944      236.457        0.555        0.053      100.078       12.662        0.016      340.009       13.735      861.602
09/14/2014  07:06:00      -46.590      -24.702       -3.097       19.045       20.335       15.657      362.730      413.521      245.137        0.191        0.051       52.734       10.545        0.040      339.938       13.614      861.624
09/14/2014  07:07:00      -49.912      -36.902        4.338       17.987       18.108       11.676      323.541      327.894      136.340        0.233        0.039       62.072        8.124        0.017      340.033       13.774      861.659
09/14/2014  07:08:00      -62.566      -15.238       -3.303       18.369       11.892        8.688      337.424      141.422       75.489        0.236        0.028       64.395        7.723        0.014      340.091       13.872      861.680
09/14/2014  07:09:00      -24.566      -10.398       -4.611        6.090        6.102        5.152       37.088       37.235       26.544        0.042        0.005       26.676        4.138        0.024      340.226       14.101      861.672
09/14/2014  07:10:00      -55.807       -5.374       -3.838       14.507        9.189        6.842      210.442       84.430       46.815        0.175        0.017       56.065        4.735        0.007      340.342       14.296      861.669
09/14/2014  07:11:00      -72.976      -11.493       -6.449       11.337       11.581       10.686      128.518      134.129      114.191        0.294        0.019       73.875        9.116        0.015      340.228       14.104      861.676
09/14/2014  07:12:00      -38.972      -16.778       -2.293       23.837       10.171       10.180      568.194      103.448      103.637        0.129        0.039       42.430        7.120        0.028      340.210       14.071      861.682
09/14/2014  07:13:00      -10.034      -18.709       -0.745       14.374        7.838        9.911      206.616       61.442       98.223        0.041        0.018       21.230        7.846        0.137      340.353       14.315      861.697
09/14/2014  07:14:00      -29.171      -16.250       -4.596       19.235        9.665        7.942      369.986       93.418       63.078        0.083        0.026       33.392        9.210        0.076      340.389       14.378      861.707
09/14/2014  07:15:00      -55.089      -11.752      -11.129        8.011        7.138        6.634       64.176       50.945       44.004        0.173        0.008       56.328        3.461        0.004      340.301       14.227      861.710
09/14/2014  07:16:00      -56.191       12.091       -8.711       10.416       12.913        8.022      108.491      166.756       64.353        0.186        0.017       57.477        1.571        0.001      340.168       14.000      861.699
09/14/2014  07:17:00      -59.650       -1.281       -8.181       20.460       12.912       11.764      418.626      166.727      138.381        0.218        0.036       59.664       10.746        0.032      340.165       13.997      861.702
09/14/2014  07:18:00      -67.832      -16.254       -9.169       18.158       11.450       10.242      329.709      131.094      104.892        0.276        0.028       69.752        9.525        0.019      340.195       14.047      861.715
09/14/2014  07:19:00      -62.995      -35.273       -8.538       16.502       14.627       11.503      272.319      213.936      132.309        0.295        0.031       72.198        8.819        0.015      340.260       14.157      861.731
09/14/2014  07:20:00      -94.004      -36.144       -5.877       12.714       16.234        9.772      161.657      263.533       95.482        0.535        0.026      100.713        6.722        0.004      340.204       14.063      861.751
09/14/2014  07:21:00      -99.970      -11.473      -10.170       18.239       10.998       11.488      332.662      120.952      131.973        0.541        0.029      100.626        9.390        0.009      340.212       14.076      861.766
09/14/2014  07:22:00      -67.229        2.093       -5.790       13.883        8.831        7.486      192.724       77.985       56.043        0.244        0.016       67.261        6.285        0.009      340.260       14.158      861.777
09/14/2014  07:23:00      -20.611       -8.174        3.977       12.385        7.599        8.808      153.388       57.741       77.576        0.040        0.014       22.172        6.558        0.087      340.565       14.676      861.773
09/14/2014  07:24:00      -25.532      -10.375       -4.765        8.263        8.697        7.330       68.280       75.629       53.736        0.049        0.010       27.559        4.742        0.030      340.398       14.394      861.779
09/14/2014  07:25:00      -43.800      -19.174       -5.713       11.563       10.283        7.069      133.699      105.737       49.971        0.130        0.014       47.813        4.255        0.008      340.354       14.318      861.799
09/14/2014  07:26:00      -34.814      -26.068        5.758       26.595       11.459       12.155      707.284      131.304      147.755        0.146        0.049       43.492       14.967        0.118      340.337       14.287      861.815
09/14/2014  07:27:00      -45.864      -32.467        3.824       23.113       15.894       12.905      534.224      252.619      166.536        0.206        0.048       56.193       10.807        0.037      340.313       14.248      861.847
09/14/2014  07:28:00      -27.401      -44.977        3.640       30.476       20.009       15.094      928.795      400.355      227.819        0.217        0.078       52.666        6.232        0.014      340.412       14.416      861.877
09/14/2014  07:29:00      -20.867      -37.192       14.725       20.704       24.245       19.739      428.653      587.838      389.618        0.172        0.070       42.647        9.266        0.047      340.483       14.535      861.880
09/14/2014  07:30:00      -40.220      -33.931       10.941       18.148       17.424       13.468      329.346      303.579      181.390        0.185        0.041       52.621        4.905        0.009      340.527       14.608      861.877
09/14/2014  07:31:00      -25.735      -22.812        1.413       18.429       20.901       16.103      339.623      436.840      259.299        0.111        0.052       34.390       12.597        0.134      340.539       14.631      861.889
09/14/2014  07:32:00      -59.682      -39.997      -10.707       18.205       13.198       13.082      331.437      174.193      171.131        0.298        0.034       71.845        9.742        0.018      340.538       14.627      861.906
09/14/2014  07:33:00      -44.554      -27.478        1.760       18.065       18.677       17.524      326.327      348.828      307.087        0.186        0.049       52.346       11.374        0.047      340.570       14.682      861.932
09/14/2014  07:34:00      -47.240      -32.341       -2.290       35.019       37.680       19.443     1226.312     1419.765      378.017        0.315        0.151       57.250       21.963        0.147      340.486       14.537      861.947
09/14/2014  07:35:00      -59.061      -38.393        1.628       29.168       16.638       13.447      850.743      276.811      180.814        0.314        0.065       70.443        5.216        0.005      340.414       14.418      861.943
09/14/2014  07:36:00      -15.891      -21.345        3.920       32.267       22.416       17.610     1041.188      502.482      310.126        0.129        0.093       26.611        9.499        0.127      340.439       14.462      861.927
09/14/2014  07:37:00      -36.668      -27.912        3.164       27.109       18.206       12.530      734.905      331.467      156.989        0.168        0.061       46.082        8.017        0.030      340.536       14.624      861.918
09/14/2014  07:38:00      -29.427      -15.462        3.498       33.175       19.785       14.931     1100.578      391.448      222.941        0.142        0.086       33.242       11.731        0.125      340.603       14.738      861.906
09/14/2014  07:39:00      -73.662      -40.148       -9.631       39.342       27.029       14.377     1547.779      730.586      206.703        0.481        0.124       83.893       16.250        0.038      340.566       14.675      861.919
09/14/2014  07:40:00      -63.855      -52.947        4.013       31.678       17.988       13.310     1003.521      323.580      177.156        0.420        0.075       82.951        7.719        0.009      340.435       14.455      861.941
09/14/2014  07:41:00      -57.338      -37.243       -6.707       16.468       12.746       12.687      271.207      162.454      160.963        0.266        0.030       68.372       11.141        0.027      340.387       14.371      861.961
09/14/2014  07:42:00      -83.667      -27.571      -16.283       13.751       15.857       12.345      189.102      251.448      152.387        0.431        0.030       88.092        5.291        0.004      340.411       14.411      861.956
09/14/2014  07:43:00      -73.911      -37.568      -13.043       22.517       21.830       15.238      506.997      476.555      232.208        0.413        0.061       82.911        9.586        0.013      340.557       14.659      861.948
09/14/2014  07:44:00      -55.207      -15.894       -7.089       43.818       35.227       23.430     1920.015     1240.974      548.959        0.353        0.185       57.449       19.546        0.116      340.683       14.874      861.937
09/14/2014  07:45:00      -69.373      -14.484       -0.844       57.266       28.074       24.812     3279.406      788.163      615.633        0.485        0.234       70.869       32.703        0.213      340.657       14.828      861.947
09/14/2014  07:46:00     -129.631      -36.592       -3.487       21.231       21.533       12.809      450.766      463.682      164.069        0.962        0.054      134.697       11.427        0.007      340.447       14.474      861.967
09/14/2014  07:47:00     -102.967      -49.861        0.690       18.507       27.009       16.792      342.508      729.498      281.986        0.722        0.068      114.404        9.188        0.006      340.540       14.632      861.977
09/14/2014  07:48:00      -66.146      -36.781        4.569       48.070       28.348       22.613     2310.768      803.595      511.360        0.469        0.181       75.685       22.531        0.089      340.754       14.994      861.947
09/14/2014  07:49:00      -17.860       14.174       -0.130       23.983       25.748       16.597      575.181      662.968      275.454        0.102        0.076       22.801       11.147        0.239      340.968       15.355      861.926
09/14/2014  07:50:00      -13.104       44.702       -8.516       20.932       16.317       20.407      438.134      266.254      416.434        0.168        0.056       46.583       10.900        0.055      340.821       15.106      861.919
09/14/2014  07:51:00       -0.685       38.049       -0.553       16.396       18.880       14.427      268.845      356.469      208.128        0.114        0.042       38.056        8.443        0.049      340.937       15.304      861.921
09/14/2014  07:52:00        3.514        0.911        4.836       12.439       25.433       14.182      154.734      646.829      201.123        0.052        0.050        3.630       10.902        9.021      341.103       15.583      861.940
09/14/2014  07:53:00      -42.977      -42.310       -8.509       45.614       28.936       18.170     2080.625      837.320      330.144        0.348        0.162       60.309       21.092        0.122      340.804       15.077      861.964
09/14/2014  07:54:00      -68.962      -50.661       -0.169       33.654       22.906       16.865     1132.559      524.695      284.418        0.463        0.097       85.570       18.521        0.047      340.737       14.963      861.974
09/14/2014  07:55:00      -82.390      -12.317       -8.782       10.149        8.814        7.475      102.998       77.679       55.874        0.363        0.012       83.306        3.085        0.001      340.802       15.075      861.987
09/14/2014  07:56:00      -31.769      -18.445       -7.140       28.098       10.523        8.686      789.488      110.729       75.445        0.119        0.049       36.735       11.868        0.104      340.951       15.327      861.980
09/14/2014  07:57:00       -3.556       -2.452       -3.997       10.168       13.146        6.859      103.382      172.826       47.041        0.018        0.016        4.319        4.123        0.911      341.151       15.665      861.960
09/14/2014  07:58:00       -4.718        4.450        7.534       12.349       10.471       12.985      152.501      109.644      168.617        0.026        0.022        6.486        7.797        1.445      341.443       16.159      861.949
09/14/2014  07:59:00        4.288       16.511       12.240       20.734       20.680       15.875      429.909      427.646      252.022        0.078        0.055       17.059       11.135        0.426      341.556       16.350      861.950
09/14/2014  08:00:00        4.176        6.145        9.370        6.423       14.411       12.731       41.259      207.688      162.089        0.028        0.021        7.429        9.278        1.560      341.690       16.578      861.967
09/14/2014  08:01:00       -7.386       -6.234      -12.927       22.402       10.512       15.270      501.865      110.498      233.173        0.055        0.042        9.665        6.345        0.431      341.332       15.971      861.992
09/14/2014  08:02:00      -18.726      -12.154       -3.460       25.431       13.273       13.722      646.750      176.181      188.298        0.076        0.051       22.324       14.834        0.442      341.367       16.031      862.006
09/14/2014  08:03:00      -29.904       -4.535       -5.551       24.225        8.559        6.403      586.863       73.249       40.997        0.082        0.035       30.246        3.869        0.016      341.217       15.777      861.996
09/14/2014  08:04:00       -1.647      -19.352        2.668       13.203       18.610       13.666      174.317      346.322      186.756        0.055        0.035       19.422       10.481        0.291      341.327       15.963      861.976
09/14/2014  08:05:00      -14.340       18.469        6.785       11.567       17.900       11.303      133.795      320.416      127.757        0.059        0.029       23.382        8.639        0.136      341.525       16.298      861.954
09/14/2014  08:06:00       -9.244       42.839        3.500       16.167       28.210       15.791      261.384      795.805      249.354        0.162        0.065       43.825       14.479        0.109      341.629       16.474      861.949
09/14/2014  08:07:00       -3.339       40.926        0.705       11.993       31.586       18.949      143.831      997.677      359.051        0.159        0.075       41.062       19.935        0.236      341.697       16.589      861.948
09/14/2014  08:08:00        0.669       -0.580       26.554       11.973        7.223        6.966      143.362       52.170       48.518        0.047        0.012        0.885        5.664       40.942      342.117       17.303      861.963
09/14/2014  08:09:00        1.117        8.658        1.115       13.384       16.338       14.174      179.139      266.941      200.892        0.036        0.032        8.729        7.370        0.713      341.653       16.514      861.966
09/14/2014  08:10:00      -16.450        6.478       11.985       13.511       10.657       14.347      182.554      113.568      205.830        0.048        0.025       17.679       12.404        0.492      341.913       16.958      861.960
09/14/2014  08:11:00       -8.005        8.827       27.403       21.772       11.260       10.934      474.003      126.777      119.561        0.081        0.036       11.916        9.940        0.696      342.012       17.125      861.940
09/14/2014  08:12:00       25.815       26.446       10.569       16.732       18.285       17.338      279.946      334.339      300.620        0.120        0.046       36.957        8.732        0.056      341.846       16.842      861.922
09/14/2014  08:13:00       71.188       38.150       17.308       16.845       18.644       18.123      283.763      347.595      328.432        0.389        0.048       80.767        6.184        0.006      341.589       16.405      861.904
09/14/2014  08:14:00       61.014       50.117       -8.369       26.113       23.394       16.071      681.911      547.264      258.266        0.390        0.074       78.958       12.346        0.024      341.620       16.459      861.880
09/14/2014  08:15:00        6.430       16.356       15.526       20.094       16.488       17.316      403.783      271.865      299.850        0.076        0.049       17.574       10.384        0.349      342.069       17.222      861.865
09/14/2014  08:16:00       -2.721       23.364       18.827       11.234       16.891       16.444      126.200      285.322      270.395        0.079        0.034       23.522       11.471        0.238      342.704       18.301      861.880
09/14/2014  08:17:00      -33.593        6.673       11.427       20.135        9.569       13.918      405.414       91.569      193.706        0.100        0.035       34.250       11.695        0.117      342.008       17.118      861.910
09/14/2014  08:18:00      -32.471      -15.911       -3.129       17.937       16.486       10.756      321.733      271.790      115.689        0.101        0.035       36.160        5.690        0.025      341.707       16.606      861.939
09/14/2014  08:19:00      -39.110      -28.313       -4.382       11.759       17.899       10.995      138.265      320.368      120.889        0.146        0.029       48.283        5.368        0.012      341.760       16.696      861.968
09/14/2014  08:20:00      -22.160      -14.339        6.445       12.560       22.005       16.674      157.754      484.206      278.034        0.083        0.046       26.395       14.537        0.303      342.139       17.340      861.991
09/14/2014  08:21:00       -8.401       17.471       25.729       16.977       28.709       21.100      288.234      824.216      445.225        0.130        0.078       19.386       19.278        0.989      342.634       18.181      862.001
09/14/2014  08:22:00        6.841       16.742       52.946       23.717       32.778       17.219      562.510     1074.380      296.483        0.253        0.097       18.085       14.030        0.602      342.653       18.214      862.000
09/14/2014  08:23:00       23.129       34.394       52.747       44.266       38.771       22.784     1959.447     1503.179      519.092        0.424        0.199       41.448       15.998        0.149      342.502       17.956      861.986
09/14/2014  08:24:00       41.688       64.594       59.491       37.230       35.177       25.654     1386.102     1237.438      658.147        0.637        0.164       76.878       10.072        0.017      342.246       17.522      861.967
09/14/2014  08:25:00       41.054       35.655       39.617       35.292       32.463       32.289     1245.494     1053.869     1042.590        0.393        0.167       54.375       20.706        0.145      342.367       17.727      861.959
09/14/2014  08:26:00       61.588       58.914       53.389       52.640       30.035       27.967     2771.013      902.088      782.146        0.728        0.223       85.228       22.179        0.068      342.353       17.703      861.956
09/14/2014  08:27:00       76.707       46.002       31.002       41.962       24.046       29.064     1760.808      578.208      844.734        0.607        0.159       89.444       26.824        0.090      342.176       17.403      861.958
09/14/2014  08:28:00        1.039       15.904       37.387       17.024       25.997       20.844      289.829      675.851      434.468        0.153        0.070       15.938       14.257        0.800      342.769       18.411      861.966
09/14/2014  08:29:00        3.756      -26.436       15.363       15.562       34.307       20.597      242.167     1176.976      424.227        0.140        0.092       26.701       22.427        0.705      342.579       18.086      861.987
09/14/2014  08:30:00        7.415       -5.625        6.323       21.223       23.679       19.638      450.422      560.686      385.634        0.076        0.070        9.307        8.641        0.862      342.577       18.084      862.002
09/14/2014  08:31:00       -2.720       -8.995       20.551       31.373       46.095       19.677      984.261     2124.721      387.194        0.200        0.175        9.397       20.275        4.655      342.518       17.984      862.027
09/14/2014  08:32:00       16.612       13.154       49.032       30.090       35.897       27.841      905.382     1288.577      775.128        0.291        0.148       21.189       12.808        0.365      342.652       18.212      862.051
09/14/2014  08:33:00        1.659       22.806       65.649       20.291       37.852       21.963      411.739     1432.782      482.358        0.358        0.116       22.866       23.108        1.021      342.900       18.633      862.052
09/14/2014  08:34:00        8.183       -2.018       51.856       26.796       37.178       29.372      718.002     1382.200      862.719        0.286        0.148        8.428       18.791        4.971      342.861       18.567      862.042
09/14/2014  08:35:00       66.450       70.443       30.295       40.854       24.583       29.003     1669.065      604.335      841.180        0.670        0.156       96.839       25.544        0.070      342.205       17.452      862.033
09/14/2014  08:36:00       60.671       30.057        1.673       35.824       32.017       27.988     1283.375     1025.119      783.304        0.384        0.155       67.708       16.164        0.057      342.469       17.900      862.029
09/14/2014  08:37:00       69.717       63.647       11.786       27.927       21.714       27.167      779.914      471.519      738.034        0.552        0.099       94.400       15.681        0.028      342.356       17.709      862.032
09/14/2014  08:38:00       37.536       22.684       -1.009       33.198       24.356       15.218     1102.096      593.235      231.581        0.193        0.096       43.858        7.610        0.030      342.366       17.725      862.036
09/14/2014  08:39:00       16.102       39.100        4.463       33.668       22.466       17.011     1133.507      504.721      289.386        0.187        0.096       42.286       11.972        0.080      342.484       17.926      862.041
09/14/2014  08:40:00       44.521       37.832        5.635       26.923       22.049       20.533      724.865      486.176      421.589        0.254        0.082       58.424       15.452        0.070      342.457       17.878      862.036
09/14/2014  08:41:00       80.273       67.661       11.291       24.982       16.321       19.420      624.089      266.389      377.130        0.621        0.063      104.984        9.214        0.008      342.270       17.560      862.043
09/14/2014  08:42:00       57.956       54.229       14.007       26.027       22.926       26.635      677.386      525.579      709.435        0.420        0.096       79.371       12.442        0.025      342.505       17.961      862.055
09/14/2014  08:43:00       41.497       46.109       14.687       32.990       19.261       26.111     1088.371      370.978      681.795        0.310        0.107       62.033       12.499        0.041      342.575       18.082      862.072
09/14/2014  08:44:00       22.495       31.479       53.456       34.510       31.877       27.859     1190.953     1016.125      776.116        0.367        0.149       38.690       23.016        0.354      342.818       18.494      862.098
09/14/2014  08:45:00       41.183       60.419       51.716       25.524       22.887       17.141      651.497      523.826      293.800        0.474        0.073       73.120       12.407        0.029      342.527       18.000      862.110
09/14/2014  08:46:00       45.276       31.635        9.130       26.766       18.379       19.424      716.393      337.801      377.293        0.228        0.072       55.233       16.939        0.094      342.486       17.928      862.109
09/14/2014  08:47:00       25.636       31.231       31.439       30.563       20.992       14.990      934.117      440.680      224.686        0.211        0.080       40.405        7.950        0.039      342.986       18.781      862.091
09/14/2014  08:48:00       56.461       49.300       23.934       31.948       32.749       23.749     1020.674     1072.512      564.031        0.442        0.133       74.956       14.026        0.035      342.872       18.586      862.067
09/14/2014  08:49:00       81.989       41.951        8.842       28.614       21.506       21.423      818.734      462.515      458.958        0.515        0.087       92.098       12.363        0.018      342.602       18.124      862.046
09/14/2014  08:50:00       11.750       33.106      -13.682       34.137       18.735       15.966     1165.334      351.001      254.925        0.160        0.089       35.129        9.004        0.066      342.512       17.973      862.043
09/14/2014  08:51:00      -23.301       -1.050       14.282       13.327       14.644       15.346      177.606      214.456      235.504        0.069        0.031       23.324       12.522        0.288      343.031       18.857      862.042
09/14/2014  08:52:00      -17.872        2.802       -2.474       16.979       25.713       10.357      288.273      661.171      107.270        0.069        0.053       18.090        8.877        0.241      342.893       18.622      862.037
09/14/2014  08:53:00      -52.540      -31.914       -6.314       27.472       39.452       15.222      754.715     1556.490      231.710        0.318        0.127       61.473       10.628        0.030      342.596       18.116      862.036
09/14/2014  08:54:00      -25.301      -50.278       -6.267       21.621       19.775       12.153      467.455      391.067      147.687        0.211        0.050       56.285        9.719        0.030      342.551       18.041      862.039
09/14/2014  08:55:00      -35.852      -44.808        1.760       21.828       21.783        9.985      476.483      474.495       99.702        0.217        0.053       57.386       13.203        0.053      342.594       18.112      862.042
09/14/2014  08:56:00      -18.288       -7.131       22.651       19.361       27.362       20.390      374.841      748.653      415.767        0.122        0.077       19.629       17.521        0.797      343.236       19.206      862.053
09/14/2014  08:57:00       15.413      -57.264       16.089       27.739       47.793       28.199      769.466     2284.182      795.180        0.381        0.192       59.302       23.112        0.152      343.260       19.246      862.067
09/14/2014  08:58:00       -7.483      -32.398       28.733       18.027       46.501       26.608      324.985     2162.383      707.976        0.256        0.160       33.251       27.932        0.706      343.536       19.719      862.082
09/14/2014  08:59:00       13.915      -33.623       20.981       36.159       44.381       27.468     1307.447     1969.633      754.465        0.290        0.202       36.388       20.031        0.303      343.439       19.552      862.087
09/14/2014  09:00:00       -4.373      -28.762       14.283       23.221       33.591       25.703      539.233     1128.354      660.654        0.169        0.116       29.093       17.848        0.376      343.425       19.529      862.104
09/14/2014  09:01:00       -7.293        9.349       43.353        8.046       17.015       10.013       64.742      289.511      100.263        0.124        0.023       11.858        6.078        0.263      343.807       20.180      862.113
09/14/2014  09:02:00      -16.517        5.677       26.619       19.991       22.854       15.005      399.650      522.299      225.137        0.108        0.057       17.465       13.058        0.559      343.702       20.001      862.106
09/14/2014  09:03:00      -25.226        7.447       12.156       34.351       15.224       19.494     1179.963      231.773      380.024        0.132        0.090       26.302       21.635        0.677      343.659       19.928      862.094
09/14/2014  09:04:00       26.511       26.148        2.674       18.731       18.924       14.739      350.851      358.134      217.244        0.116        0.046       37.236       10.910        0.086      343.370       19.434      862.075
09/14/2014  09:05:00       -6.162       23.101       21.775       21.296       22.778       24.227      453.539      518.817      586.938        0.130        0.078       23.908        8.165        0.117      343.818       20.198      862.069
09/14/2014  09:06:00       -6.967       -6.540        9.606       21.123       29.944       20.539      446.170      896.651      421.853        0.097        0.088        9.555       11.801        1.525      343.944       20.413      862.066
09/14/2014  09:07:00       20.800      -21.510       47.293       29.042       53.164       27.870      843.438     2826.432      776.755        0.379        0.222       29.922       30.229        1.021      343.973       20.463      862.074
09/14/2014  09:08:00        6.058       -7.484       57.713       40.856       71.043       36.414     1669.201     5047.163     1325.993        0.573        0.402        9.628       32.904       11.678      343.810       20.183      862.081
09/14/2014  09:09:00       13.912       -7.694       41.776       23.453       37.431       23.376      550.055     1401.105      546.441        0.225        0.125       15.898       20.595        1.678      344.036       20.570      862.085
09/14/2014  09:10:00        6.191       27.601       36.323       17.117       28.988       22.065      293.007      840.313      486.858        0.187        0.081       28.287       10.100        0.127      343.945       20.413      862.087
09/14/2014  09:11:00       -4.119        4.208       28.950       27.604       38.048       19.382      761.964     1447.670      375.645        0.173        0.129        5.889        9.515        2.610      343.937       20.402      862.084
09/14/2014  09:12:00      -15.935      -44.169       20.280       40.664       46.677       23.688     1653.590     2178.735      561.138        0.350        0.220       46.955       22.490        0.229      343.473       19.611      862.073
09/14/2014  09:13:00       -8.115        2.225       22.891       24.950       24.502       25.363      622.485      600.363      643.306        0.123        0.093        8.414       17.571        4.361      344.292       21.009      862.071
09/14/2014  09:14:00       35.534     -115.472        7.621       60.591       54.402       34.010     3671.294     2959.608     1156.711        1.122        0.389      120.816       21.321        0.031      343.576       19.785      862.066
09/14/2014  09:15:00       45.751       44.344       71.492       49.247       80.647       52.006     2425.299     6503.975     2704.644        1.040        0.582       63.714       53.752        0.712      343.703       20.002      862.073
09/14/2014  09:16:00       53.909       26.789       53.927       37.786       26.617       27.603     1427.752      708.457      761.903        0.471        0.145       60.198       19.497        0.105      343.567       19.771      862.085
09/14/2014  09:17:00       41.397      -28.718       40.621       46.592       80.107       36.370     2170.787     6417.155     1322.787        0.705        0.496       50.383       44.944        0.796      343.734       20.054      862.089
09/14/2014  09:18:00       13.762       15.418       42.723       34.096       53.821       48.483     1162.507     2896.715     2350.617        0.433        0.320       20.666       46.552        5.074      344.045       20.586      862.100
09/14/2014  09:19:00        7.906       53.795       81.492       34.157       49.164       31.756     1166.672     2417.085     1008.468        0.709        0.230       54.373       34.446        0.401      343.935       20.397      862.104
09/14/2014  09:20:00       13.200       38.843       68.142       26.341       48.054       35.418      693.824     2309.157     1254.451        0.529        0.213       41.024       33.528        0.668      344.093       20.667      862.095
09/14/2014  09:21:00       34.442       58.798       32.734       16.205       20.263       28.909      262.600      410.596      835.721        0.361        0.075       68.143       19.270        0.080      343.332       19.372      862.091
09/14/2014  09:22:00       13.385       32.217        3.327       10.195       13.866       12.780      103.930      192.279      163.316        0.084        0.023       34.887        8.774        0.063      343.452       19.573      862.074
09/14/2014  09:23:00       16.086       42.729        9.783       29.097       22.792       19.386      846.607      519.473      375.814        0.196        0.087       45.656        9.533        0.044      343.840       20.237      862.057
09/14/2014  09:24:00       81.814       58.276       17.157       29.150       33.888       31.847      849.733     1148.429     1014.203        0.670        0.151      100.447       13.468        0.018      343.576       19.785      862.036
09/14/2014  09:25:00       61.146       79.777      -12.077       29.699       14.232       31.979      882.010      202.536     1022.646        0.618        0.105      100.515       22.353        0.049      343.423       19.525      862.036
09/14/2014  09:26:00       68.552       44.802       17.967       30.016       43.991       25.908      900.941     1935.252      671.201        0.527        0.175       81.893       11.460        0.020      343.838       20.232      862.040
09/14/2014  09:27:00        4.279      -58.341        5.559       26.612       28.528       17.279      708.206      813.854      298.577        0.264        0.091       58.498       11.837        0.041      343.810       20.184      862.051
09/14/2014  09:28:00      -19.098      -55.583       -6.136       22.856       28.754       22.814      522.396      826.806      520.466        0.268        0.093       58.773       21.191        0.130      343.842       20.237      862.070
09/14/2014  09:29:00       -4.055       21.943       54.760       17.914       27.309       22.572      320.898      745.807      509.497        0.254        0.079       22.315       16.178        0.526      344.637       21.598      862.075
09/14/2014  09:30:00      -19.830       11.997       55.649       22.420       28.135       15.576      502.673      791.585      242.612        0.259        0.077       23.176       12.860        0.308      344.754       21.798      862.066
09/14/2014  09:31:00       -1.556       52.667       68.935       29.597       25.092       20.694      875.964      629.597      428.242        0.473        0.097       52.690       15.312        0.084      344.251       20.939      862.045
09/14/2014  09:32:00       37.191       23.470       56.687       26.106       28.132       26.113      681.499      791.417      681.880        0.365        0.108       43.978       21.144        0.231      344.103       20.685      862.005
09/14/2014  09:33:00       -0.694      -18.978       47.964       20.148       40.663       21.314      405.959     1653.447      454.291        0.259        0.126       18.991        6.037        0.101      344.529       21.412      861.997
09/14/2014  09:34:00        5.125      -62.387       -4.850       27.972       47.986       32.455      782.410     2302.696     1053.341        0.404        0.207       62.597       32.433        0.268      344.287       20.998      862.017
09/14/2014  09:35:00      -56.192      -24.711       -5.571       24.915       24.050       21.485      620.749      578.388      461.625        0.273        0.083       61.386       11.090        0.033      343.928       20.387      862.041
09/14/2014  09:36:00      -72.548      -71.704       -0.999       47.991       35.493       29.943     2303.110     1259.768      896.565        0.743        0.223      102.003        5.490        0.003      343.928       20.384      862.077
09/14/2014  09:37:00      -35.182      -11.276        6.441       54.365       38.657       35.152     2955.572     1494.399     1235.692        0.355        0.284       36.944       24.539        0.441      344.311       21.040      862.087
09/14/2014  09:38:00      -48.516      -41.040       -6.984       46.063       43.036       26.811     2121.804     1852.104      718.805        0.439        0.235       63.545       25.150        0.157      344.209       20.867      862.076
09/14/2014  09:39:00      -52.103      -55.161        3.480       55.164       40.615       24.055     3043.072     1649.594      578.641        0.552        0.264       75.878       17.087        0.051      344.143       20.753      862.063
09/14/2014  09:40:00      -94.620      -61.682       -2.045       41.208       33.732       20.293     1698.099     1137.834      411.821        0.800        0.162      112.950       21.178        0.035      344.067       20.623      862.058
09/14/2014  09:41:00      -59.323      -37.568        5.823       38.073       43.325       25.781     1449.581     1877.043      664.640        0.448        0.200       70.218       21.054        0.090      344.188       20.829      862.043
09/14/2014  09:42:00      -99.725      -37.688        0.245       39.961       43.264       28.800     1596.894     1871.797      829.431        0.783        0.215      106.609       23.130        0.047      344.205       20.860      862.025
09/14/2014  09:43:00      -49.316       10.926       12.002       37.616       31.243       27.249     1414.953      976.117      742.493        0.291        0.157       50.512       21.758        0.186      344.594       21.525      862.026
09/14/2014  09:44:00      -44.975       -0.802       -0.784       25.159       22.614       22.700      632.967      511.373      515.299        0.184        0.083       44.982       21.415        0.227      344.414       21.218      862.015
09/14/2014  09:45:00      -43.949        3.229       14.079       23.818       25.041       22.898      567.301      627.032      524.303        0.193        0.086       44.067       20.234        0.211      344.759       21.807      862.016
09/14/2014  09:46:00      -14.668       -1.638       -1.252       20.150       29.178       20.473      406.039      851.350      419.125        0.095        0.084       14.759       14.181        0.923      344.822       21.915      862.020
09/14/2014  09:47:00      -25.146      -21.380        3.290       31.409       23.234       23.026      986.542      539.826      530.200        0.158        0.103       33.007       16.976        0.265      344.881       22.015      862.017
09/14/2014  09:48:00      -45.522      -67.111       -9.805       33.615       23.337       19.207     1129.960      544.618      368.900        0.436        0.102       81.093       13.845        0.029      344.445       21.268      862.026
09/14/2014  09:49:00      -38.968      -14.601       10.145       39.325       35.977       23.936     1546.475     1294.315      572.955        0.262        0.171       41.613       29.005        0.486      344.830       21.929      862.036
09/14/2014  09:50:00      -47.243      -19.567       -0.355       34.266       24.730       21.115     1174.187      611.557      445.841        0.242        0.112       51.135       12.010        0.055      344.701       21.705      862.035
09/14/2014  09:51:00      -22.430      -48.736        9.946       31.240       47.762       22.517      975.921     2281.234      507.033        0.337        0.188       53.650       20.505        0.146      344.891       22.031      862.051
09/14/2014  09:52:00      -33.187      -42.572       -9.631       38.385       26.138       24.907     1473.388      683.174      620.383        0.289        0.139       53.979       15.936        0.087      344.669       21.652      862.044
09/14/2014  09:53:00      -33.816        0.014       -5.318       46.403       36.862       32.743     2153.221     1358.780     1072.089        0.288        0.229       33.816       35.163        1.081      344.730       21.755      862.019
09/14/2014  09:54:00      -35.888       12.140       26.351       43.194       39.334       36.173     1865.699     1547.167     1308.457        0.342        0.236       37.885       26.717        0.497      344.948       22.129      862.000
09/14/2014  09:55:00       -6.079       26.893        7.622       36.570       21.863       49.001     1337.368      477.984     2401.054        0.252        0.211       27.572       31.663        1.319      345.215       22.586      861.983
09/14/2014  09:56:00       59.778       59.077       66.394       38.071       28.330       25.445     1449.375      802.610      647.433        0.719        0.145       84.045       16.585        0.039      344.736       21.767      861.953
09/14/2014  09:57:00        6.432       -3.903       27.840       29.781       65.665       31.385      886.904     4311.924      985.037        0.351        0.309        7.523       13.914        3.420      344.969       22.166      861.951
09/14/2014  09:58:00       41.104      -50.244        9.855       44.161       54.618       46.842     1950.158     2983.121     2194.190        0.572        0.356       64.915       39.178        0.364      345.140       22.459      861.958
09/14/2014  09:59:00      -13.907        3.825       44.535       19.951       30.041       19.878      398.030      902.441      395.120        0.194        0.085       14.423       17.080        1.402      345.596       23.242      861.953
09/14/2014  10:00:00      -23.218        9.093       31.025       24.483       21.560       27.391      599.432      464.850      750.284        0.170        0.091       24.935       24.145        0.938      345.358       22.832      861.955
09/14/2014  10:01:00      -30.879      -11.745        9.665       28.874       27.711       17.407      833.712      767.883      303.005        0.154        0.095       33.037       17.367        0.276      345.279       22.696      861.954
09/14/2014  10:02:00      -12.997        3.432       33.389       20.988       23.326       29.819      440.480      544.105      889.183        0.158        0.094       13.443       20.593        2.347      345.795       23.582      861.955
09/14/2014  10:03:00        0.979       49.262       74.721       34.515       42.783       23.413     1191.316     1830.346      548.178        0.579        0.178       49.272       25.420        0.266      345.815       23.617      861.970
09/14/2014  10:04:00       59.526       58.590       57.321       18.728       20.769       18.201      350.743      431.353      331.269        0.569        0.056       83.523       15.495        0.034      344.869       21.993      861.971
09/14/2014  10:05:00       18.995      -45.235        9.777       36.696       37.425       30.259     1346.563     1400.612      915.587        0.308        0.183       49.061       22.859        0.217      345.354       22.825      861.979
09/14/2014  10:06:00      -35.577      -24.412       13.965       25.788       28.599       24.227      665.036      817.925      586.958        0.206        0.103       43.147       16.827        0.152      345.334       22.791      861.982
09/14/2014  10:07:00        2.677      -12.125       37.947       29.591       55.294       34.883      875.639     3057.418     1216.838        0.337        0.257       12.417       32.680        6.927      345.718       23.449      861.990
09/14/2014  10:08:00        6.993        3.841       31.879       27.096       34.211       24.840      734.189     1170.416      617.034        0.180        0.126        7.979       20.170        6.391      346.003       23.938      862.002
09/14/2014  10:09:00        2.705       10.373       30.898       28.325       40.912       20.845      802.285     1673.829      434.497        0.199        0.146       10.720       24.054        5.035      345.834       23.648      861.985
09/14/2014  10:10:00      -51.801        6.360       19.563       38.013       32.085       23.367     1444.979     1029.462      546.034        0.306        0.151       52.190       29.139        0.312      345.454       22.998      861.960
09/14/2014  10:11:00      -27.519       13.744       10.900       37.620       18.699       24.504     1415.282      349.663      600.449        0.171        0.118       30.760       26.938        0.767      345.800       23.590      861.937
09/14/2014  10:12:00      -29.637       10.237       17.455       24.019       27.248       16.777      576.923      742.460      281.473        0.144        0.080       31.355       13.347        0.181      345.882       23.732      861.910
09/14/2014  10:13:00       -3.351       65.670        3.599       22.417       44.669       26.306      502.524     1995.299      691.981        0.376        0.159       65.756       26.784        0.166      345.746       23.498      861.902
09/14/2014  10:14:00      -15.155       29.985       32.590       22.248       26.057       26.240      494.985      678.982      688.526        0.203        0.093       33.598       12.298        0.134      346.345       24.526      861.899
09/14/2014  10:15:00       18.125       30.027       28.609       39.227       24.488       20.509     1538.741      599.652      420.622        0.230        0.128       35.073       19.265        0.302      345.899       23.761      861.890
09/14/2014  10:16:00      107.364       60.279       14.931       57.878       52.760       40.983     3349.839     2783.647     1679.644        1.160        0.391      123.128       31.395        0.065      345.471       23.026      861.885
09/14/2014  10:17:00      117.529       67.638       13.069       35.529       31.836       35.276     1262.330     1013.553     1244.403        1.104        0.176      135.602       13.862        0.010      345.324       22.774      861.851
09/14/2014  10:18:00       99.367       74.768        9.033       59.833       44.248       40.233     3580.041     1957.848     1618.675        1.135        0.358      124.354       20.675        0.028      345.555       23.169      861.829
09/14/2014  10:19:00       62.409       72.505        4.585       52.785       51.684       36.409     2786.298     2671.266     1325.621        0.798        0.339       95.665       27.026        0.080      345.832       23.645      861.805
09/14/2014  10:20:00      101.867       82.336        4.675       34.697       38.026       33.099     1203.891     1446.006     1095.546        1.046        0.187      130.982       16.669        0.016      345.288       22.713      861.794
09/14/2014  10:21:00      115.745       60.632        5.049       51.204       50.212       35.251     2621.866     2521.209     1242.660        1.174        0.319      130.665       19.521        0.022      345.162       22.496      861.808
09/14/2014  10:22:00       -5.207       26.143       16.638       19.418       30.125       22.018      377.066      907.532      484.780        0.138        0.088       26.656       15.650        0.345      346.167       24.220      861.802
09/14/2014  10:23:00      -30.009       51.585        1.391       30.847       29.932       30.163      951.561      895.947      909.797        0.316        0.138       59.679       23.934        0.161      345.692       23.404      861.776
09/14/2014  10:24:00      -22.807       23.248       14.459       18.441       19.142       20.832      340.057      366.423      433.965        0.120        0.057       32.567        5.907        0.033      346.063       24.041      861.761
09/14/2014  10:25:00      -14.303       49.518       14.691       19.177       46.742       23.599      367.770     2184.820      556.906        0.299        0.155       51.542       23.277        0.204      346.365       24.561      861.764
09/14/2014  10:26:00        5.432       14.708       29.128       21.073       17.687       20.634      444.087      312.847      425.751        0.114        0.059       15.679        7.344        0.219      346.598       24.962      861.781
09/14/2014  10:27:00        3.779        6.376       28.310       32.161       29.569       19.872     1034.356      874.353      394.896        0.158        0.115        7.412       22.727        9.401      346.338       24.516      861.790
09/14/2014  10:28:00       27.429       26.289       10.187       29.363       27.780       24.931      862.195      771.732      621.570        0.190        0.113       37.993       21.254        0.313      346.311       24.469      861.767
09/14/2014  10:29:00       26.917       53.049        8.840       31.375       26.739       23.556      984.403      714.960      554.883        0.294        0.113       59.487       19.960        0.113      346.215       24.302      861.751
09/14/2014  10:30:00       70.517       61.987       19.930       33.674       29.386       39.037     1133.931      863.554     1523.869        0.637        0.176       93.888       29.060        0.096      345.970       23.881      861.732
09/14/2014  10:31:00       10.972       46.959       -0.251       32.727       43.779       29.179     1071.065     1916.574      851.438        0.308        0.192       48.224       24.344        0.255      346.375       24.578      861.724
09/14/2014  10:32:00      -16.109       -8.463       -0.590       31.243       54.153       32.097      976.097     2932.540     1030.208        0.263        0.247       18.197       17.362        0.910      346.486       24.769      861.708
09/14/2014  10:33:00       50.226     -102.373      -15.220       32.905       46.932       28.921     1082.768     2202.651      836.421        0.868        0.206      114.030       22.213        0.038      345.891       23.745      861.689
09/14/2014  10:34:00       17.938      -46.184       18.008       26.957       54.645       45.199      726.676     2986.028     2042.939        0.427        0.288       49.545       44.264        0.798      346.261       24.381      861.672
09/14/2014  10:35:00       57.318       58.746       56.136       46.209       31.488       36.630     2135.259      991.518     1341.738        0.718        0.223       82.076       31.390        0.146      346.002       23.937      861.659
09/14/2014  10:36:00      100.761       54.166       43.599       35.109       32.976       42.985     1232.612     1087.390     1847.739        0.958        0.208      114.397       19.268        0.028      345.784       23.562      861.648
09/14/2014  10:37:00       63.848       23.753       14.642       31.037       33.782       28.124      963.313     1141.241      790.950        0.387        0.145       68.123       21.856        0.103      345.898       23.757      861.646
09/14/2014  10:38:00        7.583       22.351       36.709       26.868       37.505       39.845      721.911     1406.607     1587.661        0.281        0.186       23.603       33.057        1.962      346.333       24.506      861.644
09/14/2014  10:39:00       -3.031       -3.915       60.250       21.585       39.696       31.401      465.899     1575.744      986.050        0.334        0.151        4.951       29.440       35.359      346.604       24.971      861.643
09/14/2014  10:40:00      -14.302        4.102       25.913       29.558       31.174       21.558      873.659      971.815      464.769        0.160        0.116       14.879       18.372        1.525      346.759       25.237      861.641
09/14/2014  10:41:00      -53.321       39.892       29.420       31.346       25.501       23.357      982.541      650.303      545.559        0.374        0.109       66.592       15.932        0.057      346.215       24.302      861.638
09/14/2014  10:42:00      -33.437       12.926        8.073       19.540       14.140       16.248      381.830      199.954      263.991        0.110        0.042       35.848       11.430        0.102      346.271       24.401      861.621
09/14/2014  10:43:00       -5.389       12.367       17.118       25.318       19.065       21.354      640.981      363.463      455.989        0.097        0.073       13.490       19.145        2.014      346.933       25.538      861.603
09/14/2014  10:44:00       28.554       18.961       11.985       37.718       29.388       23.300     1422.657      863.652      542.897        0.207        0.141       34.276       22.294        0.423      346.971       25.602      861.594
09/14/2014  10:45:00        9.335      -40.308       -2.633       38.160       60.525       24.639     1456.180     3663.271      607.072        0.372        0.286       41.375       26.736        0.418      346.741       25.205      861.574
09/14/2014  10:46:00        5.986      -50.845       15.598       35.885       65.794       34.434     1287.747     4328.874     1185.697        0.483        0.340       51.196       31.308        0.374      346.639       25.032      861.565
09/14/2014  10:47:00       10.879       11.728       51.916       25.172       38.018       25.061      633.623     1445.394      628.053        0.283        0.135       15.997       13.691        0.732      347.071       25.775      861.548
09/14/2014  10:48:00      -22.123      -89.873      -14.916       21.833       40.612       14.942      476.674     1649.367      223.273        0.557        0.117       92.556        8.511        0.008      346.017       23.962      861.534
09/14/2014  10:49:00      -29.191      -21.277       18.494       30.208       30.776       30.881      912.538      947.149      953.640        0.223        0.141       36.122       24.282        0.452      346.507       24.805      861.511
09/14/2014  10:50:00       -6.552       64.897       95.475       22.329       43.710       27.298      498.601     1910.579      745.179        0.826        0.158       65.227       25.871        0.157      346.716       25.162      861.500
09/14/2014  10:51:00      103.377       47.081        8.867       47.740       43.311       43.261     2279.115     1875.826     1871.548        0.950        0.301      113.593       21.241        0.035      346.244       24.352      861.500
09/14/2014  10:52:00      108.363       73.334       14.737       41.183       45.828       39.949     1696.072     2100.220     1595.949        1.136        0.270      130.845       11.539        0.008      346.464       24.730      861.479
09/14/2014  10:53:00       39.106       49.144       46.473       38.601       34.387       28.658     1490.052     1182.488      821.296        0.480        0.175       62.805       15.776        0.063      346.898       25.477      861.483
09/14/2014  10:54:00       50.382       42.003       12.453       31.512       23.738       30.982      993.036      563.502      959.887        0.349        0.126       65.594        8.859        0.018      346.689       25.116      861.461
09/14/2014  10:55:00      160.645       90.616       44.494       65.683       46.067       42.758     4314.200     2122.200     1828.213        2.213        0.413      184.440       26.420        0.021      346.312       24.466      861.451
09/14/2014  10:56:00       77.645       83.945       41.970       46.160       33.067       35.031     2130.782     1093.450     1227.159        0.964        0.223      114.348       28.730        0.063      346.503       24.796      861.452
09/14/2014  10:57:00      108.196       84.267        0.039       41.090       34.369       37.731     1688.420     1181.203     1423.649        1.155        0.215      137.140       21.834        0.025      346.340       24.517      861.435
09/14/2014  10:58:00       56.590       52.712       24.694       46.178       34.804       35.759     2132.420     1211.332     1278.740        0.561        0.231       77.336       20.367        0.069      346.787       25.286      861.414
09/14/2014  10:59:00      126.453       95.891        5.908       59.254       48.587       34.780     3511.048     2360.689     1209.670        1.615        0.354      158.699       23.819        0.023      346.447       24.699      861.382
09/14/2014  11:00:00       21.249       57.684        4.409       39.659       36.218       30.019     1572.853     1311.744      901.111        0.379        0.189       61.473       20.637        0.113      346.849       25.393      861.360
09/14/2014  11:01:00       23.573       45.458        6.701       30.577       31.230       27.577      934.925      975.316      760.511        0.267        0.134       51.207       23.836        0.217      347.046       25.733      861.349
09/14/2014  11:02:00       80.861       58.984       20.717       42.341       33.831       33.584     1792.794     1144.542     1127.905        0.726        0.203      100.088       23.174        0.054      346.492       24.779      861.361
09/14/2014  11:03:00       14.281        9.388       -1.567       55.938       41.567       31.266     3129.110     1727.851      977.563        0.306        0.292       17.091       21.216        1.541      346.941       25.551      861.372
09/14/2014  11:04:00        7.099       19.225       36.260       46.718       40.806       36.604     2182.533     1665.166     1339.820        0.346        0.259       20.494       36.625        3.194      347.842       27.107      861.369
09/14/2014  11:05:00      100.619      117.474        9.509       61.730       31.993       51.155     3810.555     1023.560     2616.793        1.573        0.373      154.675       29.783        0.037      346.570       24.912      861.376
09/14/2014  11:06:00       16.582       29.119       33.216       35.797       39.922       31.478     1281.427     1593.767      990.885        0.305        0.193       33.510       26.058        0.605      347.469       26.462      861.379
09/14/2014  11:07:00       37.230       19.608        6.883       27.225       25.109       27.490      741.202      630.455      755.707        0.197        0.106       42.078       12.235        0.085      347.061       25.757      861.382
09/14/2014  11:08:00       14.295        0.663       35.555       30.676       32.027       22.048      941.023     1025.738      486.119        0.196        0.123       14.311       17.727        1.534      347.626       26.732      861.392
09/14/2014  11:09:00      -23.991      -49.174       16.432       35.014       46.341       30.092     1225.999     2147.509      905.549        0.377        0.214       54.714       14.016        0.066      347.282       26.138      861.410
09/14/2014  11:10:00       52.352      -55.362       17.193       66.503       60.482       50.642     4422.691     3658.074     2564.588        0.837        0.532       76.195       47.189        0.384      347.210       26.015      861.402
09/14/2014  11:11:00        1.163      -20.651       39.744       44.219       52.853       29.199     1955.278     2793.492      852.581        0.380        0.280       20.684       32.010        2.395      347.607       26.698      861.401
09/14/2014  11:12:00       52.101      -54.911       16.345       38.163       54.265       43.784     1456.404     2944.659     1917.042        0.616        0.316       75.695       35.070        0.215      347.235       26.058      861.372
09/14/2014  11:13:00       29.751       25.493       63.881       47.612       56.198       36.135     2266.921     3158.189     1305.724        0.617        0.337       39.179       37.206        0.902      347.330       26.221      861.352
09/14/2014  11:14:00       28.945      -40.079        9.982       36.305       55.276       41.805     1318.027     3055.466     1747.655        0.433        0.306       49.438       22.092        0.200      347.275       26.128      861.343
09/14/2014  11:15:00       10.981       15.740       39.698       28.848       43.777       29.345      832.200     1916.411      861.124        0.278        0.180       19.192       23.099        1.449      347.508       26.529      861.342
09/14/2014  11:16:00       -4.434       13.822       39.802       18.080       28.352       16.106      326.890      803.854      259.393        0.159        0.070       14.516       12.459        0.737      347.893       27.193      861.340
09/14/2014  11:17:00       14.066       11.630       28.815       17.669       16.496       21.436      312.192      272.131      459.514        0.110        0.052       18.252        4.850        0.071      347.690       26.842      861.330
09/14/2014  11:18:00       48.723       52.254       29.232       57.062       34.136       38.668     3256.075     1165.281     1495.189        0.594        0.296       71.445       14.525        0.041      347.445       26.420      861.330
09/14/2014  11:19:00       41.859       69.357       -4.853       57.643       49.063       25.690     3322.719     2407.158      659.963        0.649        0.319       81.009       22.296        0.076      347.138       25.891      861.333
09/14/2014  11:20:00        0.509       74.359        7.247       31.346       45.784       27.363      982.543     2096.187      748.727        0.470        0.191       74.360       21.379        0.083      347.457       26.440      861.338
09/14/2014  11:21:00       27.499       24.478       30.574       25.636       24.577       21.726      657.211      604.038      472.025        0.201        0.087       36.815       15.180        0.170      347.788       27.012      861.344
09/14/2014  11:22:00       -3.547       64.934       13.493       36.580       43.302       29.876     1338.128     1875.066      892.570        0.426        0.205       65.031       29.538        0.206      347.236       26.060      861.356
09/14/2014  11:23:00      -24.121       56.372        9.363       21.774       38.347       27.896      474.120     1470.522      778.200        0.328        0.136       61.316       25.553        0.174      347.516       26.543      861.349
09/14/2014  11:24:00       29.670       19.055       22.856       34.098       21.809       23.504     1162.654      475.646      552.429        0.198        0.110       35.262       16.722        0.225      347.717       26.889      861.346
09/14/2014  11:25:00        6.569      -14.434       18.664       33.490       57.486       34.977     1121.571     3304.696     1223.359        0.312        0.282       15.858        4.684        0.087      347.724       26.900      861.335
09/14/2014  11:26:00       44.126      -61.011       -4.843       47.585       72.259       47.108     2264.363     5221.372     2219.154        0.770        0.485       75.295       43.098        0.328      347.561       26.620      861.321
09/14/2014  11:27:00       16.527      -55.565       18.041       41.592       65.409       39.813     1729.891     4278.347     1585.047        0.564        0.380       57.971       39.413        0.462      347.519       26.548      861.291
09/14/2014  11:28:00       25.635      -84.492       -3.809       46.722       60.036       42.572     2182.908     3604.263     1812.384        0.770        0.380       88.295       36.040        0.167      347.238       26.063      861.254
09/14/2014  11:29:00       -0.391      -63.815       -2.350       55.145       52.345       31.844     3040.950     2739.962     1014.048        0.544        0.340       63.816       19.624        0.095      347.344       26.244      861.228
09/14/2014  11:30:00      -48.709        6.127        8.627       29.557       51.856       25.486      873.614     2689.014      649.527        0.335        0.211       49.093       21.390        0.190      347.504       26.521      861.205
09/14/2014  11:31:00       23.316     -165.811      -22.128       84.084       68.619       46.862     7070.151     4708.577     2196.067        2.125        0.699      167.443       42.246        0.064      347.268       26.112      861.215
09/14/2014  11:32:00      -39.739      -51.344      -12.030       78.212       44.490       32.052     6117.108     1979.333     1027.347        0.674        0.456       64.927       29.232        0.203      347.218       26.028      861.213
09/14/2014  11:33:00       14.109      -30.893       12.104       41.736       56.118       34.760     1741.911     3149.185     1208.266        0.370        0.305       33.962       30.704        0.817      347.747       26.942      861.209
09/14/2014  11:34:00      -55.191     -121.420      -11.233       26.950       36.769       29.200      726.298     1351.976      852.648        1.042        0.147      133.375       15.740        0.014      346.908       25.495      861.206
09/14/2014  11:35:00      -53.822       -7.088       -9.651       22.358       44.252       18.878      499.864     1958.229      356.369        0.293        0.141       54.286       14.119        0.068      347.053       25.744      861.203
09/14/2014  11:36:00      -65.379        3.434       -5.587       27.187       36.086       23.821      739.144     1302.181      567.450        0.346        0.130       65.469       16.515        0.064      347.188       25.976      861.211
09/14/2014  11:37:00      -43.137      -29.136        5.431       43.298       42.879       21.109     1874.755     1838.579      445.571        0.345        0.208       52.054       16.579        0.101      347.527       26.561      861.191
09/14/2014  11:38:00        0.783      -52.352       -9.507       41.856       43.719       23.525     1751.896     1911.384      553.441        0.352        0.211       52.358       14.110        0.073      347.399       26.341      861.181
09/14/2014  11:39:00      -52.172        0.898       -4.508       31.212       22.019       15.109      974.186      484.832      228.291        0.221        0.084       52.179        6.496        0.015      347.618       26.718      861.151
09/14/2014  11:40:00      -37.577       -0.155       -8.793       16.711       22.784       16.781      279.248      519.116      281.598        0.128        0.054       37.578       15.696        0.174      347.817       27.060      861.137
09/14/2014  11:41:00      -47.364      -50.106       28.637       31.264       57.730       32.960      977.450     3332.780     1086.363        0.548        0.270       68.949       13.660        0.039      347.593       26.675      861.117
09/14/2014  11:42:00       16.852       -1.099       50.929       49.759       53.873       46.254     2475.999     2902.267     2139.457        0.520        0.376       16.888       39.509        5.473      348.049       27.461      861.111
09/14/2014  11:43:00       42.412     -122.082      -12.603       43.956       43.105       34.912     1932.124     1858.035     1218.816        1.093        0.250      129.239       25.362        0.039      347.408       26.356      861.101
09/14/2014  11:44:00       53.750      -90.611      -32.239       35.229       57.090       24.760     1241.057     3259.286      613.081        0.863        0.256      105.353       24.701        0.055      347.307       26.181      861.103
09/14/2014  11:45:00       18.844      -49.466       10.814       41.866       43.017       30.877     1752.752     1850.429      953.418        0.374        0.228       52.933       34.727        0.430      347.515       26.541      861.094
09/14/2014  11:46:00       38.776      -94.109       -4.970       60.391       64.145       36.436     3647.018     4114.609     1327.559        0.974        0.454      101.784       39.593        0.151      347.313       26.192      861.093
09/14/2014  11:47:00      -70.894      -44.822      -17.428       29.393       34.956       23.774      863.965     1221.915      565.200        0.499        0.133       83.875       18.142        0.047      347.185       25.971      861.086
09/14/2014  11:48:00      -33.331       -1.645      -18.573       20.857       24.372       18.663      435.019      594.007      348.326        0.142        0.069       33.371       11.440        0.118      347.221       26.034      861.059
09/14/2014  11:49:00      -47.312      -41.118       -0.966       27.343       49.988       16.453      747.636     2498.813      270.703        0.372        0.176       62.682       18.429        0.086      347.371       26.292      861.055
09/14/2014  11:50:00      -52.440      -23.717       15.498       25.857       31.588       20.345      668.605      997.814      413.904        0.282        0.104       57.553       18.614        0.105      347.538       26.581      861.039
09/14/2014  11:51:00        8.992       22.525       18.592       32.506       31.514       28.060     1056.631      993.142      787.352        0.189        0.142       24.254       21.858        0.812      347.750       26.945      861.027
09/14/2014  11:52:00       33.374       54.827        6.750       31.506       20.852       29.374      992.625      434.799      862.807        0.323        0.115       64.186        7.719        0.014      347.264       26.109      861.020
09/14/2014  11:53:00      -15.020      -10.482       -4.463       25.116       17.280       11.227      630.810      298.598      126.052        0.071        0.053       18.316       11.016        0.362      347.307       26.180      861.010
09/14/2014  11:54:00      -18.467       29.387       14.038       29.725       31.734       19.631      883.594     1007.022      385.363        0.184        0.114       34.708       17.548        0.256      347.789       27.014      860.998
09/14/2014  11:55:00      -69.484      -31.547        3.150       29.887       34.637       21.419      893.222     1199.725      458.757        0.419        0.128       76.310       17.075        0.050      347.462       26.447      860.982
09/14/2014  11:56:00      -84.578        6.279       -4.972       17.926       20.488       14.799      321.343      419.755      219.022        0.409        0.048       84.811        8.608        0.010      347.336       26.231      860.952
09/14/2014  11:57:00      -92.334      -75.058      -10.761       58.706       61.150       29.311     3446.387     3739.354      859.136        1.116        0.402      118.992       19.064        0.026      347.460       26.446      860.933
09/14/2014  11:58:00      -48.598      -94.913      -22.570       61.075       53.426       41.552     3730.104     2854.368     1726.549        1.009        0.416      106.632       30.919        0.084      347.724       26.901      860.929
09/14/2014  11:59:00       43.483      -75.528       19.607       55.881      108.599       62.993     3122.741    11793.652     3968.070        1.343        0.944       87.150       71.187        0.667      348.129       27.599      860.916
09/14/2014  12:00:00       -5.479      -25.691       -5.316       46.466       38.786       30.345     2159.086     1504.337      920.811        0.265        0.229       26.269       10.356        0.155      347.623       26.726      860.894
09/14/2014  12:01:00      -28.578       -5.648      -32.125       37.656       38.937       20.889     1418.005     1516.109      436.330        0.262        0.169       29.131       26.094        0.802      347.492       26.500      860.867
09/14/2014  12:02:00       -6.635      -10.587       37.633       55.681       57.376       49.281     3100.341     3291.949     2428.616        0.520        0.441       12.494       39.876       10.187      348.159       27.651      860.841
09/14/2014  12:03:00       51.374       66.518       59.339       58.231       68.470       52.955     3390.882     4688.077     2804.246        1.073        0.544       84.048       52.195        0.386      347.926       27.251      860.817
09/14/2014  12:04:00       67.317      -13.534       42.401       60.697       72.986       57.173     3684.073     5326.949     3268.744        0.939        0.614       68.664       52.676        0.589      348.044       27.454      860.808
09/14/2014  12:05:00       16.500      105.001      121.209       49.825       59.034       46.697     2482.501     3485.034     2180.646        1.707        0.407      106.289       41.944        0.156      348.131       27.602      860.800
09/14/2014  12:06:00      -86.295      -47.630       12.949       78.374       92.619       64.912     6142.472     8578.315     4213.506        1.441        0.947       98.567       68.785        0.487      347.967       27.320      860.818
09/14/2014  12:07:00      -83.144     -194.717      -12.753       67.769       28.773       33.504     4592.693      827.895     1122.520        2.577        0.327      211.726       31.752        0.022      347.437       26.403      860.812
09/14/2014  12:08:00       22.539      -35.032       19.358       22.098       46.715       29.246      488.320     2182.332      855.356        0.282        0.176       41.656       33.665        0.653      347.740       26.928      860.799
09/14/2014  12:09:00      -70.645        5.391      -28.320       46.962       23.740       38.592     2205.411      563.611     1489.311        0.504        0.213       70.850       35.626        0.253      347.644       26.764      860.768
09/14/2014  12:10:00      -74.071       32.577      -26.839       25.048       39.652       21.006      627.419     1572.314      441.234        0.495        0.132       80.918        9.380        0.013      347.403       26.347      860.735
09/14/2014  12:11:00      -30.259       11.600       15.051       40.140       16.206       25.589     1611.200      262.625      654.783        0.190        0.126       32.406       24.972        0.594      348.156       27.647      860.728
09/14/2014  12:12:00       72.909     -120.948      -12.194       79.229       81.781       59.393     6277.209     6688.072     3527.537        1.829        0.825      141.224       53.766        0.145      348.188       27.701      860.713
09/14/2014  12:13:00      105.841        4.351       77.734       97.264      128.261       85.866     9460.251    16450.994     7372.901        2.527        1.664      105.931       94.392        0.794      348.217       27.751      860.679
09/14/2014  12:14:00       88.153        0.363       60.831       84.073      101.319       80.185     7068.295    10265.541     6429.649        1.761        1.188       88.153       80.638        0.837      348.124       27.591      860.680
09/14/2014  12:15:00       57.421       51.234       62.595       62.417       67.731       51.899     3895.912     4587.530     2693.469        1.051        0.559       76.955       46.265        0.361      348.105       27.558      860.682
09/14/2014  12:16:00       71.810       49.123       62.226       60.216       49.548       49.867     3625.931     2455.001     2486.710        1.000        0.428       87.005       31.853        0.134      348.434       28.128      860.665
09/14/2014  12:17:00       96.143      144.063      140.494       95.653       93.960       92.023     9149.427     8828.412     8468.193        3.809        1.322      173.199       85.138        0.242      348.054       27.467      860.642
09/14/2014  12:18:00      121.501      122.857      111.375      113.027       86.605       83.143    12775.103     7500.376     6912.757        3.472        1.359      172.790       72.917        0.178      348.045       27.451      860.635
09/14/2014  12:19:00      157.953     -117.972       16.793      102.378      153.235       96.817    10481.249    23480.951     9373.456        4.123        2.167      197.146      103.275        0.274      348.072       27.498      860.625
09/14/2014  12:20:00      137.410      -76.741       35.822      121.728      180.291      113.474    14817.786    32504.723    12876.358        4.312        3.010      157.387      139.159        0.782      348.117       27.576      860.613
09/14/2014  12:21:00       61.147     -111.623       -5.804       80.604      104.573       80.535     6497.070    10935.553     6485.938        2.007        1.196      127.274       79.676        0.392      348.134       27.607      860.637
09/14/2014  12:22:00       19.965      -83.531       16.779       81.856       97.472       33.692     6700.479     9500.760     1135.129        1.249        0.867       85.884       41.523        0.234      348.116       27.577      860.646
09/14/2014  12:23:00       -4.959      -61.212       -6.836       38.162       46.443       30.508     1456.358     2156.924      930.752        0.418        0.227       61.413       20.751        0.114      348.267       27.837      860.636
09/14/2014  12:24:00      -74.016     -112.949      -28.238       79.392       70.173       28.014     6303.033     4924.236      784.795        1.552        0.601      135.040       28.783        0.045      347.944       27.280      860.649
09/14/2014  12:25:00      -31.117       13.180       -5.019       31.710       33.866       26.070     1005.506     1146.889      679.667        0.200        0.142       33.793       19.330        0.327      347.941       27.277      860.617
09/14/2014  12:26:00      -96.857      -78.425        3.423       70.768       56.513       34.658     5008.064     3193.727     1201.197        1.247        0.470      124.626       25.973        0.043      347.987       27.353      860.616
09/14/2014  12:27:00     -175.134     -196.199       -3.377       98.634      101.710       42.672     9728.717    10345.025     1820.916        4.553        1.095      262.994       35.439        0.018      347.874       27.154      860.633
09/14/2014  12:28:00      -71.280     -196.274       -5.160       41.743       52.589       26.925     1742.460     2765.578      724.931        2.443        0.262      208.817       23.200        0.012      347.722       26.897      860.640
09/14/2014  12:29:00      -50.322     -104.477       21.745       47.823      106.780       49.647     2287.087    11401.863     2464.841        1.503        0.808      115.964       67.302        0.337      348.099       27.547      860.611
09/14/2014  12:30:00       29.668      -39.341       31.254       76.517       64.397       40.152     5854.878     4146.946     1612.175        0.751        0.581       49.274       47.774        0.940      348.385       28.043      860.575
09/14/2014  12:31:00      -43.530     -119.258       -2.737       75.886       77.613       39.391     5758.643     6023.831     1551.617        1.473        0.667      126.954       38.537        0.092      348.145       27.626      860.591
09/14/2014  12:32:00        4.692      -12.395       19.542       21.349       40.523       24.610      455.762     1642.131      605.670        0.163        0.135       13.254       24.996        3.557      348.310       27.913      860.588
09/14/2014  12:33:00       65.486       72.847       49.709       74.791       36.777       38.609     5593.705     1352.522     1490.686        1.025        0.422       97.954       42.855        0.191      348.303       27.902      860.546
09/14/2014  12:34:00       58.290       12.098       -3.387       32.715       46.681       24.608     1070.257     2179.102      605.564        0.370        0.193       59.533        9.469        0.025      348.312       27.915      860.525
09/14/2014  12:35:00        1.317       17.042       49.618       26.366       44.024       24.794      695.171     1938.075      614.719        0.300        0.162       17.093       24.511        2.056      348.427       28.116      860.520
09/14/2014  12:36:00      -24.876        8.502       34.392       42.186       53.420       43.893     1779.621     2853.671     1926.610        0.422        0.328       26.289       41.208        2.457      348.241       27.792      860.502
09/14/2014  12:37:00     -112.820      -36.205        1.317       68.510       38.233       19.899     4693.643     1461.775      395.970        1.030        0.328      118.487       22.958        0.038      348.221       27.759      860.499
09/14/2014  12:38:00     -284.316      -45.259        0.642      138.366       93.085       63.477    19145.232     8664.796     4029.386        5.736        1.592      287.896       64.654        0.050      348.157       27.645      860.484
09/14/2014  12:39:00     -180.434      -56.453        5.151      144.949       95.537       62.940    21010.098     9127.276     3961.442        3.493        1.705      189.059       53.380        0.080      348.175       27.674      860.488
09/14/2014  12:40:00     -222.571      -76.100       10.016      149.498       99.176       61.542    22349.556     9835.904     3787.443        4.570        1.799      235.221       80.853        0.118      348.123       27.585      860.481
09/14/2014  12:41:00     -207.119      -66.085       -3.112      117.862       84.547       44.941    13891.488     7148.152     2019.671        3.516        1.153      217.407       54.756        0.063      348.093       27.537      860.493
09/14/2014  12:42:00      -96.981      -27.694       12.023      112.799       59.215       43.992    12723.667     3506.439     1935.340        1.424        0.908      100.858       59.141        0.344      348.437       28.131      860.483
09/14/2014  12:43:00     -129.819     -132.777       -6.838      148.573      102.947       53.259    22073.824    10598.127     2836.512        3.501        1.775      185.695       59.544        0.103      348.344       27.969      860.483
09/14/2014  12:44:00     -261.340     -174.957       -4.560      178.108      115.570       51.842    31722.592    13356.391     2687.588        7.334        2.388      314.497       66.975        0.045      348.200       27.721      860.465
09/14/2014  12:45:00     -238.878     -129.587       -7.483      129.660      128.274       65.063    16811.728    16454.218     4233.192        5.570        1.875      271.764       60.218        0.049      348.333       27.950      860.457
09/14/2014  12:46:00     -226.291       -4.445        6.021      102.715       85.503       53.372    10550.457     7310.729     2848.529        3.598        1.035      226.335       54.993        0.059      348.554       28.331      860.439
09/14/2014  12:47:00     -289.740      -30.378      -14.431      136.611       66.384       47.493    18662.545     4406.809     2255.560        5.520        1.266      291.328       60.004        0.042      348.419       28.099      860.412
09/14/2014  12:48:00     -241.505     -103.145      -10.062      145.809       97.009       43.916    21260.174     9410.683     1928.588        5.083        1.630      262.610       52.764        0.040      348.584       28.385      860.388
09/14/2014  12:49:00     -248.627     -114.835       -8.264       92.046       94.831       44.833     8472.491     8992.974     2009.977        4.727        0.974      273.866       45.219        0.027      348.263       27.827      860.390
09/14/2014  12:50:00     -185.429      -73.798      -12.362       69.923       87.203       45.210     4889.165     7604.388     2043.931        2.726        0.727      199.575       28.414        0.020      348.558       28.340      860.362
09/14/2014  12:51:00     -283.132      -61.182      -10.897       88.597       98.828       43.756     7849.385     9766.884     1914.565        5.177        0.977      289.667       40.002        0.019      348.290       27.874      860.347
09/14/2014  12:52:00     -133.698      -88.486        5.954      112.387      116.706       50.116    12630.943    13620.392     2511.634        2.725        1.438      160.327       49.730        0.096      348.490       28.223      860.319
09/14/2014  12:53:00     -313.300     -232.301       -2.706      129.342      102.462       71.127    16729.257    10498.486     5059.087        9.220        1.614      390.027       79.958        0.042      348.156       27.641      860.314
09/14/2014  12:54:00     -105.346     -115.082        7.511       95.796       70.286       42.114     9176.812     4940.077     1773.554        2.014        0.795      156.019       38.901        0.062      348.251       27.808      860.324
09/14/2014  12:55:00      -64.886     -110.034        8.845       73.803      111.243       33.426     5446.837    12374.983     1117.321        1.766        0.947      127.741       39.793        0.097      348.603       28.418      860.269
09/14/2014  12:56:00      -21.235       -8.196       -1.563       54.002       42.774       33.125     2916.226     1829.599     1097.261        0.318        0.292       22.762       18.996        0.696      348.673       28.541      860.242
09/14/2014  12:57:00      -49.363      -19.264        3.213       31.931       25.624       22.273     1019.562      656.573      496.074        0.249        0.109       52.988        9.540        0.032      348.644       28.491      860.242
09/14/2014  12:58:00       21.679       10.731       16.968       51.281       47.996       38.375     2629.715     2303.647     1472.635        0.364        0.320       24.189       31.466        1.692      348.771       28.710      860.217
09/14/2014  12:59:00     -112.790       23.347       24.808       78.469       87.147       42.798     6157.364     7594.541     1831.633        1.473        0.779      115.181       47.068        0.167      348.685       28.559      860.192
09/14/2014  13:00:00      -67.357      -39.182       -1.034       64.285       49.528       28.740     4132.513     2453.064      826.012        0.674        0.371       77.925       18.975        0.059      348.744       28.663      860.196
09/14/2014  13:01:00      -21.863     -121.414      -10.667       86.997       69.065       33.358     7568.511     4769.996     1112.764        1.439        0.673      123.367       13.682        0.012      348.733       28.644      860.214
09/14/2014  13:02:00      -99.125      -96.013       18.258      105.602       82.133       50.401    11151.699     6745.874     2540.232        1.990        1.022      138.001       60.075        0.190      348.893       28.920      860.213
09/14/2014  13:03:00     -188.835     -174.154      -20.330      127.813       94.446       47.967    16336.143     8920.071     2300.805        4.697        1.378      256.882       46.784        0.033      348.496       28.230      860.168
09/14/2014  13:04:00     -260.598     -340.415      -15.132      146.356      162.094       78.754    21420.063    26274.460     6202.217       11.895        2.695      428.711       75.269        0.031      348.655       28.504      860.158
09/14/2014  13:05:00       -2.347     -169.667      -14.335      100.898      103.894       70.756    10180.339    10793.923     5006.435        2.748        1.299      169.683       39.895        0.055      348.869       28.877      860.208
09/14/2014  13:06:00     -149.917     -141.696      -13.286      184.504      125.375       92.240    34041.814    15718.773     8508.200        5.049        2.913      206.284       59.986        0.085      348.728       28.635      860.191
09/14/2014  13:07:00      -33.439     -108.339      -20.415       76.397      128.455       41.717     5836.516    16500.754     1740.324        1.867        1.204      113.382       35.124        0.096      348.730       28.638      860.233
09/14/2014  13:08:00      -60.807      -30.451       -0.732       73.744       62.370       40.507     5438.166     3889.976     1640.804        0.780        0.548       68.006       26.247        0.149      348.806       28.770      860.230
09/14/2014  13:09:00      -54.387      -38.856        2.273       50.666       39.096       32.437     2567.001     1528.494     1052.169        0.481        0.257       66.841       19.319        0.084      348.857       28.857      860.227
09/14/2014  13:10:00      -79.992      -70.009        0.761       54.190       51.141       45.247     2936.546     2615.385     2047.263        0.945        0.380      106.301       30.487        0.082      348.768       28.705      860.216
09/14/2014  13:11:00      -31.639     -175.827       -8.028      112.013      125.449       61.862    12546.855    15737.496     3826.871        3.204        1.606      178.651       64.773        0.131      348.675       28.543      860.214
09/14/2014  13:12:00      -58.003     -157.364        6.150       95.524       58.309       47.439     9124.828     3399.930     2250.504        2.147        0.739      167.714       51.340        0.094      348.599       28.410      860.228
09/14/2014  13:13:00       12.442      -68.017       18.854       86.886      104.382       66.346     7549.116    10895.639     4401.797        1.399        1.142       69.146       33.309        0.232      348.780       28.723      860.178
09/14/2014  13:14:00      -58.433      -83.213       -0.436       63.131       89.438       48.649     3985.515     7999.092     2366.738        1.234        0.718      101.680       50.568        0.247      348.578       28.376      860.163
09/14/2014  13:15:00      -38.953      -75.400        2.695       48.340       97.414       31.602     2336.777     9489.528      998.672        1.002        0.641       84.868       27.303        0.104      348.580       28.380      860.146
09/14/2014  13:16:00      -14.999     -252.742      -20.778      122.807       92.894       50.129    15081.670     8629.316     2512.919        4.538        1.311      253.187       30.608        0.015      348.461       28.171      860.131
09/14/2014  13:17:00      -61.427     -199.608        1.417       96.204      142.524       56.131     9255.230    20313.074     3150.643        3.816        1.636      208.847       43.463        0.043      348.373       28.018      860.116
09/14/2014  13:18:00      -56.588      -48.735       14.533       86.484       58.927       42.311     7479.422     3472.396     1790.179        0.926        0.637       74.681       27.700        0.138      348.555       28.337      860.084
09/14/2014  13:19:00        6.978       -4.667       24.148       31.136       32.510       28.705      969.464     1056.919      823.966        0.175        0.143        8.395       24.383        8.437      348.755       28.683      860.075
09/14/2014  13:20:00       61.131      -74.443       48.028       74.969      123.576       61.446     5620.358    15271.019     3775.624        1.812        1.233       96.326       74.492        0.598      348.788       28.737      860.061
09/14/2014  13:21:00       23.946      -89.767       17.675       72.389       56.056       40.987     5240.177     3142.317     1679.918        0.950        0.503       92.906       32.841        0.125      348.813       28.782      860.070
09/14/2014  13:22:00     -167.737      -42.425       -0.863       97.113       70.622       38.910     9430.967     4987.396     1513.980        2.293        0.797      173.019       22.064        0.016      348.708       28.598      860.060
09/14/2014  13:23:00      -74.077      -95.268       17.032       88.102       87.761       57.328     7761.973     7701.960     3286.472        1.680        0.938      120.679       49.166        0.166      348.769       28.705      860.057
09/14/2014  13:24:00     -142.396      -28.668       27.081      177.975       87.318       61.848    31675.251     7624.402     3825.150        3.247        2.156      145.254       69.319        0.228      348.887       28.909      860.051
09/14/2014  13:25:00     -201.832     -277.855       11.896      157.721      194.586       79.637    24875.962    37863.870     6342.000        9.357        3.454      343.423       71.671        0.044      348.603       28.416      860.081
09/14/2014  13:26:00     -246.106     -207.003      -12.839      139.735      167.143       68.726    19525.878    27936.759     4723.309        7.788        2.609      321.587       66.701        0.043      348.624       28.453      860.073
09/14/2014  13:27:00     -166.250     -236.179      -20.791       84.502       95.469       47.075     7140.566     9114.369     2216.102        5.116        0.924      288.824       12.524        0.002      348.535       28.297      860.047
09/14/2014  13:28:00       -5.388     -237.102      -20.013      194.755      146.886       63.061    37929.623    21575.601     3976.708        6.005        3.174      237.163       55.265        0.054      348.697       28.578      860.040
09/14/2014  13:29:00       41.494     -254.982      -21.988      145.548      122.758       88.341    21184.259    15069.427     7804.112        5.563        2.203      258.336       87.909        0.116      348.839       28.825      860.041
09/14/2014  13:30:00       -2.507     -170.681      -44.464       78.338      117.847       53.187     6136.861    13887.940     2828.886        2.698        1.143      170.699       46.046        0.073      348.887       28.909      860.083
09/14/2014  13:31:00        9.203     -203.872      -29.993       78.125      102.593       52.243     6103.488    10525.375     2729.307        3.095        0.968      204.080       40.797        0.040      348.783       28.730      860.050
09/14/2014  13:32:00      -28.569      -51.486       15.808       58.651       55.201       38.312     3439.995     3047.175     1467.818        0.583        0.398       58.881       33.232        0.319      349.025       29.150      860.036
09/14/2014  13:33:00      -57.640      -84.080      -19.126       93.107       56.744       38.559     8668.954     3219.875     1486.762        1.206        0.669      101.940       37.746        0.137      348.653       28.507      860.012
09/14/2014  13:34:00        3.238       14.410       62.509      126.654       89.866       74.437    16041.125     8075.955     5540.832        1.689        1.483       14.770       67.797       21.070      348.824       28.800      859.980
09/14/2014  13:35:00      -24.163     -172.669        0.238       95.676      125.501       75.969     9153.969    15750.443     5771.277        3.053        1.534      174.351       75.735        0.189      348.789       28.738      859.988
09/14/2014  13:36:00        4.786     -194.202      -22.488       87.361       74.087       57.107     7631.994     5488.940     3261.202        2.731        0.819      194.261       38.127        0.039      348.606       28.422      859.988
09/14/2014  13:37:00      -11.067     -141.241       17.607      115.047      105.738       60.472    13235.849    11180.616     3656.876        2.422        1.404      141.674       56.544        0.159      349.018       29.136      859.965
09/14/2014  13:38:00        1.904      -58.171       24.018       84.562       99.847       55.505     7150.741     9969.444     3080.813        1.208        1.010       58.202       57.994        0.993      349.456       29.896      859.986
09/14/2014  13:39:00      -71.090      -68.641       29.573      112.018       95.158       53.854    12548.139     9055.082     2900.233        1.757        1.225       98.820       49.462        0.251      349.132       29.335      860.002
09/14/2014  13:40:00       12.119     -201.019       -6.947      119.723      104.534       68.339    14333.556    10927.275     4670.285        3.526        1.497      201.384       41.688        0.043      348.917       28.961      859.987
09/14/2014  13:41:00       84.829     -230.647      -25.774      161.456      142.504       86.016    26068.028    20307.472     7398.790        5.741        2.689      245.752       70.256        0.082      348.685       28.558      859.996
09/14/2014  13:42:00      -48.644     -143.684       13.938       98.841      102.522       66.501     9769.532    10510.842     4422.332        2.395        1.235      151.695       38.418        0.064      348.744       28.662      859.972
09/14/2014  13:43:00       52.399     -137.716        9.637      113.165      158.799       98.571    12806.311    25217.173     9716.161        3.476        2.387      147.347       88.937        0.364      348.944       29.007      859.948
09/14/2014  13:44:00       86.044      -98.967       27.973       96.711      103.920       77.523     9353.037    10799.364     6009.789        2.207        1.308      131.141       77.996        0.354      348.815       28.786      859.978
09/14/2014  13:45:00       98.612     -154.684        2.375       66.450       93.280       57.477     4415.605     8701.182     3303.622        2.504        0.821      183.443       47.693        0.068      348.600       28.413      859.985
09/14/2014  13:46:00       24.003      -66.600       -8.297       52.583       49.091       30.779     2764.953     2409.958      947.346        0.560        0.306       70.794       28.740        0.165      348.833       28.819      859.942
09/14/2014  13:47:00       23.569      -25.647       18.871       30.305       42.159       31.888      918.375     1777.415     1016.829        0.264        0.186       34.832       21.190        0.370      349.371       29.749      859.944
09/14/2014  13:48:00      -37.611      -45.984       16.186       48.222       84.807       41.581     2325.380     7192.158     1728.998        0.752        0.562       59.407       49.997        0.708      349.186       29.430      859.926
09/14/2014  13:49:00      -94.139     -102.545        2.889      108.932       93.383       58.352    11866.269     8720.451     3404.975        2.168        1.200      139.204       54.754        0.155      349.103       29.283      859.946
09/14/2014  13:50:00      -66.029     -141.594       16.968      118.248       88.508       58.265    13982.515     7833.667     3394.845        2.495        1.261      156.233       48.075        0.095      349.046       29.183      859.952
09/14/2014  13:51:00      -32.415     -167.567        5.647       71.956      142.383       51.017     5177.694    20272.987     2602.757        2.860        1.403      170.674       59.483        0.121      348.942       29.006      859.935
09/14/2014  13:52:00      -37.580     -189.735      -10.134       76.706      117.844       43.941     5883.811    13887.193     1930.854        2.960        1.085      193.421       29.016        0.023      348.836       28.821      859.925
09/14/2014  13:53:00       -3.307     -165.707       -7.128       75.068       71.611       57.293     5635.255     5128.168     3282.519        2.078        0.702      165.740       43.270        0.068      348.817       28.788      859.917
09/14/2014  13:54:00       26.029      -75.089        6.449       60.746       76.734       42.974     3690.100     5888.058     1846.788        0.889        0.571       79.473       37.350        0.221      349.101       29.280      859.901
09/14/2014  13:55:00        8.764      -44.029        7.126       42.176      103.638       46.819     1778.786    10740.795     2191.974        0.839        0.736       44.893       56.733        1.597      349.375       29.757      859.875
09/14/2014  13:56:00       36.723     -249.189      -16.074      115.741      108.636       68.295    13396.024    11801.840     4664.248        4.678        1.493      251.880       58.651        0.054      348.771       28.709      859.897
09/14/2014  13:57:00       -6.809     -263.810      -10.105      144.976       90.554       53.754    21018.042     8200.000     2889.492        5.092        1.605      263.898       48.439        0.034      348.513       28.261      859.835
09/14/2014  13:58:00      -57.359     -200.326       -5.665      139.040       81.429       51.402    19332.057     6630.641     2642.128        3.602        1.430      208.376       27.785        0.018      348.663       28.518      859.815
09/14/2014  13:59:00     -285.841     -161.476       -1.548      123.047      135.598       57.743    15140.574    18386.708     3334.267        7.232        1.843      328.298       64.832        0.039      348.660       28.514      859.789
09/14/2014  14:00:00      -78.194      -78.021       20.531       95.046       85.192       44.390     9033.785     7257.666     1970.460        1.544        0.913      110.461       46.532        0.177      348.816       28.786      859.778
09/14/2014  14:01:00       -2.353      -79.420       10.292       67.037       70.652       36.121     4493.942     4991.698     1304.757        0.860        0.540       79.455       32.395        0.166      348.882       28.901      859.788
09/14/2014  14:02:00       -4.650      -70.374        8.449       88.895       96.353       44.032     7902.368     9283.996     1938.816        1.208        0.956       70.528       40.582        0.331      348.994       29.097      859.805
09/14/2014  14:03:00      -54.009     -153.765      -13.007      168.566      116.834       61.524    28414.493    13650.202     3785.161        3.628        2.292      162.975       60.070        0.136      348.725       28.628      859.789
09/14/2014  14:04:00       15.329     -102.712       -7.965       58.623       64.117       47.348     3436.607     4110.947     2241.793        1.032        0.489      103.849       33.435        0.104      348.904       28.941      859.765
09/14/2014  14:05:00       51.646     -119.666       21.693      118.151      128.588       66.377    13959.615    16534.945     4405.889        2.617        1.745      130.335       67.517        0.268      348.890       28.915      859.764
09/14/2014  14:06:00        7.680     -150.936        2.034      101.095       98.979       68.361    10220.161     9796.748     4673.277        2.376        1.235      151.132       53.724        0.126      348.772       28.709      859.794
09/14/2014  14:07:00      -18.093      -26.388       66.969      110.988      123.150       88.583    12318.229    15165.924     7847.018        2.041        1.767       31.995       89.427        7.812      348.912       28.954      859.769
09/14/2014  14:08:00     -119.269     -179.267      -15.884       98.670      100.812       44.186     9735.767    10163.105     1952.370        3.423        1.093      215.318       20.923        0.009      348.724       28.627      859.818
09/14/2014  14:09:00      -86.111     -138.283      -21.069      100.289       81.522       46.492    10057.855     6645.837     2161.519        2.292        0.943      162.903       38.345        0.055      348.594       28.400      859.804
09/14/2014  14:10:00       15.913     -107.104        5.331       82.090       79.584       55.294     6738.818     6333.601     3057.429        1.394        0.806      108.280       44.198        0.167      348.867       28.876      859.823
09/14/2014  14:11:00       23.650      -42.351       15.733       43.937       46.587       32.770     1930.484     2170.303     1073.889        0.389        0.259       48.507       25.360        0.273      348.839       28.829      859.798
09/14/2014  14:12:00      -61.174      -14.757        7.319       54.970       55.238       37.905     3021.754     3051.272     1436.810        0.576        0.375       62.929       34.990        0.309      348.763       28.697      859.762
09/14/2014  14:13:00     -153.441     -106.409        7.942      150.823       88.033       51.986    22747.522     7749.743     2702.594        3.406        1.660      186.728       66.825        0.128      348.915       28.959      859.806
09/14/2014  14:14:00     -203.444     -229.405      -12.953      200.714      159.918       84.794    40285.925    25573.906     7189.990        8.360        3.652      306.621       91.499        0.089      348.707       28.597      859.782
09/14/2014  14:15:00        7.848     -188.079      -15.215      108.973      102.345       60.069    11875.068    10474.470     3608.299        3.081        1.298      188.243       39.971        0.045      348.686       28.561      859.787
09/14/2014  14:16:00      123.261     -176.064      -20.340      156.332      132.763       80.446    24439.772    17625.989     6471.639        4.756        2.427      214.923       82.346        0.147      348.897       28.925      859.757
09/14/2014  14:17:00      111.555     -198.578        7.216      118.179      130.638       83.451    13966.365    17066.194     6964.062        4.496        1.900      227.767       80.021        0.123      348.972       29.056      859.764
09/14/2014  14:18:00        5.987      -94.924       -6.030       56.468       75.763       50.144     3188.613     5740.107     2514.464        1.026        0.572       95.113       37.420        0.155      349.033       29.164      859.761
09/14/2014  14:19:00       45.833      -38.996       32.536       67.496      103.909       71.928     4555.740    10797.073     5173.630        1.260        1.026       60.177       77.180        1.645      349.186       29.429      859.719
09/14/2014  14:20:00        2.772      -24.328       26.512      108.305       93.086       48.138    11729.972     8664.994     2317.265        1.200        1.136       24.485       43.447        3.149      349.356       29.724      859.675
09/14/2014  14:21:00       24.947      -32.439       19.236       53.256       71.319       49.032     2836.157     5086.332     2404.146        0.618        0.516       40.923       53.604        1.716      349.317       29.655      859.708
09/14/2014  14:22:00       10.698     -183.073        7.300      164.849      168.072       94.962    27175.255    28248.107     9017.841        4.905        3.222      183.386       91.265        0.248      349.086       29.254      859.731
09/14/2014  14:23:00     -178.427     -284.932      -18.016      210.959      140.560       73.479    44503.711    19757.079     5399.121        9.149        3.483      336.188       74.997        0.050      348.920       28.964      859.723
09/14/2014  14:24:00     -159.646     -201.013       -4.309      117.103      200.113       63.832    13713.014    40045.128     4074.514        6.186        2.892      256.696       56.928        0.049      348.915       28.956      859.697
09/14/2014  14:25:00     -134.647     -269.646       -0.004      173.245      141.162       91.853    30013.773    19926.580     8436.882        7.460        2.919      301.395       80.866        0.072      348.882       28.899      859.732
09/14/2014  14:26:00     -350.170     -191.697        1.048      159.547      122.638       80.364    25455.162    15040.140     6458.441       10.315        2.348      399.208       62.055        0.024      348.790       28.741      859.679
09/14/2014  14:27:00      -76.351      -93.719        8.727      113.287       78.982       52.318    12833.981     6238.206     2737.207        1.825        1.090      120.883       44.595        0.136      349.101       29.281      859.700
09/14/2014  14:28:00       48.387     -150.274      -17.153       66.031       75.213       47.243     4360.140     5657.045     2231.869        1.873        0.612      157.872       40.142        0.065      349.220       29.486      859.699
09/14/2014  14:29:00      -52.235     -112.657        4.471       72.469       86.869       47.892     5251.692     7546.296     2293.664        1.526        0.755      124.177       42.004        0.114      349.077       29.238      859.718
09/14/2014  14:30:00      -20.734      -83.507       -2.009       66.846       60.779       41.464     4468.327     3694.062     1719.300        0.864        0.494       86.043       30.952        0.129      349.245       29.531      859.731
09/14/2014  14:31:00       25.903     -251.627      -16.278      119.398      122.343       66.458    14255.779    14967.769     4416.720        4.894        1.682      252.957       44.876        0.031      349.028       29.152      859.759
09/14/2014  14:32:00       -2.889     -157.604        8.905       78.499      120.903       51.213     6162.053    14617.481     2622.817        2.416        1.170      157.631       42.337        0.072      349.055       29.201      859.810
09/14/2014  14:33:00      -72.088     -218.821        2.788       76.063      164.659       65.801     5785.575    27112.606     4329.714        4.515        1.861      230.390       60.985        0.070      349.122       29.316      859.840
09/14/2014  14:34:00        4.668     -205.078       13.591      170.208      170.732       90.601    28970.713    29149.310     8208.628        5.428        3.316      205.131       82.825        0.163      349.008       29.117      859.811
09/14/2014  14:35:00     -107.293     -210.795        8.800      164.006      169.173       74.755    26897.820    28619.412     5588.372        5.855        3.055      236.529       72.388        0.094      348.923       28.970      859.793
09/14/2014  14:36:00     -253.121      -94.347      -11.200      110.361       77.684       53.932    12179.559     6034.842     2908.680        4.711        1.056      270.132       23.613        0.008      349.122       29.315      859.831
09/14/2014  14:37:00     -308.162     -198.354        2.749      200.986      157.758       78.234    40395.425    24887.545     6120.535       10.285        3.570      366.481       97.556        0.071      348.801       28.760      859.802
09/14/2014  14:38:00     -266.762     -138.339        5.974      130.630      113.795       71.270    17064.294    12949.286     5079.458        6.271        1.755      300.499       64.978        0.047      348.796       28.750      859.783
09/14/2014  14:39:00     -185.408     -159.351       23.318      176.620      170.868       96.151    31194.510    29195.938     9244.952        6.496        3.482      244.477      106.448        0.190      348.780       28.724      859.791
09/14/2014  14:40:00     -220.387     -129.807       14.096      149.895      122.339       74.687    22468.549    14966.869     5578.198        5.431        2.151      255.774       80.460        0.099      348.876       28.890      859.790
09/14/2014  14:41:00     -225.498     -249.151        7.833      132.363      169.391       80.805    17519.928    28693.357     6529.456        8.286        2.637      336.044       81.127        0.058      348.799       28.754      859.791
09/14/2014  14:42:00     -259.211     -307.179       -2.368      219.566      173.755       75.490    48209.354    30190.684     5698.774       12.281        4.205      401.932       53.667        0.018      348.800       28.757      859.702
09/14/2014  14:43:00     -406.631     -146.377       -7.742      201.625      165.016      100.232    40652.731    27230.442    10046.467       13.237        3.896      432.175      102.216        0.056      348.932       28.986      859.655
09/14/2014  14:44:00     -189.610     -194.971       -1.522      119.788      164.280       65.398    14349.051    26987.810     4276.886        5.978        2.281      271.966       70.833        0.068      348.995       29.096      859.722
09/14/2014  14:45:00      -86.217     -128.236       18.593      152.683       99.725       76.573    23311.950     9945.152     5863.400        3.167        1.956      154.524       63.621        0.170      349.190       29.435      859.734
09/14/2014  14:46:00        5.871     -183.014       25.101      120.944      186.946      107.241    14627.502    34948.646    11500.617        4.761        3.054      183.108      102.765        0.315      349.081       29.245      859.710
09/14/2014  14:47:00       66.404     -247.412       -8.374      193.505      164.430       86.488    37444.025    27037.123     7480.089        6.881        3.598      256.168      103.971        0.165      348.837       28.821      859.749
09/14/2014  14:48:00       -0.093        1.844       26.177       87.071       81.163       46.598     7581.416     6587.399     2171.330        0.851        0.817        1.847       26.311      203.012      349.157       29.378      859.762
09/14/2014  14:49:00     -200.400     -214.174       -8.732      178.713      162.135       72.336    31938.243    26287.802     5232.487        7.477        3.173      293.310       71.276        0.059      349.156       29.373      859.768
09/14/2014  14:50:00     -227.685     -314.125      -31.285      194.934      153.603       94.984    37999.412    23593.771     9021.905       11.104        3.531      387.963       66.995        0.030      349.233       29.507      859.753
09/14/2014  14:51:00     -192.429     -171.789       -7.512      175.888      158.728       82.448    30936.493    25194.571     6797.615        6.475        3.146      257.954       75.187        0.085      349.113       29.299      859.768
09/14/2014  14:52:00     -197.578     -253.741        8.394      198.619      163.952       76.975    39449.404    26880.407     5925.104        8.786        3.613      321.592       75.427        0.055      348.976       29.062      859.727
09/14/2014  14:53:00     -156.380     -193.686        7.417      134.908      146.345       73.633    18200.230    21416.859     5421.800        5.352        2.252      248.936       75.263        0.091      348.916       28.957      859.698
09/14/2014  14:54:00     -195.363     -227.078       -4.880      181.144      148.279       75.134    32813.194    21986.757     5645.071        7.509        3.022      299.552       69.359        0.054      348.884       28.902      859.678
09/14/2014  14:55:00      -83.307     -270.241       -9.628      172.544      185.246       93.082    29771.414    34316.155     8664.337        7.640        3.638      282.790       91.693        0.105      348.741       28.656      859.665
09/14/2014  14:56:00      -80.773     -319.652      -29.561      125.290      158.727       82.100    15697.561    25194.209     6740.333        7.860        2.382      329.700       79.211        0.058      348.702       28.588      859.633
09/14/2014  14:57:00     -122.070     -251.074      -15.128      132.976      161.469       66.794    17682.505    26072.182     4461.493        6.318        2.411      279.176       73.163        0.069      348.780       28.724      859.669
09/14/2014  14:58:00     -332.115     -137.068        8.734      203.084      131.050       82.725    41242.965    17174.065     6843.397        9.720        3.263      359.288       82.475        0.053      348.854       28.851      859.679
09/14/2014  14:59:00     -184.837     -173.771        5.835      149.509      159.359       67.439    22352.804    25395.214     4548.066        5.834        2.615      253.695       68.216        0.072      348.950       29.016      859.693
09/14/2014  15:00:00     -224.936     -276.114        8.642      148.271      189.717       88.895    21984.310    35992.412     7902.250        9.638        3.294      356.140       88.182        0.061      348.931       28.985      859.703
09/14/2014  15:01:00      -76.152     -191.401       -1.180      115.627      118.189       68.572    13369.551    13968.547     4702.067        3.723        1.602      205.994       51.408        0.062      349.014       29.128      859.751
09/14/2014  15:02:00      103.643     -249.648      -26.997      138.324      139.920       73.259    19133.633    19577.735     5366.936        5.893        2.204      270.307       64.828        0.058      348.896       28.924      859.690
09/14/2014  15:03:00       23.691     -270.193      -19.553      152.242      208.537      108.967    23177.616    43487.539    11873.836        7.623        3.927      271.229      114.704        0.179      348.891       28.913      859.692
09/14/2014  15:04:00       34.348     -280.673      -30.917      149.207      165.810       77.957    22262.612    27492.886     6077.286        6.836        2.792      282.767       74.759        0.070      348.692       28.571      859.674
09/14/2014  15:05:00       13.244     -182.972       16.147      121.485      158.632       91.615    14758.525    25164.014     8393.350        4.111        2.416      183.451       90.993        0.246      348.936       28.994      859.671
09/14/2014  15:06:00      -67.827     -352.343        3.017       79.151      210.210       80.311     6264.805    44188.056     6449.817        9.282        2.845      358.812       76.621        0.046      348.784       28.730      859.632
09/14/2014  15:07:00      132.665     -116.507       58.190      151.571      197.309      108.114    22973.647    38930.671    11688.740        5.406        3.680      176.561      118.377        0.450      348.931       28.986      859.579
09/14/2014  15:08:00      -24.742     -136.375        8.721      121.919       77.239       64.861    14864.185     5965.937     4207.000        2.216        1.252      138.601       27.389        0.039      349.040       29.173      859.598
09/14/2014  15:09:00       32.849     -323.434        1.007      166.429      173.698       85.540    27698.460    30170.864     7317.089        8.543        3.259      325.098       81.643        0.063      348.904       28.938      859.633
09/14/2014  15:10:00       -6.860     -197.271      -11.395      112.567      133.362       57.094    12671.378    17785.470     3259.723        3.640        1.686      197.390       53.299        0.073      348.961       29.036      859.644
09/14/2014  15:11:00       66.891     -114.719       40.012      150.630      122.666       66.058    22689.433    15046.849     4363.689        3.066        2.105      132.797       72.380        0.297      349.127       29.325      859.627
09/14/2014  15:12:00       18.553     -335.329        1.088      176.877      237.433      115.568    31285.581    56374.635    13356.009       10.689        5.051      335.842      121.288        0.130      348.767       28.701      859.626
09/14/2014  15:13:00       15.201     -214.535       13.749      130.975      127.025       91.615    17154.577    16135.331     8393.353        4.406        2.084      215.073       32.263        0.023      348.908       28.943      859.648
09/14/2014  15:14:00       50.673     -227.043       16.040      171.752      179.571      107.018    29498.762    32245.620    11452.898        6.377        3.660      232.629       96.769        0.173      348.909       28.947      859.594
09/14/2014  15:15:00       27.882     -217.404      -27.732      115.208      112.669       85.481    13272.890    12694.217     7307.057        4.104        1.664      219.184       72.424        0.109      348.944       29.006      859.641
09/14/2014  15:16:00       18.039     -317.503       -5.907       92.404      133.374       72.739     8538.496    17788.688     5290.936        6.639        1.581      318.015       63.327        0.040      348.805       28.766      859.668
09/14/2014  15:17:00      -70.309     -253.743      -19.090       98.113      128.381       66.633     9626.149    16481.617     4439.900        5.012        1.527      263.304       43.025        0.027      348.801       28.761      859.657
09/14/2014  15:18:00      -17.000     -164.600        7.097       81.083      104.650       51.285     6574.514    10951.564     2630.202        2.379        1.008      165.476       40.743        0.061      349.025       29.147      859.657
09/14/2014  15:19:00      -50.845      -34.818        9.631       71.467       56.034       47.111     5107.486     3139.816     2219.406        0.718        0.523       61.624       31.100        0.255      349.373       29.754      859.656
09/14/2014  15:20:00      -60.125     -280.038       -2.484      124.155      151.794       64.470    15414.404    23041.352     4156.384        6.232        2.131      286.420       54.233        0.036      349.107       29.290      859.640
09/14/2014  15:21:00     -233.065     -279.013       -5.783      212.046      151.868       71.607    44963.645    23063.827     5127.519       10.267        3.658      363.548       77.087        0.045      348.914       28.954      859.615
09/14/2014  15:22:00     -266.521     -250.498      -20.533      193.363      158.176       73.571    37389.293    25019.621     5412.724       10.100        3.391      365.763       76.977        0.044      349.004       29.110      859.570
09/14/2014  15:23:00     -323.746     -255.541       -6.624      186.887      148.748       75.166    34926.672    22125.891     5649.897       11.642        3.135      412.447       64.989        0.025      349.034       29.162      859.551
09/14/2014  15:24:00     -349.317     -185.622       -1.590      222.462      176.235       94.214    49489.138    31058.951     8876.229       12.294        4.471      395.573      104.965        0.070      349.082       29.247      859.532
09/14/2014  15:25:00     -284.291      -92.149       16.620      177.400      115.974       80.895    31470.677    13450.075     6543.985        7.052        2.573      298.852       83.478        0.078      349.113       29.300      859.555
09/14/2014  15:26:00     -149.848     -106.711       13.048       97.346      101.374       60.022     9476.223    10276.744     3602.632        2.868        1.168      183.961       56.269        0.094      349.112       29.297      859.570
09/14/2014  15:27:00     -259.351     -307.539      -12.440      157.741      201.139       78.489    24882.319    40456.844     6160.491       11.674        3.575      402.297       83.582        0.043      349.002       29.107      859.564
09/14/2014  15:28:00     -220.728     -339.269       -3.751      176.289      233.667       75.950    31077.661    54600.087     5768.382       12.763        4.572      404.752       87.241        0.046      348.930       28.984      859.570
09/14/2014  15:29:00      -35.916     -307.355      -15.950      123.337      198.981       86.605    15212.037    39593.384     7500.499        7.915        3.115      309.446       81.919        0.070      348.898       28.928      859.587
09/14/2014  15:30:00      -46.447     -167.970       -8.544      139.663      113.132       70.731    19505.783    12798.785     5002.887        3.387        1.865      174.273       24.479        0.020      349.042       29.178      859.586
09/14/2014  15:31:00     -132.945     -221.915      -11.472      180.501      155.950       78.832    32580.468    24320.424     6214.480        6.507        3.156      258.690       95.268        0.136      349.170       29.399      859.571
09/14/2014  15:32:00     -112.137     -160.554      -20.325      189.096      132.859       65.381    35757.312    17651.417     4274.704        4.821        2.884      195.838       66.522        0.115      348.847       28.839      859.604
09/14/2014  15:33:00       39.223      -36.237       73.376       94.542      117.723       81.305     8938.129    13858.796     6610.499        1.882        1.470       53.400       76.581        2.057      349.202       29.455      859.552
09/14/2014  15:34:00       50.961     -207.362      -26.417       73.826      140.884       61.803     5450.346    19848.259     3819.591        3.770        1.456      213.532       43.457        0.041      348.985       29.078      859.575
09/14/2014  15:35:00      -96.370     -145.760        0.132      106.885      118.925       60.706    11424.503    14143.058     3685.265        2.989        1.463      174.737       53.848        0.095      349.024       29.147      859.592
09/14/2014  15:36:00      -68.386     -118.438       17.532      123.860       94.766       52.422    15341.253     8980.564     2748.050        2.304        1.353      136.764       50.649        0.137      349.026       29.149      859.554
09/14/2014  15:37:00      -57.665      -21.114       16.101       34.174       36.502       23.536     1167.847     1332.364      553.921        0.354        0.153       61.409       17.525        0.081      349.291       29.612      859.533
09/14/2014  15:38:00       59.049     -266.660      -28.742      134.121      113.910       59.665    17988.529    12975.553     3559.864        5.497        1.726      273.120       38.461        0.020      349.115       29.302      859.548
09/14/2014  15:39:00      -43.773     -244.868       11.761      106.324      137.359       73.746    11304.882    18867.624     5438.486        4.881        1.781      248.750       70.801        0.081      348.954       29.024      859.518
09/14/2014  15:40:00      -20.480     -156.252      -16.360      119.929       94.986       66.860    14382.919     9022.288     4470.237        2.648        1.394      157.589       53.350        0.115      349.318       29.656      859.503
09/14/2014  15:41:00      -49.735     -326.223      -53.475      226.657      174.348       89.893    51373.466    30397.338     8080.701       10.079        4.493      329.992       57.135        0.030      349.086       29.253      859.526
09/14/2014  15:42:00     -186.687     -200.021       -6.699      195.864      153.561       79.371    38362.679    23581.015     6299.721        7.156        3.412      273.607       86.132        0.099      349.096       29.270      859.564
09/14/2014  15:43:00     -180.431     -188.996       14.860      199.826      150.434       81.142    39930.389    22630.482     6583.945        6.881        3.457      261.295       73.115        0.078      349.136       29.339      859.567
09/14/2014  15:44:00     -330.455     -292.487      -12.372      192.520      164.908       96.578    37063.864    27194.549     9327.392       13.423        3.679      441.304       90.580        0.042      348.937       28.995      859.598
09/14/2014  15:45:00     -342.572     -228.162       -6.999      135.925      148.161       70.452    18475.698    21951.714     4963.445       10.742        2.270      411.599       65.745        0.026      348.851       28.846      859.590
09/14/2014  15:46:00     -206.121     -140.089        7.747      138.649      127.417       65.356    19223.554    16235.218     4271.355        5.094        1.987      249.220       71.618        0.083      348.894       28.919      859.592
09/14/2014  15:47:00       -0.443     -174.250        7.418      158.988       95.627       77.598    25277.144     9144.440     6021.401        3.542        2.022      174.251       70.078        0.162      348.865       28.872      859.615
09/14/2014  15:48:00      -64.952     -129.256       17.218      118.196      148.588       66.891    13970.312    22078.455     4474.432        3.087        2.026      144.657       74.894        0.268      348.994       29.094      859.584
09/14/2014  15:49:00      -50.499      -49.390       31.400       44.041       67.808       33.017     1939.610     4597.915     1090.094        0.680        0.381       70.636       24.747        0.123      349.139       29.348      859.560
09/14/2014  15:50:00     -139.286      -50.005        3.844      141.928       77.733       44.219    20143.465     6042.454     1955.294        2.502        1.407      147.990       45.901        0.096      349.142       29.351      859.540
09/14/2014  15:51:00     -176.364     -159.198        2.106      121.875      105.075       59.414    14853.532    11040.763     3529.985        4.293        1.471      237.588       52.053        0.048      349.040       29.172      859.526
09/14/2014  15:52:00     -364.780     -247.654      -21.722      171.974      130.163       86.158    29575.172    16942.461     7423.209       12.440        2.697      440.905       68.981        0.024      348.990       29.087      859.488
09/14/2014  15:53:00     -307.717     -197.066       11.712      199.837      121.406       79.895    39934.967    14739.384     6383.169        9.735        3.053      365.410       90.952        0.062      349.089       29.258      859.495
09/14/2014  15:54:00     -219.410     -113.451        4.553      123.845       79.540       56.968    15337.683     6326.646     3245.354        4.297        1.245      247.006       59.956        0.059      349.199       29.447      859.506
09/14/2014  15:55:00     -132.229     -109.456       -5.514      122.160       65.381       46.163    14923.187     4274.706     2131.044        2.541        1.066      171.654       54.801        0.102      349.341       29.695      859.508
09/14/2014  15:56:00     -174.813     -185.923       17.921      157.609      125.939       86.394    24840.557    15860.520     7463.921        5.680        2.408      255.199       71.689        0.079      349.363       29.732      859.512
09/14/2014  15:57:00     -169.566     -146.571       26.648      143.724      132.991       90.904    20656.678    17686.665     8263.499        4.877        2.330      224.133       80.219        0.128      349.312       29.643      859.502
09/14/2014  15:58:00        3.410     -257.677        4.820      204.274      203.567       97.421    41728.033    41439.695     9490.770        7.953        4.633      257.699       80.287        0.097      349.142       29.349      859.448
09/14/2014  15:59:00     -287.099     -153.488      -22.170      176.309      156.530       75.794    31084.823    24501.576     5744.722        8.389        3.067      325.553       52.237        0.026      349.103       29.282      859.422
09/14/2014  16:00:00      -83.818      -50.622        3.266      128.429       57.466       66.303    16493.894     3302.390     4396.129        1.689        1.210       97.919       61.783        0.398      349.271       29.573      859.505
09/14/2014  16:01:00      -26.561     -110.582        7.229      112.481      127.759       55.667    12651.977    16322.365     3098.865        2.252        1.604      113.728       49.981        0.193      349.151       29.368      859.479
09/14/2014  16:02:00     -168.096     -242.270       -1.437      184.954      117.811       80.388    34208.023    13879.531     6462.222        7.074        2.727      294.875       69.829        0.056      349.166       29.389      859.506
09/14/2014  16:03:00     -183.236     -159.156        4.943      154.594       99.005       62.742    23899.359     9801.999     3936.496        4.828        1.882      242.706       48.016        0.039      349.263       29.558      859.541
09/14/2014  16:04:00     -226.529     -149.238       -1.617      132.063      111.359       58.759    17440.670    12400.925     3452.589        5.344        1.665      271.270       67.856        0.063      349.136       29.340      859.537
09/14/2014  16:05:00     -230.638     -155.606       -2.326      118.253      129.861       66.589    13983.775    16863.878     4434.073        5.634        1.764      278.221       67.930        0.060      349.164       29.386      859.550
09/14/2014  16:06:00     -214.299     -163.014       13.192      213.006      104.413       68.358    45371.540    10902.108     4672.813        6.680        3.047      269.254       87.713        0.106      349.086       29.253      859.555
09/14/2014  16:07:00      -70.929     -102.069       12.783       83.847       93.077       49.686     7030.332     8663.266     2468.672        1.688        0.908      124.294       45.781        0.136      349.293       29.614      859.583
09/14/2014  16:08:00     -283.149     -163.689       -7.281      178.212      144.704       71.379    31759.549    20939.229     5094.985        8.240        2.890      327.059       75.977        0.054      349.081       29.244      859.604
09/14/2014  16:09:00     -279.709     -193.975        3.991      146.081      109.765       73.186    21339.667    12048.400     5356.256        7.731        1.937      340.387       55.140        0.026      348.958       29.030      859.633
09/14/2014  16:10:00     -194.387     -297.146       -0.298      163.553      129.763       65.940    26749.647    16838.317     4348.076        8.700        2.397      355.080       62.412        0.031      348.630       28.463      859.603
09/14/2014  16:11:00     -286.919     -194.064       11.920      166.162      124.820       70.013    27609.794    15580.048     4901.824        8.410        2.405      346.387       83.498        0.058      348.720       28.618      859.597
09/14/2014  16:12:00     -423.940     -242.685       -7.869      161.050      108.942       66.143    25937.003    11868.442     4374.921       14.042        2.109      488.489       59.363        0.015      348.718       28.614      859.587
09/14/2014  16:13:00     -323.976     -188.460       -9.011      197.414      107.073       69.893    38972.154    11464.663     4885.089        9.793        2.766      374.803       70.862        0.036      348.749       28.668      859.574
09/14/2014  16:14:00     -156.945     -119.265       12.867      165.172      102.165       72.733    27281.872    10437.786     5290.142        4.101        2.150      197.119       79.281        0.162      348.929       28.981      859.575
09/14/2014  16:15:00     -133.903     -104.968       17.155      160.957       91.872       76.776    25907.216     8440.548     5894.504        3.474        2.012      170.142       85.876        0.255      349.083       29.247      859.581
09/14/2014  16:16:00     -297.812     -251.745        5.134      227.726      185.979      110.627    51859.228    34588.003    12238.268       12.537        4.934      389.959      127.688        0.107      348.991       29.088      859.539
09/14/2014  16:17:00     -387.389     -278.191      -10.931      214.106      143.719       85.862    45841.454    20655.174     7372.266       15.071        3.693      476.928      100.025        0.044      348.909       28.946      859.537
09/14/2014  16:18:00     -227.083     -219.049      -14.826      145.831      126.158       64.403    21266.710    15915.952     4147.736        7.054        2.067      315.514       67.906        0.046      348.976       29.060      859.553
09/14/2014  16:19:00     -460.575     -283.803      -15.453      158.314      144.509       81.225    25063.308    20882.866     6597.562       17.272        2.627      540.993       86.216        0.025      348.859       28.859      859.549
09/14/2014  16:20:00     -324.316     -250.351       -6.186      186.187      151.506       88.813    34665.678    22953.964     7887.778       11.669        3.275      409.702      107.325        0.069      348.936       28.991      859.548
09/14/2014  16:21:00     -234.452     -199.178       13.689      186.676      112.238       67.129    34848.011    12597.352     4506.241        7.338        2.598      307.636       71.148        0.053      349.021       29.140      859.586
09/14/2014  16:22:00     -220.602     -201.812      -18.330       74.709      121.742       54.482     5581.374    14821.154     2968.324        5.655        1.169      298.987       33.753        0.013      349.022       29.139      859.587
09/14/2014  16:23:00     -193.617     -156.621        3.465      136.564      125.173       61.123    18649.696    15668.274     3736.081        5.004        1.903      249.034       56.892        0.052      349.076       29.235      859.559
09/14/2014  16:24:00     -177.062      -76.116       12.823      181.967      119.115       74.607    33112.065    14188.409     5566.247        4.508        2.643      192.730       80.426        0.174      348.973       29.058      859.502
09/14/2014  16:25:00     -381.522     -187.730      -15.324      268.620      128.019       82.092    72156.707    16388.969     6739.111       13.814        4.764      425.208      106.565        0.063      348.933       28.988      859.509
09/14/2014  16:26:00     -339.215     -124.973       -0.407      171.240      141.774       76.472    29323.191    20099.852     5847.930        9.297        2.764      361.504       79.222        0.048      348.899       28.928      859.528
09/14/2014  16:27:00     -522.374     -189.053      -28.209      247.852      228.873      107.279    61430.677    52383.063    11508.774       21.735        6.266      555.532      122.765        0.049      348.837       28.821      859.491
09/14/2014  16:28:00     -446.039     -218.415      -15.044      183.870      162.804       91.501    33808.212    26505.155     8372.371       15.777        3.434      496.645       97.605        0.039      348.880       28.894      859.552
09/14/2014  16:29:00     -271.375     -174.514       13.501      231.412      154.073       76.267    53551.394    23738.435     5816.617        9.368        4.155      322.644       91.956        0.081      348.983       29.074      859.582
09/14/2014  16:30:00     -356.303     -272.846      -41.721      149.904      123.604       74.661    22471.070    15277.939     5574.261       12.322        2.166      448.772       69.631        0.024      348.864       28.869      859.620
09/14/2014  16:31:00     -387.897     -239.460        0.361      202.579      146.827       90.659    41038.067    21558.227     8219.001       13.930        3.541      455.856       94.232        0.043      348.799       28.754      859.618
09/14/2014  16:32:00     -545.917     -346.567      -21.470      256.911      213.601      110.548    66003.298    45625.516    12220.874       27.120        6.192      646.633      120.973        0.035      348.599       28.409      859.583
09/14/2014  16:33:00     -482.442     -355.306      -17.680      211.554      167.964      112.923    44754.927    28211.959    12751.540       22.250        4.286      599.160      111.243        0.034      348.625       28.455      859.623
09/14/2014  16:34:00     -427.506     -282.061        4.557      201.384      199.446      105.884    40555.444    39778.622    11211.425       17.693        4.577      512.172      120.492        0.055      348.616       28.438      859.637
09/14/2014  16:35:00     -336.587     -252.329        4.710      180.410      142.348       91.764    32547.816    20262.843     8420.690       11.910        3.062      420.667       90.808        0.047      348.632       28.466      859.649
09/14/2014  16:36:00     -179.828     -153.381        8.418      129.102      126.803       71.612    16667.394    16079.038     5128.241        4.690        1.894      236.356       66.644        0.080      348.747       28.666      859.630
09/14/2014  16:37:00     -282.459     -153.954       10.530      174.443      132.131       57.278    30430.402    17458.569     3280.736        7.737        2.558      321.691       63.243        0.039      348.810       28.775      859.626
09/14/2014  16:38:00     -288.295     -114.469       -2.857      147.332      110.628       69.745    21706.830    12238.582     4864.299        6.751        1.940      310.189       79.933        0.066      348.868       28.875      859.676
09/14/2014  16:39:00     -214.618     -104.181       22.574      234.917      135.985       91.901    55186.230    18491.864     8445.842        6.976        4.106      238.568      111.163        0.217      348.807       28.772      859.680
09/14/2014  16:40:00     -242.146     -186.548      -12.288      116.008      129.729       66.514    13457.823    16829.674     4424.129        6.414        1.736      305.671       67.694        0.049      348.673       28.538      859.692
09/14/2014  16:41:00     -275.703     -215.950       -7.092      132.416       91.861       61.223    17534.064     8438.352     3748.213        7.620        1.486      350.209       55.552        0.025      348.641       28.483      859.696
09/14/2014  16:42:00     -257.633     -206.088        2.241      170.015      151.369       78.166    28905.128    22912.680     6109.908        8.338        2.896      329.919       90.364        0.075      348.683       28.555      859.716
09/14/2014  16:43:00     -285.600     -152.287        3.492      143.653      141.019       76.757    20636.158    19886.320     5891.609        7.558        2.321      323.664       81.357        0.063      348.663       28.520      859.721
09/14/2014  16:44:00     -330.200     -158.704       -6.197      210.504      156.889       75.108    44312.026    24614.160     5641.210       10.440        3.728      366.359       94.963        0.067      348.639       28.478      859.704
09/14/2014  16:45:00     -501.598     -280.092       -7.551      277.374      185.722      100.360    76936.251    34492.828    10072.165       22.578        6.075      574.501      107.315        0.035      348.456       28.162      859.700
09/14/2014  16:46:00     -569.320     -297.133      -35.127      294.389      275.984      114.239    86664.872    76166.924    13050.480       29.474        8.794      642.194      147.356        0.053      348.354       27.987      859.698
09/14/2014  16:47:00     -398.032     -323.966      -14.138      241.480      188.320      118.850    58312.719    35464.431    14125.305       18.572        5.395      513.209      134.045        0.068      348.357       27.989      859.717
09/14/2014  16:48:00     -523.478     -332.412      -30.304      196.381      184.809       97.578    38565.379    34154.536     9521.475       23.383        4.112      620.103       85.622        0.019      348.301       27.894      859.750
09/14/2014  16:49:00     -354.335     -203.587      -13.329      186.501      118.567       80.072    34782.486    14058.042     6411.498       11.121        2.763      408.658      100.250        0.060      348.291       27.875      859.748
09/14/2014  16:50:00     -498.135     -200.870        5.747      347.408      287.359      138.916   120692.515    82575.135    19297.639       25.551       11.128      537.110      149.952        0.078      348.251       27.806      859.678
09/14/2014  16:51:00     -557.502     -187.819      -27.762      236.839      211.478      108.932    56092.710    44722.965    11866.216       22.975        5.634      588.289      122.497        0.043      348.230       27.771      859.727
09/14/2014  16:52:00     -390.238     -281.126       -6.935      245.626      259.851      119.807    60331.894    67522.295    14353.727       18.676        7.110      480.955      129.347        0.072      348.210       27.735      859.753
09/14/2014  16:53:00     -482.440     -229.853       -7.287      250.579      219.832      128.483    62789.799    48326.119    16507.844       20.661        6.381      534.397      141.545        0.070      348.197       27.715      859.762
09/14/2014  16:54:00     -351.371     -151.833       -4.944      154.735      160.991       83.110    23942.801    25918.103     6907.211       10.164        2.838      382.773       86.007        0.050      348.212       27.741      859.840
09/14/2014  16:55:00     -346.948     -214.356      -25.393      185.222      181.873       97.919    34307.117    33077.754     9588.072       12.196        3.849      407.825       98.782        0.059      348.211       27.737      859.830
09/14/2014  16:56:00     -373.451     -136.090      -18.232      170.668      117.743       77.866    29127.479    13863.314     6063.154       10.368        2.453      397.474       84.657        0.045      348.203       27.724      859.861
09/14/2014  16:57:00     -430.927     -135.882      -13.988      197.351      173.025       88.582    38947.593    29937.600     7846.785       14.053        3.837      451.843       95.530        0.045      348.160       27.649      859.861
09/14/2014  16:58:00     -335.985     -121.253       -0.567      210.243      176.331       99.472    44202.237    31092.645     9894.712       10.637        4.259      357.195      100.477        0.079      348.162       27.654      859.909
09/14/2014  16:59:00     -409.554     -210.515      -20.412      219.160      158.872       90.334    48030.958    25240.392     8160.143       14.694        4.072      460.490       86.855        0.036      348.159       27.649      859.892
09/14/2014  17:00:00     -288.807     -147.494      -17.306      146.427      149.079       73.571    21440.915    22224.547     5412.633        7.726        2.454      324.290       71.637        0.049      348.168       27.663      859.903
09/14/2014  17:01:00     -521.160     -212.655      -10.186      273.229      226.946      107.474    74653.988    51504.345    11550.572       22.730        6.885      562.877      127.672        0.051      348.104       27.553      859.894
09/14/2014  17:02:00     -287.831     -149.499       13.703      182.605      164.042       99.451    33344.504    26909.821     9890.409        8.775        3.507      324.341      101.003        0.097      348.111       27.564      859.923
09/14/2014  17:03:00     -483.016     -340.649       -7.160      212.915      175.979      112.834    45332.667    30968.702    12731.501       21.920        4.452      591.055      122.898        0.043      348.034       27.432      859.915
09/14/2014  17:04:00     -236.538     -175.584       14.100      206.818      156.615       78.152    42773.882    24528.232     6107.807        8.018        3.670      294.584       95.004        0.104      348.058       27.474      859.951
09/14/2014  17:05:00     -324.380     -159.669       -4.577      230.524      160.956      100.283    53141.502    25906.804    10056.724       10.991        4.455      361.547      130.020        0.129      348.013       27.396      859.964
09/14/2014  17:06:00     -432.146     -252.543      -13.954      243.091      230.188      112.902    59093.405    52986.743    12746.780       18.775        6.241      500.528      136.537        0.074      347.952       27.291      859.955
09/14/2014  17:07:00     -628.236     -280.740      -12.307      330.020      222.017      103.549   108913.084    49291.527    10722.441       32.126        8.446      688.110      140.085        0.041      347.916       27.229      859.962
09/14/2014  17:08:00     -458.430      -99.110       -1.807      219.054      177.267      101.690    47984.632    31423.750    10340.835       15.485        4.487      469.022      103.525        0.049      347.926       27.245      859.984
09/14/2014  17:09:00     -396.369     -151.592       -2.434      205.691      189.194      104.416    42308.791    35794.472    10902.719       13.454        4.450      424.368      106.086        0.062      347.921       27.237      859.996
09/14/2014  17:10:00     -609.104     -389.360      -31.102      299.333      273.754      127.707    89600.131    74941.015    16309.103       35.218        9.043      722.917      134.436        0.035      347.871       27.149      859.982
09/14/2014  17:11:00     -481.766     -264.193      -12.474      251.984      179.002      111.073    63495.947    32041.611    12337.248       20.495        5.394      549.451      126.303        0.053      347.877       27.161      860.006
09/14/2014  17:12:00     -484.783     -222.629      -21.161      250.510      164.542      110.677    62755.159    27073.990    12249.337       19.354        5.104      533.459      120.964        0.051      347.859       27.130      860.034
09/14/2014  17:13:00     -503.954     -304.182      -24.941      242.558      181.203      103.524    58834.421    32834.399    10717.251       22.474        5.119      588.640      105.352        0.032      347.818       27.058      860.022
09/14/2014  17:14:00     -544.666     -241.022      -19.648      260.061      197.609      114.073    67631.581    39049.169    13012.536       23.740        5.985      595.611      125.264        0.044      347.792       27.016      860.037
09/14/2014  17:15:00     -493.344     -155.818      -10.556      270.256      211.140      102.938    73038.174    44580.284    10596.192       19.798        6.411      517.366      119.065        0.053      347.806       27.039      860.034
09/14/2014  17:16:00     -392.771     -245.595      -28.464      184.723      171.639       87.087    34122.527    29460.036     7584.217       14.327        3.558      463.234       71.417        0.024      347.794       27.019      860.048
09/14/2014  17:17:00     -387.661     -156.376       -6.456      170.807      124.647       75.073    29174.861    15536.878     5635.905       11.255        2.517      418.013       83.297        0.040      347.807       27.039      860.073
09/14/2014  17:18:00     -352.113     -252.417       -3.942      192.998      151.300       89.531    37248.196    22891.801     8015.803       12.792        3.408      433.241       97.675        0.051      347.830       27.078      860.062
09/14/2014  17:19:00     -414.895     -228.183       -8.357      203.856      184.748       93.262    41557.450    34131.909     8697.732       15.432        4.219      473.503      111.783        0.056      347.808       27.041      860.083
09/14/2014  17:20:00     -286.048     -208.344       16.211      256.423      174.112       99.500    65752.890    30314.977     9900.295       11.571        5.298      353.879      120.583        0.116      347.806       27.040      860.087
09/14/2014  17:21:00     -358.168     -237.186      -23.883      197.015      148.041       85.101    38814.827    21916.069     7242.192       12.653        3.399      429.583       81.075        0.036      347.805       27.037      860.077
09/14/2014  17:22:00     -432.560     -160.359      -29.286      212.069      174.361       81.947    44973.089    30401.918     6715.319       14.787        4.105      461.328       79.309        0.030      347.771       26.979      860.100
09/14/2014  17:23:00     -346.236      -93.520        5.324      163.976      149.104       76.223    26888.126    22232.076     5810.018        9.178        2.747      358.644       78.155        0.047      347.817       27.055      860.119
09/14/2014  17:24:00     -348.994     -168.237       -9.326      173.873      178.447       90.638    30231.816    31843.269     8215.215       11.023        3.515      387.428       73.979        0.036      347.776       26.987      860.126
09/14/2014  17:25:00     -324.010     -169.194      -22.211      200.462      173.733       66.200    40184.883    30183.304     4382.405       10.441        3.738      365.526       72.670        0.040      347.772       26.981      860.123
09/14/2014  17:26:00     -386.817     -166.885      -13.205      286.197      188.911       90.281    81908.781    35687.235     8150.716       15.168        6.287      421.281      120.274        0.082      347.755       26.952      860.110
09/14/2014  17:27:00     -318.656     -175.639      -14.812      182.976      159.316       82.716    33480.293    25381.576     6841.960        9.915        3.285      363.855       87.146        0.057      347.764       26.968      860.139
09/14/2014  17:28:00     -275.957     -230.295      -15.885      198.001      133.810       96.289    39204.208    17905.041     9271.536        9.790        3.319      359.427      101.215        0.079      347.760       26.960      860.138
09/14/2014  17:29:00     -375.591     -186.593       -0.073      193.696      162.525       85.289    37518.323    26414.464     7274.238       12.353        3.560      419.387       87.918        0.044      347.763       26.966      860.159
09/14/2014  17:30:00     -547.047     -348.102      -13.557      261.250      195.973      119.636    68251.315    38405.605    14312.888       27.077        6.048      648.410      134.376        0.043      347.731       26.910      860.153
09/14/2014  17:31:00     -321.429     -226.135      -11.194      239.608      158.530      106.465    57411.777    25131.745    11334.767       12.421        4.694      393.006      114.584        0.085      347.746       26.936      860.194
09/14/2014  17:32:00     -346.253     -174.866       18.060      186.999      163.412      102.227    34968.572    26703.446    10450.426       11.145        3.606      387.904      112.531        0.084      347.731       26.909      860.212
09/14/2014  17:33:00     -378.227     -254.011      -31.985      243.916      187.480       93.899    59495.048    35148.640     8816.971       15.601        5.173      455.607      114.142        0.063      347.731       26.908      860.189
09/14/2014  17:34:00     -309.759      -94.643       13.166      183.701      149.800       80.584    33746.144    22440.131     6493.742        8.387        3.134      323.895       93.275        0.083      347.721       26.892      860.224
09/14/2014  17:35:00     -372.225      -78.258       -2.985      228.645      214.916       84.315    52278.511    46189.053     7108.999       12.511        5.279      380.363       77.606        0.042      347.718       26.888      860.201
09/14/2014  17:36:00     -492.619     -127.774      -18.336      226.051      170.379       95.159    51099.031    29029.152     9055.187       17.424        4.459      508.920      108.329        0.045      347.713       26.879      860.173
09/14/2014  17:37:00     -412.432     -179.716      -14.979      144.753      139.584       69.286    20953.447    19483.670     4800.503       12.392        2.262      449.887       73.766        0.027      347.718       26.886      860.206
09/14/2014  17:38:00     -291.137     -136.073      -12.285      170.591      155.361       87.916    29101.157    24137.195     7729.174        8.219        3.048      321.367       80.603        0.063      347.706       26.865      860.211
09/14/2014  17:39:00     -224.337     -120.142       -3.406      173.751      160.965       83.636    30189.574    25909.686     6995.002        6.392        3.155      254.483      104.846        0.170      347.731       26.908      860.213
09/14/2014  17:40:00     -330.418     -214.797       -6.001      156.156      144.464       68.250    24384.701    20869.715     4658.064       10.262        2.496      394.099       72.473        0.034      347.716       26.884      860.255
09/14/2014  17:41:00     -413.016     -246.500      -20.877      208.223      169.960       98.643    43356.633    28886.403     9730.401       15.686        4.099      480.983      107.203        0.050      347.717       26.884      860.254
09/14/2014  17:42:00     -341.245     -178.853      -17.855      192.586      138.848       81.553    37089.421    19278.807     6650.922       10.588        3.151      385.275       90.534        0.055      347.737       26.919      860.266
09/14/2014  17:43:00     -392.259     -140.138       12.843      235.327      171.282       99.162    55378.886    29337.423     9833.186       13.409        4.727      416.540      117.976        0.080      347.714       26.880      860.250
09/14/2014  17:44:00     -494.243     -220.429      -29.342      239.023      158.024       88.284    57132.178    24971.660     7794.048       19.180        4.495      541.170      104.682        0.037      347.715       26.881      860.238
09/14/2014  17:45:00     -432.508     -116.642        0.785      219.219      139.024       91.503    48057.188    19327.657     8372.826       13.820        3.788      447.960       97.981        0.048      347.702       26.859      860.239
09/14/2014  17:46:00     -518.358     -257.021       -8.787      195.417      170.313       99.494    38187.953    29006.622     9899.052       20.595        3.855      578.581       98.691        0.029      347.708       26.870      860.277
09/14/2014  17:47:00     -458.571     -147.339       -8.723      185.673      188.936       99.271    34474.308    35696.715     9854.823       15.604        4.001      481.660       98.008        0.041      347.716       26.882      860.319
09/14/2014  17:48:00     -240.323      -91.276       -0.250      148.914      102.969       59.881    22175.377    10602.542     3585.690        5.122        1.818      257.073       62.211        0.059      347.710       26.872      860.347
09/14/2014  17:49:00     -369.327      -70.945        9.481      197.967      106.638       73.722    39190.817    11371.753     5434.864        9.875        2.800      376.079       79.654        0.045      347.721       26.892      860.335
09/14/2014  17:50:00     -363.418     -259.978       -4.882      215.722      155.299       83.108    46536.044    24117.883     6907.014       13.861        3.878      446.835      105.767        0.056      347.706       26.865      860.367
09/14/2014  17:51:00     -404.313     -299.683       -9.116      171.736      135.234       95.167    29493.087    18288.311     9056.709       15.509        2.842      503.268       94.668        0.035      347.689       26.836      860.350
09/14/2014  17:52:00     -203.981     -101.808       12.977      187.804      142.434       84.547    35270.518    20287.580     7148.220        5.741        3.135      227.976       88.523        0.151      347.691       26.840      860.367
09/14/2014  17:53:00     -382.957     -231.006        4.402      236.856      182.989      101.164    56100.854    33484.974    10234.158       14.991        4.991      447.236      107.628        0.058      347.691       26.841      860.332
09/14/2014  17:54:00     -373.087     -310.371       -2.941      210.199      190.609       89.808    44183.630    36331.787     8065.436       16.204        4.429      485.308      112.648        0.054      347.697       26.851      860.345
09/14/2014  17:55:00     -388.859     -258.163      -21.520      123.767      125.492       78.958    15318.223    15748.240     6234.294       12.781        1.865      466.755       78.247        0.028      347.691       26.839      860.361
09/14/2014  17:56:00     -254.508     -181.472       -9.077      101.396       91.030       55.269    10281.060     8286.537     3054.686        5.970        1.081      312.581       51.754        0.027      347.672       26.807      860.351
09/14/2014  17:57:00     -175.909      -65.401        2.626      127.151       90.413       56.078    16167.424     8174.524     3144.729        3.135        1.374      187.674       59.308        0.100      347.697       26.853      860.360
09/14/2014  17:58:00     -149.268     -132.055        3.737      100.391       92.986       53.019    10078.452     8646.348     2810.996        3.063        1.077      199.298       52.470        0.069      347.665       26.796      860.368
09/14/2014  17:59:00      -76.575     -107.509       16.039      117.802       78.303       60.515    13877.212     6131.314     3662.017        2.067        1.184      131.992       66.932        0.257      347.643       26.759      860.346
09/14/2014  18:00:00     -281.502     -126.447       -2.197      143.935      106.061       58.305    20717.185    11248.877     3399.494        6.530        1.768      308.597       64.425        0.044      347.664       26.794      860.305
09/14/2014  18:01:00     -225.389      -65.656        3.897      111.923      125.698       66.063    12526.666    15799.937     4364.378        4.390        1.635      234.757       63.191        0.072      347.645       26.761      860.282
09/14/2014  18:02:00     -261.364      -69.685        2.028      140.478       89.379       55.808    19734.206     7988.526     3114.495        5.200        1.542      270.495       68.235        0.064      347.640       26.753      860.291
09/14/2014  18:03:00     -319.025     -114.732        0.822      125.380      109.271       59.161    15720.147    11940.191     3499.988        7.305        1.558      339.029       63.140        0.035      347.661       26.786      860.294
09/14/2014  18:04:00     -191.763      -94.808        1.696      141.933       92.715       48.796    20144.937     8596.032     2381.081        3.844        1.556      213.919       66.931        0.098      347.673       26.810      860.312
09/14/2014  18:05:00     -194.907     -112.560      -14.576      106.557       70.903       44.613    11354.383     5027.226     1990.340        3.462        0.919      225.074       36.730        0.027      347.697       26.850      860.310
09/14/2014  18:06:00     -167.572      -73.490        4.949      113.494       66.854       46.813    12880.903     4469.423     2191.424        2.652        0.977      182.979       48.287        0.070      347.683       26.827      860.296
09/14/2014  18:07:00     -363.553     -193.528      -22.192      133.224      106.186       53.545    17748.671    11275.383     2867.072       10.100        1.595      411.854       46.729        0.013      347.677       26.815      860.282
09/14/2014  18:08:00     -269.564     -155.252       -3.074      172.041      124.243       66.950    29598.188    15436.205     4482.279        7.314        2.476      311.075       74.224        0.057      347.671       26.804      860.290
09/14/2014  18:09:00     -286.377     -109.604        1.575      125.689      114.374       55.047    15797.709    13081.333     3030.135        6.296        1.595      306.634       49.912        0.026      347.678       26.819      860.312
09/14/2014  18:10:00     -250.843      -94.037       -6.442       99.063      114.453       62.090     9813.540    13099.395     3855.218        4.928        1.338      267.890       50.143        0.035      347.676       26.815      860.308
09/14/2014  18:11:00     -136.610      -57.321        1.709       65.269       74.210       39.530     4260.023     5507.094     1562.633        1.664        0.566      148.149       37.393        0.064      347.667       26.802      860.313
09/14/2014  18:12:00     -205.680      -73.906        8.120      112.279       74.562       48.042    12606.531     5559.561     2308.074        3.415        1.024      218.555       53.438        0.060      347.669       26.804      860.296
09/14/2014  18:13:00     -126.934     -103.234       13.624       87.317       96.029       50.449     7624.309     9221.566     2545.053        2.317        0.970      163.614       45.252        0.076      347.676       26.815      860.293
09/14/2014  18:14:00     -156.570      -64.917       -3.527       90.332       81.334       40.980     8159.841     6615.195     1679.348        2.259        0.823      169.495       41.287        0.059      347.691       26.841      860.269
09/14/2014  18:15:00     -258.409     -103.906      -12.249      160.691      111.124       62.399    25821.561    12348.520     3893.601        5.989        2.103      278.517       82.503        0.088      347.686       26.832      860.249
09/14/2014  18:16:00     -332.808     -125.837       -8.462       95.699      100.293       60.485     9158.286    10058.636     3658.389        7.477        1.144      355.804       50.526        0.020      347.673       26.807      860.242
09/14/2014  18:17:00     -143.820      -54.852        9.368      122.467       76.970       41.311    14998.208     5924.318     1706.560        2.320        1.131      153.925       40.405        0.069      347.673       26.812      860.233
09/14/2014  18:18:00      -93.340      -56.135        8.046       69.651       76.280       43.843     4851.321     5818.591     1922.216        1.226        0.630      108.920       42.819        0.155      347.663       26.796      860.227
09/14/2014  18:19:00     -211.403      -23.689       12.780      119.757       97.970       54.318    14341.636     9598.143     2950.488        3.615        1.345      212.726       48.203        0.051      347.670       26.804      860.236
09/14/2014  18:20:00     -183.857      -72.556        3.508      128.375       78.519       52.058    16480.062     6165.168     2710.043        3.221        1.268      197.655       67.986        0.118      347.668       26.802      860.233
09/14/2014  18:21:00     -201.920     -100.417      -12.358      106.483       90.675       44.554    11338.560     8222.024     1985.065        3.627        1.077      225.511       50.162        0.049      347.663       26.791      860.226
09/14/2014  18:22:00     -202.674     -137.732       -1.650      143.248      114.874       66.368    20519.860    13195.986     4404.699        4.908        1.906      245.045       64.307        0.069      347.656       26.779      860.209
09/14/2014  18:23:00     -198.378     -131.225       -3.303      132.037      100.531       69.456    17433.745    10106.453     4824.142        4.447        1.618      237.852       56.122        0.056      347.673       26.809      860.200
09/14/2014  18:24:00     -167.223      -74.137        9.287      109.221       81.393       56.806    11929.253     6624.862     3226.910        2.766        1.089      182.920       65.261        0.127      347.652       26.774      860.208
09/14/2014  18:25:00     -251.643     -106.377      -10.367      142.225      108.207       58.539    20228.003    11708.848     3426.828        5.505        1.768      273.204       64.245        0.055      347.643       26.758      860.197
09/14/2014  18:26:00     -236.524      -95.023       -4.418      130.151      113.410       71.903    16939.398    12861.825     5170.095        4.998        1.749      254.898       78.552        0.095      347.642       26.755      860.189
09/14/2014  18:27:00     -232.150     -135.603      -19.000       99.526       69.361       52.716     9905.450     4810.979     2778.978        4.507        0.875      268.853       49.581        0.034      347.646       26.764      860.179
09/14/2014  18:28:00     -113.589      -52.952        8.478      124.033       86.081       46.104    15384.298     7409.855     2125.618        2.034        1.246      125.325       55.268        0.194      347.617       26.715      860.173
09/14/2014  18:29:00     -208.260     -132.152        0.863      118.083      102.443       47.554    13943.610    10494.670     2261.348        4.376        1.335      246.650       48.095        0.038      347.592       26.671      860.178
09/14/2014  18:30:00     -119.219      -95.004        7.055       92.052       94.593       64.678     8473.579     8947.812     4183.254        2.244        1.080      152.443       62.295        0.167      347.571       26.634      860.176
09/14/2014  18:31:00     -186.070      -83.153       -6.121      107.995       94.036       54.247    11662.960     8842.686     2942.692        3.251        1.172      203.805       60.196        0.087      347.597       26.681      860.160
09/14/2014  18:32:00     -291.060      -72.008      -19.313      103.975       72.258       47.530    10810.808     5221.190     2259.079        5.428        0.915      299.835       47.258        0.025      347.609       26.700      860.153
09/14/2014  18:33:00     -182.992      -62.542        6.949       84.066       78.667       48.691     7067.033     6188.433     2370.772        2.653        0.781      193.385       48.921        0.064      347.562       26.619      860.153
09/14/2014  18:34:00     -260.849      -59.474      -12.757      100.188       91.301       45.315    10037.731     8335.950     2053.479        4.608        1.021      267.543       46.443        0.030      347.581       26.650      860.148
09/14/2014  18:35:00     -214.830     -198.729        4.865      134.654      132.161       77.586    18131.727    17466.601     6019.656        6.364        2.081      292.652       79.331        0.073      347.580       26.649      860.143
09/14/2014  18:36:00     -326.457     -200.839       -7.190      210.728      153.802       92.624    44406.357    23655.131     8579.161       11.179        3.832      383.289      101.553        0.070      347.603       26.688      860.105
09/14/2014  18:37:00     -268.495     -206.939       -8.019      176.042      168.064       73.420    30990.648    28245.601     5390.536        8.979        3.231      338.989       87.290        0.066      347.609       26.700      860.116
09/14/2014  18:38:00     -229.244     -148.236       -9.847      138.798      104.967       71.819    19264.891    11018.084     5158.039        5.503        1.772      272.996       76.782        0.079      347.598       26.681      860.129
09/14/2014  18:39:00     -189.401      -59.438        3.767      119.491       73.596       53.776    14278.065     5416.417     2891.827        3.100        1.129      198.509       59.453        0.090      347.561       26.618      860.142
09/14/2014  18:40:00     -205.901      -12.607       -4.486       98.921       68.807       48.159     9785.347     4734.396     2319.260        2.970        0.842      206.287       50.688        0.060      347.524       26.552      860.151
09/14/2014  18:41:00     -206.632      -15.759       -7.759      115.392       93.317       48.201    13315.212     8708.065     2323.366        3.367        1.217      207.232       61.786        0.089      347.502       26.515      860.136
09/14/2014  18:42:00     -250.752      -21.758      -19.439      111.546       96.678       50.414    12442.449     9346.687     2541.620        4.403        1.217      251.694       49.948        0.039      347.547       26.592      860.146
09/14/2014  18:43:00     -220.488      -54.331       -8.278       59.522       83.347       42.194     3542.875     6946.650     1780.361        3.195        0.613      227.083       32.512        0.020      347.462       26.445      860.138
09/14/2014  18:44:00     -192.878      -57.990       -2.004       93.267       88.696       54.641     8698.768     7866.980     2985.685        3.006        0.978      201.407       54.487        0.073      347.482       26.480      860.114
09/14/2014  18:45:00     -391.080      -48.876      -18.349      143.509      117.941       65.083    20594.859    13910.174     4235.850        9.720        1.937      394.123       64.459        0.027      347.523       26.552      860.099
09/14/2014  18:46:00     -307.235      -61.476       -5.450      132.556      103.522       66.403    17571.142    10716.872     4409.396        6.544        1.635      313.325       68.367        0.048      347.499       26.508      860.082
09/14/2014  18:47:00     -212.255      -57.262       -1.754      144.222       93.433       54.890    20799.890     8729.802     3012.862        4.043        1.627      219.844       67.378        0.094      347.472       26.463      860.056
09/14/2014  18:48:00     -291.803     -148.287       -3.827      106.456      109.069       62.829    11332.983    11896.106     3947.442        6.716        1.359      327.319       51.466        0.025      347.457       26.435      860.043
09/14/2014  18:49:00     -259.111     -112.280       -0.704      124.128      129.963       68.255    15407.860    16890.303     4658.759        5.835        1.848      282.392       64.942        0.053      347.458       26.437      860.032
09/14/2014  18:50:00     -256.278     -131.247        8.609      211.607      118.067       83.117    44777.339    13939.764     6908.433        7.429        3.281      287.931       95.770        0.111      347.451       26.425      860.030
09/14/2014  18:51:00     -279.418      -28.937      -15.833      147.183       89.922       54.422    21662.805     8086.011     2961.733        5.593        1.636      280.913       52.928        0.036      347.436       26.398      860.028
09/14/2014  18:52:00     -265.144      -23.986       -0.530      130.499      106.572       58.432    17029.885    11357.516     3414.337        5.133        1.590      266.227       50.191        0.036      347.400       26.338      860.032
09/14/2014  18:53:00     -369.653      -79.644       -3.746      226.947      154.315       79.388    51504.935    23813.061     6302.457       11.230        4.081      378.135       97.116        0.066      347.404       26.346      860.004
09/14/2014  18:54:00     -218.573      -62.814        3.904       99.089       82.678       47.000     9818.620     6835.574     2208.974        3.530        0.943      227.420       40.286        0.031      347.369       26.285      860.006
09/14/2014  18:55:00     -381.166      -65.694      -12.700      124.666       88.906       53.440    15541.662     7904.364     2855.817        8.803        1.315      386.786       56.305        0.021      347.399       26.335      860.016
09/14/2014  18:56:00     -284.676      -53.204       -5.232      109.175       89.597       55.691    11919.176     8027.576     3101.515        5.347        1.152      289.605       57.169        0.039      347.361       26.273      860.014
09/14/2014  18:57:00     -320.827      -79.013      -24.079      105.910       71.099       50.449    11216.852     5055.074     2545.111        6.428        0.941      330.413       51.199        0.024      347.350       26.253      860.008
09/14/2014  18:58:00     -269.290      -86.920       -1.042      100.856       76.532       48.504    10171.905     5857.148     2352.602        4.922        0.919      282.970       47.110        0.028      347.316       26.192      860.007
09/14/2014  18:59:00     -370.278     -101.252      -25.437      135.432      115.914       58.215    18341.934    13436.043     3388.954        9.158        1.758      383.872       55.064        0.021      347.346       26.245      859.995
09/14/2014  19:00:00     -280.933     -105.383      -10.895      191.888      142.399       62.889    36821.140    20277.481     3955.073        7.559        3.053      300.049       71.640        0.057      347.340       26.234      859.981
09/14/2014  19:01:00     -303.978      -48.077      -10.931      107.997       96.291       54.262    11663.322     9272.005     2944.407        5.935        1.194      307.756       53.963        0.031      347.319       26.199      860.004
09/14/2014  19:02:00     -189.309      -60.619       -6.686      131.336       93.967       47.382    17249.078     8829.755     2245.066        3.394        1.416      198.778       48.159        0.059      347.304       26.174      859.999
09/14/2014  19:03:00     -223.031      -23.245      -10.700      111.944       74.183       47.082    12531.545     5503.109     2216.751        3.532        1.013      224.239       50.706        0.051      347.236       26.056      859.998
09/14/2014  19:04:00     -270.446      -19.733       -8.400      121.201       77.569       55.646    14689.774     6016.934     3096.492        4.870        1.190      271.165       60.610        0.050      347.229       26.044      860.004
09/14/2014  19:05:00     -287.880     -134.781       -9.539      119.173      119.590       56.291    14202.319    14301.729     3168.691        6.640        1.584      317.869       59.134        0.035      347.255       26.089      859.988
09/14/2014  19:06:00     -279.540      -97.621       -1.007      191.654      116.355       74.768    36731.185    13538.404     5590.315        7.176        2.793      296.095       99.260        0.112      347.249       26.078      859.970
09/14/2014  19:07:00     -361.114      -34.197      -13.480      148.976       73.309       60.278    22193.987     5374.258     3633.439        8.147        1.560      362.730       67.427        0.035      347.243       26.067      859.973
09/14/2014  19:08:00     -216.531      -40.684       -2.416      107.036      104.935       55.850    11456.689    11011.357     3119.258        3.706        1.279      220.320       47.529        0.047      347.212       26.014      859.978
09/14/2014  19:09:00     -253.315      -83.348      -15.931       96.038      100.618       53.465     9223.240    10123.985     2858.532        4.678        1.110      266.675       43.684        0.027      347.204       26.000      859.969
09/14/2014  19:10:00     -240.382      -37.296       -9.021      124.895       97.020       70.927    15598.689     9412.807     5030.680        4.464        1.502      243.258       63.563        0.068      347.225       26.037      859.954
09/14/2014  19:11:00     -306.953      -63.423      -15.459      110.417      116.453       58.290    12191.979    13561.314     3397.716        6.381        1.458      313.437       57.085        0.033      347.258       26.094      859.958
09/14/2014  19:12:00     -187.033      -54.417      -11.975      118.161       92.274       53.719    13962.051     8514.417     2885.704        3.172        1.268      194.788       49.484        0.065      347.174       25.950      859.952
09/14/2014  19:13:00     -185.023      -38.298       -0.209       84.741       65.855       46.967     7181.023     4336.868     2205.936        2.471        0.686      188.945       41.707        0.049      347.163       25.930      859.961
09/14/2014  19:14:00     -277.899      -88.779       -1.291      129.554       89.648       68.052    16784.239     8036.717     4631.050        5.728        1.473      291.735       74.056        0.064      347.185       25.967      859.978
09/14/2014  19:15:00     -257.459      -43.254      -15.751      149.152       79.188       53.223    22246.415     6270.769     2832.648        4.987        1.567      261.067       53.264        0.042      347.212       26.015      859.971
09/14/2014  19:16:00     -304.791      -39.392       -8.160      125.171       97.177       60.518    15667.763     9443.325     3662.443        6.164        1.439      307.326       67.262        0.048      347.183       25.965      859.980
09/14/2014  19:17:00     -290.785      -52.591      -13.115      120.755       79.396       55.234    14581.757     6303.794     3050.781        5.571        1.197      295.503       55.570        0.035      347.170       25.943      859.976
09/14/2014  19:18:00     -183.703      -21.614       -4.104       89.565       62.873       38.532     8021.826     3952.968     1484.698        2.384        0.673      184.970       36.140        0.038      347.139       25.889      859.976
09/14/2014  19:19:00     -115.862      -23.711       -2.582      106.231       71.382       43.250    11285.113     5095.405     1870.526        1.612        0.913      118.263       46.191        0.153      347.116       25.851      859.966
09/14/2014  19:20:00     -119.976      -26.562        5.135      117.798       70.128       43.908    13876.263     4917.944     1927.930        1.792        1.036      122.881       51.058        0.173      347.027       25.696      859.970
09/14/2014  19:21:00     -213.349       -2.624      -23.223       57.075       78.083       33.700     3257.580     6096.895     1135.694        2.828        0.525      213.365       31.383        0.022      347.063       25.757      859.971
09/14/2014  19:22:00     -287.250      -21.887      -12.413       94.063       80.353       46.398     8847.828     6456.664     2152.773        5.030        0.873      288.082       48.787        0.029      347.099       25.819      859.960
09/14/2014  19:23:00     -240.848      -48.808      -14.584       82.999       75.216       49.381     6888.872     5657.455     2438.457        3.779        0.749      245.744       49.651        0.041      347.065       25.762      859.952
09/14/2014  19:24:00     -265.107       12.940      -23.687       90.345       76.191       41.441     8162.202     5805.111     1717.393        4.334        0.784      265.423       32.899        0.015      347.016       25.676      859.941
09/14/2014  19:25:00     -248.331      -30.278      -22.792       70.942       69.897       35.813     5032.777     4885.604     1282.560        3.715        0.560      250.170       21.141        0.007      347.022       25.686      859.941
09/14/2014  19:26:00     -181.122      -20.367       -4.178       85.413       64.436       34.995     7295.436     4152.014     1224.641        2.295        0.634      182.263       39.032        0.046      346.933       25.534      859.952
09/14/2014  19:27:00     -277.491      -11.722      -36.588       92.371       97.119       47.942     8532.332     9432.013     2298.388        4.937        1.013      277.739       43.325        0.024      347.030       25.699      859.954
09/14/2014  19:28:00     -242.675      -82.163      -12.146       90.829       88.439       42.845     8249.882     7821.435     1835.714        4.185        0.895      256.207       41.945        0.027      346.964       25.588      859.969
09/14/2014  19:29:00     -278.826      -54.785       -3.359       71.839       70.587       36.584     5160.784     4982.471     1338.368        4.612        0.574      284.158       36.654        0.017      346.883       25.448      859.978
09/14/2014  19:30:00     -224.659      -64.165        3.202      130.847       60.154       46.535    17120.878     3618.466     2165.521        3.875        1.145      233.642       61.621        0.070      346.883       25.448      859.995
09/14/2014  19:31:00     -225.356      -50.676       -6.800      111.111       72.467       41.917    12345.705     5251.520     1757.048        3.637        0.968      230.984       52.651        0.052      346.871       25.426      860.014
09/14/2014  19:32:00     -212.637      -62.882        1.227      114.361       78.537       44.992    13078.398     6168.054     2024.279        3.522        1.064      221.740       54.469        0.060      346.854       25.397      860.033
09/14/2014  19:33:00     -253.667      -78.020       -9.424       81.573       69.331       36.831     6654.099     4806.854     1356.486        4.167        0.641      265.395       42.007        0.025      346.859       25.407      860.033
09/14/2014  19:34:00     -238.792      -55.779        0.124       70.625       80.400       39.326     4987.832     6464.134     1546.539        3.656        0.650      245.220       35.817        0.021      346.868       25.422      860.052
09/14/2014  19:35:00     -197.934      -68.492      -10.471       57.121       59.205       37.445     3262.836     3505.209     1402.164        2.607        0.409      209.449       30.448        0.021      346.854       25.396      860.041
09/14/2014  19:36:00     -186.039      -41.917       -2.884       84.245       69.661       40.523     7097.234     4852.672     1642.124        2.498        0.680      190.703       41.597        0.048      346.865       25.416      860.046
09/14/2014  19:37:00     -142.815      -13.668      -10.456       58.368       62.024       36.067     3406.852     3846.950     1300.857        1.462        0.428      143.468       32.385        0.051      346.825       25.351      860.033
09/14/2014  19:38:00     -217.142      -50.093      -22.028       78.667       78.069       43.001     6188.449     6094.843     1849.092        3.214        0.707      222.845       35.770        0.026      346.884       25.449      860.043
09/14/2014  19:39:00     -271.502      -64.456      -14.310      118.548      109.896       57.105    14053.527    12077.180     3260.955        5.373        1.470      279.048       60.887        0.048      346.950       25.562      860.042
09/14/2014  19:40:00     -213.362      -89.967       -3.053      130.747       67.422       48.743    17094.795     4545.671     2375.898        3.882        1.201      231.554       53.842        0.054      346.834       25.364      860.048
09/14/2014  19:41:00     -220.121      -18.633      -16.736       62.792       59.477       33.048     3942.782     3537.521     1092.140        2.883        0.429      220.908       26.789        0.015      346.849       25.390      860.058
09/14/2014  19:42:00     -258.640      -70.526      -10.104       95.819       94.131       45.190     9181.196     8860.556     2042.113        4.602        1.004      268.083       37.450        0.020      346.833       25.361      860.056
09/14/2014  19:43:00     -252.762      -25.367      -13.105      118.828       77.945       52.657    14120.080     6075.358     2772.721        4.383        1.148      254.032       54.766        0.046      346.787       25.283      860.069
09/14/2014  19:44:00     -273.910      -12.045      -15.035      124.539      102.536       38.792    15509.918    10513.595     1504.847        5.146        1.376      274.175       47.012        0.029      346.792       25.291      860.090
09/14/2014  19:45:00     -253.779      -69.400      -19.466       84.097       99.756       52.166     7072.235     9951.340     2721.264        4.467        0.987      263.098       45.009        0.029      346.755       25.226      860.104
09/14/2014  19:46:00     -168.779      -37.119        8.139       92.405       69.383       41.296     8538.712     4813.944     1705.354        2.249        0.753      172.813       42.868        0.062      346.645       25.040      860.103
09/14/2014  19:47:00     -298.200      -36.988      -12.317      118.955       93.663       48.627    14150.283     8772.789     2364.574        5.786        1.264      300.485       50.255        0.028      346.788       25.283      860.112
09/14/2014  19:48:00     -239.386      -72.335       -4.406       68.706       62.437       38.181     4720.535     3898.395     1457.807        3.632        0.504      250.076       36.784        0.022      346.715       25.157      860.112
09/14/2014  19:49:00     -209.575      -44.723        5.669      145.243       70.844       47.021    21095.419     5018.923     2210.943        3.713        1.416      214.294       59.966        0.078      346.654       25.055      860.137
09/14/2014  19:50:00     -227.988      -37.435       -4.364      113.739       73.488       50.040    12936.495     5400.535     2503.971        3.712        1.042      231.040       60.451        0.068      346.733       25.189      860.151
09/14/2014  19:51:00     -243.869      -34.275       -6.052       88.483       73.475       42.821     7829.304     5398.572     1833.658        3.787        0.753      246.265       47.194        0.037      346.687       25.111      860.153
09/14/2014  19:52:00     -212.655        7.317       -1.909       91.555       68.366       45.034     8382.280     4673.914     2028.091        3.018        0.754      212.781       47.055        0.049      346.665       25.071      860.162
09/14/2014  19:53:00     -209.153      -17.185      -17.401       68.073       57.635       40.341     4633.929     3321.787     1627.373        2.696        0.479      209.858       33.234        0.025      346.687       25.111      860.167
09/14/2014  19:54:00     -194.189      -36.928      -12.846       53.583       63.248       33.680     2871.179     4000.265     1134.325        2.362        0.400      197.669       26.989        0.019      346.670       25.081      860.160
09/14/2014  19:55:00     -200.223      -15.437      -12.012       56.846       76.840       39.912     3231.467     5904.362     1593.002        2.560        0.536      200.817       36.907        0.034      346.621       24.996      860.173
09/14/2014  19:56:00     -195.677      -31.459       -6.826       77.870       64.709       38.670     6063.690     4187.313     1495.354        2.553        0.587      198.189       37.484        0.036      346.589       24.943      860.175
09/14/2014  19:57:00     -147.343      -27.094       -9.765      113.136       68.522       34.057    12799.711     4695.204     1159.848        2.059        0.933      149.813       44.589        0.089      346.622       25.002      860.179
09/14/2014  19:58:00     -217.459      -50.134       -0.134      110.469       85.746       46.028    12203.477     7352.394     2118.567        3.573        1.084      223.163       37.912        0.029      346.632       25.016      860.182
09/14/2014  19:59:00     -196.134      -52.102      -21.990       81.717       55.461       37.280     6677.600     3075.903     1389.790        2.640        0.557      202.937       36.787        0.033      346.673       25.086      860.202
09/14/2014  20:00:00     -225.896      -98.005       -7.734       90.154       72.124       42.028     8127.725     5201.845     1766.318        3.789        0.755      246.240       38.230        0.024      346.669       25.079      860.231
09/14/2014  20:01:00      -88.318        4.939       -1.448       44.185       40.100       26.398     1952.322     1607.986      696.880        0.604        0.213       88.456       19.811        0.050      346.554       24.884      860.245
09/14/2014  20:02:00      -79.161      -25.312       -6.734       75.354       44.891       24.851     5678.168     2015.205      617.574        0.763        0.416       83.109       21.362        0.066      346.529       24.842      860.255
09/14/2014  20:03:00      -32.967      -13.812       16.416       62.355       39.242       23.107     3888.172     1539.960      533.947        0.375        0.298       35.743       22.778        0.406      346.552       24.881      860.246
09/14/2014  20:04:00       -9.061       -5.121        2.167       38.172       23.101       20.739     1457.124      533.675      430.121        0.127        0.121       10.408       16.901        2.637      346.489       24.771      860.267
09/14/2014  20:05:00      -53.503       -5.679       13.079       58.023       44.970       31.009     3366.664     2022.258      961.577        0.471        0.318       53.804       34.257        0.405      346.581       24.932      860.312
09/14/2014  20:06:00     -126.121      -82.329       -9.070       50.308       41.882       31.390     2530.862     1754.070      985.318        1.402        0.264      150.614       29.480        0.038      346.601       24.966      860.335
09/14/2014  20:07:00      -14.456      -75.287       -1.496       27.571       27.628       19.014      760.158      763.308      361.546        0.388        0.094       76.663        9.451        0.015      346.607       24.977      860.388
09/14/2014  20:08:00       48.294      -23.605       12.118       26.103       17.727       18.652      681.365      314.255      347.885        0.219        0.067       53.754       17.593        0.107      346.537       24.858      860.397
09/14/2014  20:09:00        9.902      -23.089       25.354       22.845       40.029       27.936      521.892     1602.335      780.416        0.209        0.145       25.123       21.764        0.750      346.339       24.516      860.403
09/14/2014  20:10:00       37.219       21.588        1.934       40.721       73.521       26.719     1658.182     5405.384      713.904        0.481        0.389       43.027       23.805        0.306      346.386       24.596      860.415
09/14/2014  20:11:00        9.387      -54.807      -10.388       31.750       53.325       26.958     1008.067     2843.575      726.708        0.389        0.229       55.605       17.320        0.097      346.424       24.663      860.421
09/14/2014  20:12:00       17.156      -41.141        3.276       29.269       52.295       36.237      856.691     2734.751     1313.138        0.345        0.245       44.575       31.327        0.494      346.294       24.438      860.439
09/14/2014  20:13:00       15.953      -61.193       -1.084       30.705       32.836       35.014      942.808     1078.209     1225.979        0.362        0.162       63.238       14.813        0.055      346.266       24.389      860.460
09/14/2014  20:14:00       14.569      -16.318       25.967       27.827       45.677       25.195      774.334     2086.419      634.803        0.232        0.175       21.875       13.235        0.366      346.173       24.229      860.451
09/14/2014  20:15:00       17.067        3.806       22.044       28.641       36.927       27.957      820.280     1363.628      781.568        0.188        0.148       17.486       16.915        0.936      346.144       24.180      860.459
09/14/2014  20:16:00       26.068       -7.000       25.376       29.040       46.706       36.807      843.351     2181.469     1354.782        0.288        0.219       26.992       35.779        1.757      346.243       24.350      860.448
09/14/2014  20:17:00       -0.987       58.443       60.978       30.073       27.679       24.634      904.381      766.102      606.847        0.471        0.114       58.452       19.993        0.117      346.229       24.325      860.430
09/14/2014  20:18:00       29.098       55.224       72.628       33.504       28.948       17.360     1122.486      838.001      301.387        0.572        0.113       62.421       17.994        0.083      346.290       24.430      860.430
09/14/2014  20:19:00        8.387       67.932       78.877       26.157       38.624       25.006      684.167     1491.813      625.278        0.685        0.140       68.448       29.233        0.182      346.253       24.368      860.430
09/14/2014  20:20:00       -2.033       -7.214       37.598       17.883       30.708       16.522      319.815      943.001      272.976        0.150        0.077        7.495       14.719        3.857      346.144       24.181      860.453
09/14/2014  20:21:00       27.734      -82.007      -10.172       39.986       41.547       21.315     1598.843     1726.139      454.309        0.569        0.189       86.569       15.379        0.032      346.250       24.361      860.482
09/14/2014  20:22:00      -30.012     -124.302       -5.828       29.742       53.574       20.990      884.599     2870.155      440.574        1.029        0.210      127.874       15.011        0.014      346.405       24.630      860.499
09/14/2014  20:23:00      -45.380      -82.891       -5.908       25.951       19.099       15.939      673.453      364.759      254.047        0.513        0.065       94.500        7.561        0.006      346.411       24.639      860.516
09/14/2014  20:24:00      -25.181     -122.081       -0.904       23.292       31.406       21.732      542.514      986.309      472.275        0.877        0.100      124.651       11.571        0.009      346.565       24.905      860.536
09/14/2014  20:25:00      -46.197      -72.321      -10.949       30.087       27.627       16.269      905.238      763.248      264.689        0.471        0.097       85.817       13.046        0.023      346.611       24.984      860.523
09/14/2014  20:26:00      -91.824      -29.558      -12.434       20.154       18.737       14.032      406.166      351.087      196.898        0.521        0.048       96.464        6.959        0.005      346.491       24.777      860.531
09/14/2014  20:27:00      -88.402      -39.602       -7.027       36.625       25.902       19.334     1341.368      670.929      373.796        0.591        0.119       96.867       15.494        0.026      346.481       24.761      860.547
09/14/2014  20:28:00      -93.651      -77.744       -3.924       33.832       19.999       17.999     1144.574      399.958      323.979        0.835        0.093      121.715       17.962        0.022      346.529       24.843      860.569
09/14/2014  20:29:00      -14.776     -108.690       -2.047       67.714       39.996       22.701     4585.125     1599.664      515.344        0.937        0.335      109.690       23.948        0.048      346.561       24.895      860.594
09/14/2014  20:30:00       18.917      -53.472        9.555       34.298       52.301       30.939     1176.387     2735.390      957.236        0.409        0.243       56.719       33.828        0.356      346.414       24.643      860.602
09/14/2014  20:31:00        6.936      -24.899        7.153       31.016       21.252       22.191      961.973      451.667      492.422        0.131        0.095       25.847       16.573        0.411      346.343       24.523      860.613
09/14/2014  20:32:00        6.734      -29.264        5.366       21.368       28.984       17.301      456.589      840.092      299.315        0.126        0.080       30.029       11.375        0.143      346.298       24.445      860.636
09/14/2014  20:33:00       31.553      -16.412        3.288       15.718       38.579       15.776      247.067     1488.361      248.871        0.163        0.099       35.566       20.868        0.344      346.240       24.345      860.656
09/14/2014  20:34:00       -4.395      -67.556       -2.405       24.100       22.987       18.497      580.786      528.406      342.127        0.302        0.073       67.699       10.479        0.024      346.373       24.574      860.693
09/14/2014  20:35:00       -5.122      -75.458       -2.820       47.077       28.463       25.653     2216.275      810.129      658.099        0.471        0.184       75.632       12.024        0.025      346.357       24.544      860.720
09/14/2014  20:36:00      -51.699      -75.202       -0.298       35.615       33.891       23.195     1268.455     1148.583      538.003        0.564        0.148       91.258       15.888        0.030      346.300       24.448      860.731
09/14/2014  20:37:00      -67.219      -59.399       -3.976       43.045       34.952       21.607     1852.904     1221.660      466.865        0.580        0.177       89.703       12.938        0.021      346.252       24.367      860.727
09/14/2014  20:38:00       -7.965      -36.784       11.919       32.715       32.047       25.175     1070.243     1026.980      633.784        0.214        0.137       37.637       20.220        0.289      346.293       24.438      860.737
09/14/2014  20:39:00       40.702      -72.197        9.583       39.659       69.071       23.947     1572.857     4770.808      573.443        0.694        0.346       82.880       25.256        0.093      346.296       24.441      860.739
09/14/2014  20:40:00       11.057      -74.710        1.053       30.463       33.706       22.935      927.991     1136.120      526.017        0.415        0.130       75.524       13.012        0.030      346.568       24.910      860.730
09/14/2014  20:41:00       30.620      -27.642       30.140       50.960       62.348       48.492     2596.948     3887.291     2351.484        0.572        0.442       41.251       42.708        1.072      346.259       24.377      860.716
09/14/2014  20:42:00      152.158     -145.302      -41.537       60.489       80.449       44.885     3658.902     6472.073     2014.697        2.907        0.607      210.392       40.747        0.038      346.320       24.480      860.702
09/14/2014  20:43:00       95.762     -103.903        7.329       67.664      127.359       70.377     4578.373    16220.428     4952.904        2.288        1.288      141.302       85.435        0.366      346.223       24.313      860.718
09/14/2014  20:44:00       78.638      -55.505       32.821       64.030       85.711       59.290     4099.782     7346.405     3515.286        1.265        0.748       96.253       62.014        0.415      346.121       24.139      860.728
09/14/2014  20:45:00      121.708      -92.075       -8.645      100.063       88.185       55.287    10012.614     7776.602     3056.624        2.210        1.042      152.612       52.558        0.119      346.173       24.228      860.744
09/14/2014  20:46:00      121.995     -122.668      -11.373       62.647       72.017       44.014     3924.679     5186.398     1937.197        2.055        0.552      173.003       44.460        0.066      346.132       24.157      860.763
09/14/2014  20:47:00       74.134      -61.747       11.473       65.159       72.958       45.120     4245.720     5322.839     2035.834        1.052        0.580       96.480       47.110        0.238      346.119       24.138      860.773
09/14/2014  20:48:00       69.482      -49.803       28.384       68.013       66.742       40.133     4625.715     4454.530     1610.686        0.940        0.535       85.487       49.767        0.339      346.090       24.088      860.780
09/14/2014  20:49:00       54.825       -9.387       45.652       66.669       60.471       43.033     4444.781     3656.716     1851.826        0.756        0.498       55.623       50.677        0.830      346.114       24.128      860.783
09/14/2014  20:50:00       25.725       25.897       57.181       45.835       53.961       43.910     2100.844     2911.769     1928.105        0.577        0.347       36.502       43.603        1.427      346.147       24.185      860.795
09/14/2014  20:51:00       37.326       -0.438       44.846       37.820       39.997       35.091     1430.347     1599.794     1231.354        0.383        0.213       37.329       30.684        0.676      346.123       24.144      860.796
09/14/2014  20:52:00       38.037      -42.710       -8.844       34.760       32.949       19.635     1208.279     1085.648      385.552        0.301        0.134       57.193       20.903        0.134      346.278       24.409      860.807
09/14/2014  20:53:00       46.055      -69.660       -5.312       35.620       67.098       31.410     1268.801     4502.163      986.594        0.688        0.338       83.508       36.766        0.194      346.266       24.390      860.820
09/14/2014  20:54:00       18.232      -64.162       10.917       51.922       42.979       42.946     2695.904     1847.163     1844.348        0.548        0.319       66.702       35.339        0.281      346.067       24.047      860.825
09/14/2014  20:55:00       45.344     -121.155       -0.333       35.184       69.847       33.166     1237.945     4878.663     1100.002        1.197        0.361      129.362       36.311        0.079      346.156       24.200      860.830
09/14/2014  20:56:00       15.670      -53.904       -0.914       59.209       41.151       23.004     3505.670     1693.422      529.202        0.444        0.286       56.135       15.686        0.078      346.203       24.282      860.842
09/14/2014  20:57:00      -53.728      -52.047        1.507       30.608       73.651       19.666      936.820     5424.397      386.733        0.617        0.337       74.804       19.507        0.068      346.120       24.138      860.865
09/14/2014  20:58:00      -91.607     -173.891      -12.074       40.312       59.471       25.863     1625.073     3536.809      668.916        2.230        0.292      196.545       19.980        0.010      346.349       24.530      860.888
09/14/2014  20:59:00      -72.580     -117.719      -10.878       26.346       40.642       19.395      694.114     1651.793      376.148        1.098        0.136      138.296       13.545        0.010      346.461       24.727      860.894
09/14/2014  21:00:00      -59.065      -62.224       -4.513       42.364       26.357       16.345     1794.714      694.689      267.163        0.507        0.138       85.794       15.549        0.033      346.303       24.454      860.906
09/14/2014  21:01:00      -76.192      -78.402       -0.980       37.652       27.384       19.474     1417.677      749.892      379.222        0.725        0.127      109.325       16.254        0.022      346.290       24.432      860.900
09/14/2014  21:02:00      -81.122      -54.249        2.251       42.950       45.773       24.161     1844.698     2095.157      583.752        0.703        0.226       97.590       24.452        0.063      346.317       24.479      860.889
09/14/2014  21:03:00     -136.301      -78.349        0.242       33.284       27.221       20.510     1107.807      740.963      420.642        1.349        0.113      157.215       13.796        0.008      346.285       24.424      860.860
09/14/2014  21:04:00      -94.388     -106.085        0.794       49.199       59.125       30.964     2420.580     3495.726      958.740        1.352        0.344      141.997       24.989        0.031      346.223       24.316      860.836
09/14/2014  21:05:00     -183.220     -120.363        2.886       90.269       63.242       38.736     8148.404     3999.539     1500.446        3.085        0.682      219.219       36.916        0.028      346.221       24.309      860.821
09/14/2014  21:06:00     -217.266     -157.820        6.785      109.766      109.257       55.454    12048.650    11937.123     3075.145        4.960        1.353      268.536       55.890        0.043      346.277       24.407      860.816
09/14/2014  21:07:00     -178.051     -131.289        1.239      106.987       66.335       48.714    11446.198     4400.363     2373.075        3.358        0.911      221.221       55.538        0.063      346.367       24.562      860.835
09/14/2014  21:08:00     -184.181     -159.169      -22.155       73.634       65.669       38.281     5422.037     4312.439     1465.406        3.547        0.560      243.428       31.364        0.017      346.442       24.689      860.850
09/14/2014  21:09:00      -79.340      -67.465        4.474       98.679       47.384       38.784     9737.517     2245.247     1504.214        1.217        0.674      104.146       49.491        0.226      346.358       24.547      860.855
09/14/2014  21:10:00      -37.356      -84.221        0.587       77.974       39.073       29.564     6079.906     1526.666      874.014        0.848        0.424       92.134       24.282        0.069      346.372       24.571      860.868
09/14/2014  21:11:00      -77.118      -83.101       -2.247       47.656       50.217       23.069     2271.103     2521.720      532.192        0.909        0.266      113.371       25.811        0.052      346.278       24.410      860.885
09/14/2014  21:12:00      -24.725      -58.284        8.147       32.271       38.531       20.395     1041.386     1484.665      415.941        0.351        0.147       63.312       19.386        0.094      346.223       24.317      860.898
09/14/2014  21:13:00      -44.103      -24.515        1.086       45.889       35.005       20.371     2105.818     1225.358      414.994        0.315        0.187       50.459       26.062        0.267      346.292       24.434      860.904
09/14/2014  21:14:00     -104.844      -62.996       -3.693       26.342       35.663       16.269      693.922     1271.841      264.681        0.860        0.112      122.314       10.896        0.008      346.371       24.571      860.910
09/14/2014  21:15:00      -99.806      -53.751       -0.945       46.745       40.826       23.511     2185.115     1666.790      552.790        0.863        0.220      113.360       25.323        0.050      346.113       24.127      860.932
09/14/2014  21:16:00      -78.741      -37.679        0.149       35.441       24.596       19.491     1256.071      604.953      379.890        0.493        0.112       87.292       17.330        0.039      346.058       24.033      860.946
09/14/2014  21:17:00      -62.726      -57.078        6.320       32.356       20.464       15.885     1046.886      418.773      252.334        0.447        0.086       84.808       14.086        0.028      345.981       23.901      860.961
09/14/2014  21:18:00      -96.715      -23.412        3.639       37.779       29.518       22.204     1427.255      871.320      493.039        0.635        0.140       99.508       19.463        0.038      345.966       23.875      860.960
09/14/2014  21:19:00     -162.809      -87.266       -0.366       48.822       52.951       31.019     2383.594     2803.799      962.156        2.013        0.307      184.722       27.346        0.022      346.020       23.965      860.974
09/14/2014  21:20:00     -171.107      -36.547        2.501       63.381       65.497       32.717     4017.111     4289.874     1070.414        2.000        0.469      174.966       34.533        0.039      346.071       24.052      860.986
09/14/2014  21:21:00     -222.053      -70.642        0.958       84.939       65.507       38.156     7214.658     4291.202     1455.847        3.363        0.648      233.019       37.595        0.026      346.059       24.032      860.984
09/14/2014  21:22:00     -255.066      -67.397       -4.136       85.338       76.217       42.557     7282.541     5808.997     1811.131        4.226        0.745      263.820       42.386        0.026      346.168       24.217      860.963
09/14/2014  21:23:00     -207.345      -50.280       -2.491       64.729       54.269       31.634     4189.793     2945.101     1000.733        2.683        0.407      213.355       31.320        0.022      346.129       24.150      860.929
09/14/2014  21:24:00     -171.845      -25.153       -4.336       99.311       57.902       34.870     9862.663     3352.590     1215.899        2.230        0.722      173.676       35.910        0.043      346.011       23.950      860.905
09/14/2014  21:25:00     -209.790       10.776      -14.439       85.811       45.938       34.127     7363.552     2110.260     1164.631        2.749        0.532      210.066       38.712        0.034      345.918       23.788      860.904
09/14/2014  21:26:00     -144.541      -33.136      -16.620       67.062       56.598       32.081     4497.327     3203.277     1029.163        1.550        0.436      148.291       33.738        0.052      345.889       23.741      860.877
09/14/2014  21:27:00     -204.727      -62.655       -7.942       53.121       53.000       33.434     2821.870     2809.014     1117.821        2.632        0.337      214.100       30.095        0.020      345.925       23.801      860.880
09/14/2014  21:28:00     -246.585      -29.017      -16.820       56.391       55.633       31.156     3179.960     3094.984      970.700        3.459        0.362      248.286       30.094        0.015      345.516       23.098      860.880
09/14/2014  21:29:00     -232.871      -25.604      -23.128       94.482       65.658       37.971     8926.875     4310.997     1441.793        3.505        0.734      234.275       46.690        0.040      345.585       23.216      860.875
09/14/2014  21:30:00     -277.493       -5.614      -28.441       80.802       72.046       43.147     6528.984     5190.638     1861.630        4.571        0.679      277.550       46.928        0.029      345.649       23.327      860.862
09/14/2014  21:31:00     -365.781       15.234      -27.693       97.470       91.905       44.722     9500.473     8446.580     2000.023        7.737        0.997      366.098       49.929        0.019      345.832       23.641      860.840
09/14/2014  21:32:00     -284.501      -42.088      -30.385      111.056       99.476       47.054    12333.475     9895.523     2214.049        5.404        1.222      287.598       51.831        0.032      345.672       23.367      860.825
09/14/2014  21:33:00     -368.615      -62.075      -29.478      100.131       97.530       47.890    10026.152     9512.013     2293.446        8.121        1.092      373.805       35.904        0.009      345.549       23.154      860.821
09/14/2014  21:34:00     -320.378      -66.327      -25.419      124.944       80.373       52.594    15610.946     6459.879     2766.137        6.626        1.242      327.172       51.773        0.025      345.610       23.260      860.824
09/14/2014  21:35:00     -330.657      -51.469      -25.251      105.755       83.539       59.883    11184.188     6978.682     3585.940        6.718        1.087      334.638       49.172        0.022      345.681       23.381      860.822
09/14/2014  21:36:00     -254.528      -52.990      -11.563      103.788       99.092       52.642    10771.946     9819.292     2771.171        4.554        1.168      259.985       43.476        0.028      345.672       23.367      860.834
09/14/2014  21:37:00     -249.719      -39.855       -9.711       85.660       72.390       46.482     7337.670     5240.276     2160.605        3.939        0.737      252.879       43.017        0.029      345.642       23.314      860.846
09/14/2014  21:38:00     -289.785      -95.556      -17.580      116.058       96.483       53.505    13469.554     9309.028     2862.738        5.952        1.282      305.133       62.315        0.042      345.705       23.423      860.857
09/14/2014  21:39:00     -285.120      -68.715      -25.914       77.055       94.573       44.380     5937.400     8944.091     1969.544        5.177        0.843      293.284       40.686        0.019      345.674       23.369      860.873
09/14/2014  21:40:00     -278.048      -59.646      -24.441       84.184       80.417       45.114     7086.978     6466.948     2035.233        4.852        0.779      284.373       45.691        0.026      345.573       23.195      860.896
09/14/2014  21:41:00     -306.942      -48.295      -27.650       72.308       62.333       38.089     5228.395     3885.462     1450.793        5.394        0.528      310.718       29.445        0.009      345.310       22.745      860.915
09/14/2014  21:42:00     -349.092      -27.441      -33.764       95.087       92.659       55.853     9041.622     8585.779     3119.585        7.225        1.037      350.169       56.035        0.026      345.266       22.670      860.917
09/14/2014  21:43:00     -294.711      -67.880      -21.418      140.783      100.347       54.491    19819.909    10069.466     2969.321        6.238        1.643      302.428       63.164        0.044      345.152       22.475      860.910
09/14/2014  21:44:00     -379.798      -27.735      -33.893      129.421       75.283       57.485    16749.756     5667.572     3304.527        8.594        1.286      380.809       60.438        0.025      345.185       22.530      860.902
09/14/2014  21:45:00     -393.745      -22.568      -34.300       98.902       81.424       48.932     9781.642     6629.889     2394.310        8.776        0.940      394.391       46.999        0.014      345.243       22.629      860.896
09/14/2014  21:46:00     -391.132      -60.937      -42.507       83.112       75.461       55.210     6907.670     5694.423     3048.154        8.707        0.783      395.851       44.224        0.012      345.091       22.372      860.894
09/14/2014  21:47:00     -333.741      -30.841      -38.058       85.359       81.837       48.133     7286.127     6697.271     2316.783        6.504        0.815      335.163       40.561        0.015      344.951       22.130      860.891
09/14/2014  21:48:00     -319.090      -65.576      -43.295       94.374       63.025       55.319     8906.474     3972.132     3060.203        6.196        0.797      325.759       42.309        0.017      344.937       22.106      860.882
09/14/2014  21:49:00     -143.952      -91.431       -9.865       95.730       86.099       59.368     9164.187     7412.983     3524.530        2.464        1.005      170.534       47.218        0.077      344.740       21.769      860.867
09/14/2014  21:50:00     -188.296      -22.246      -22.898       78.955       62.859       51.946     6233.903     3951.311     2698.368        2.468        0.644      189.605       41.428        0.048      344.699       21.701      860.854
09/14/2014  21:51:00     -254.850      -48.347      -24.198       84.009       91.448       49.726     7057.447     8362.719     2472.722        4.288        0.895      259.395       43.571        0.028      344.745       21.778      860.861
09/14/2014  21:52:00     -221.986      -95.339      -34.621       74.706       87.327       53.570     5580.953     7625.935     2869.734        3.782        0.804      241.593       37.840        0.025      344.762       21.808      860.859
09/14/2014  21:53:00     -342.477      -56.347      -22.202       85.381       82.517       50.407     7289.920     6809.011     2540.872        6.880        0.832      347.081       51.834        0.022      344.902       22.046      860.872
09/14/2014  21:54:00     -306.018      -54.412      -29.384       87.497       80.859       48.231     7655.724     6538.135     2326.219        5.699        0.826      310.818       44.542        0.021      344.849       21.957      860.889
09/14/2014  21:55:00     -227.215      -30.957      -28.138       93.395       91.021       49.019     8722.683     8284.858     2402.858        3.639        0.971      229.314       48.551        0.045      344.808       21.886      860.885
09/14/2014  21:56:00     -154.478      -25.451      -20.955       85.705       76.727       36.799     7345.349     5887.066     1354.139        1.977        0.729      156.560       32.260        0.042      344.703       21.708      860.886
09/14/2014  21:57:00     -204.483      -29.136      -27.442       64.305       74.716       33.025     4135.166     5582.439     1090.645        2.711        0.540      206.548       25.680        0.015      344.623       21.570      860.900
09/14/2014  21:58:00     -153.124      -78.496      -11.034       75.842       50.014       33.840     5752.076     2501.407     1145.156        1.956        0.470      172.072       27.515        0.026      344.553       21.451      860.908
09/14/2014  21:59:00     -199.511      -48.472      -10.482      109.456       71.888       48.335    11980.650     5167.896     2336.307        3.087        0.974      205.314       57.099        0.077      344.563       21.466      860.917
09/14/2014  22:00:00     -215.554       12.677      -28.194       90.193       79.829       40.235     8134.723     6372.738     1618.832        3.177        0.806      215.927       43.311        0.040      344.557       21.457      860.900
09/14/2014  22:01:00     -170.672      -17.840      -20.257       71.219       64.757       40.050     5072.209     4193.493     1603.976        2.036        0.543      171.602       38.003        0.049      344.620       21.566      860.903
09/14/2014  22:02:00      -95.989       17.396       -4.841       43.036       53.430       32.144     1852.131     2854.789     1033.212        0.764        0.287       97.552       19.341        0.039      344.808       21.889      860.887
09/14/2014  22:03:00     -161.175      -28.687      -11.724       72.602       64.120       29.511     5271.052     4111.352      870.909        1.859        0.513      163.709       24.562        0.023      344.764       21.813      860.892
09/14/2014  22:04:00     -163.420      -14.788      -27.853       67.516      101.224       33.407     4558.427    10246.260     1116.004        2.181        0.796      164.088       19.472        0.014      344.798       21.872      860.904
09/14/2014  22:05:00     -249.929      -63.956      -19.053       67.188       67.955       51.788     4514.198     4617.902     2681.969        3.936        0.591      257.982       43.522        0.028      344.603       21.535      860.909
09/14/2014  22:06:00     -246.330       -2.558      -24.460       77.915       95.482       45.894     6070.690     9116.841     2106.283        3.929        0.865      246.343       32.068        0.017      344.615       21.556      860.926
09/14/2014  22:07:00     -193.410       90.197      -46.588       64.497       78.758       36.551     4159.832     6202.786     1335.977        2.970        0.585      213.407       39.645        0.035      344.788       21.852      860.931
09/14/2014  22:08:00     -174.297      -52.852       -7.166       75.790       69.483       46.770     5744.055     4827.862     2187.444        2.299        0.638      182.134       50.592        0.077      344.676       21.661      860.946
09/14/2014  22:09:00     -145.968       -3.819      -16.573       80.355       60.880       33.262     6456.936     3706.406     1106.386        1.643        0.563      146.018       28.796        0.039      344.551       21.450      860.949
09/14/2014  22:10:00     -106.448      -36.534      -10.668       35.704       33.021       31.874     1274.762     1090.365     1015.975        0.808        0.169      112.543       11.491        0.010      344.544       21.439      860.959
09/14/2014  22:11:00     -125.682      -41.261       -9.293       71.082       43.662       36.851     5052.637     1906.405     1358.019        1.295        0.416      132.282       38.389        0.084      344.555       21.456      860.954
09/14/2014  22:12:00     -106.645      -55.052       -6.221       65.524       25.795       24.757     4293.406      665.402      612.924        1.001        0.279      120.016       22.115        0.034      344.502       21.366      860.962
09/14/2014  22:13:00      -71.880       -5.447       -3.946       43.475       36.589       31.154     1890.074     1338.730      970.577        0.470        0.210       72.086       28.849        0.160      344.506       21.373      860.968
09/14/2014  22:14:00      -97.472      -28.344      -21.966       45.428       33.562       20.189     2063.701     1126.386      407.602        0.719        0.180      101.510       17.396        0.029      344.646       21.612      860.964
09/14/2014  22:15:00      -73.503      -35.121      -14.676       37.889       21.274       17.195     1435.584      452.574      295.657        0.452        0.109       81.463        9.595        0.014      344.562       21.468      860.984
09/14/2014  22:16:00      -71.210       -5.409      -11.433       23.464       30.013       19.747      550.567      900.810      389.954        0.354        0.092       71.416       16.888        0.056      344.658       21.632      860.998
09/14/2014  22:17:00      -62.032       13.422      -11.805       30.681       26.445       19.232      941.302      699.354      369.852        0.309        0.101       63.468       15.911        0.063      344.768       21.822      860.990
09/14/2014  22:18:00      -27.049       -7.784        2.852       21.565       19.897       10.649      465.030      395.894      113.400        0.089        0.049       28.146        5.010        0.032      344.616       21.563      860.997
09/14/2014  22:19:00      -44.884       37.022      -16.645       47.393       50.409       29.294     2246.105     2541.061      858.141        0.465        0.282       58.183       25.905        0.198      344.787       21.854      861.020
09/14/2014  22:20:00       -5.955        0.432       -0.889       27.990       15.619       24.168      783.454      243.964      584.086        0.082        0.081        5.970       18.299        9.394      344.756       21.801      861.045
09/14/2014  22:21:00        5.646       41.196       -2.006       25.423       31.481       18.315      646.306      991.055      335.445        0.185        0.099       41.582       14.940        0.129      344.790       21.859      861.063
09/14/2014  22:22:00      -12.477       65.747      -12.097       23.752       28.137       15.433      564.153      791.676      238.168        0.311        0.080       66.921       12.290        0.034      344.777       21.837      861.060
09/14/2014  22:23:00        8.465       17.001       -7.962       10.658       14.341       15.069      113.595      205.660      227.084        0.049        0.027       18.992        9.371        0.243      344.780       21.841      861.069
09/14/2014  22:24:00       18.372       31.004        1.196       14.629       13.968       13.387      214.007      195.096      179.206        0.094        0.029       36.038        9.811        0.074      344.836       21.938      861.075
09/14/2014  22:25:00       45.214       54.075       -9.924       21.493       18.627       15.189      461.932      346.974      230.717        0.305        0.052       70.487       13.881        0.039      344.866       21.988      861.081
09/14/2014  22:26:00       49.387       35.398       -6.772       18.904       15.911       10.147      357.360      253.149      102.971        0.223        0.036       60.763        7.949        0.017      344.932       22.103      861.076
09/14/2014  22:27:00       56.607        0.670        2.066       19.159       16.588       18.050      367.084      275.163      325.806        0.209        0.048       56.611       10.013        0.031      345.118       22.422      861.079
09/14/2014  22:28:00       13.248        0.770        3.667       21.289       18.074       14.157      453.209      326.661      200.420        0.058        0.049       13.270       13.488        1.033      344.958       22.145      861.077
09/14/2014  22:29:00        0.491        1.963       11.528        6.292        7.910        5.544       39.588       62.566       30.731        0.013        0.007        2.024        4.104        4.112      344.730       21.756      861.078
09/14/2014  22:30:00       -8.927      -29.136       -3.493       10.575        9.016        8.374      111.827       81.281       70.117        0.060        0.013       30.473        6.573        0.047      344.510       21.380      861.082
09/14/2014  22:31:00      -22.238       -3.244       -4.760        9.320        7.878        5.560       86.858       62.062       30.911        0.035        0.009       22.473        4.081        0.033      344.588       21.514      861.086
09/14/2014  22:32:00        5.574        2.856        2.879        8.985        5.110        6.478       80.723       26.110       41.960        0.010        0.007        6.263        2.921        0.218      344.594       21.522      861.097
09/14/2014  22:33:00      -10.883        1.111        3.359       17.821        7.030        8.332      317.588       49.420       69.428        0.028        0.022       10.940        9.828        0.807      344.427       21.238      861.111
09/14/2014  22:34:00      -23.964       -9.879       -5.348       12.617       20.802        9.471      159.177      432.736       89.691        0.069        0.034       25.920        3.303        0.016      344.528       21.410      861.132
09/14/2014  22:35:00        7.926      -32.176        0.110       27.379       15.846       18.020      749.619      251.084      324.707        0.121        0.066       33.138        9.915        0.090      344.632       21.588      861.149
09/14/2014  22:36:00        9.849      -29.313        7.405       24.893       19.787       18.407      619.664      391.519      338.808        0.118        0.067       30.924       13.597        0.193      344.729       21.755      861.164
09/14/2014  22:37:00       11.151      -38.634      -11.340       30.798       11.459       14.931      948.519      131.301      222.943        0.152        0.065       40.211       11.352        0.080      344.840       21.944      861.177
09/14/2014  22:38:00      -22.926      -88.507      -14.079       32.655       45.726       26.635     1066.328     2090.877      709.408        0.621        0.193       91.428       22.864        0.063      344.984       22.191      861.174
09/14/2014  22:39:00      -29.198      -71.423        4.415       38.012       40.011       21.783     1444.941     1600.892      474.479        0.475        0.176       77.161       22.857        0.088      344.775       21.833      861.171
09/14/2014  22:40:00      -73.744     -140.297        0.923       34.160       49.762       22.042     1166.881     2476.216      485.830        1.462        0.206      158.498       25.274        0.025      344.986       22.194      861.187
09/14/2014  22:41:00      -76.542     -130.047        0.230       43.981       67.689       23.432     1934.313     4581.758      549.062        1.492        0.353      150.900       29.167        0.037      344.931       22.099      861.212
09/14/2014  22:42:00      -56.983     -196.406        3.216       30.698       29.154       26.287      942.387      849.956      691.023        2.216        0.124      204.505       19.325        0.009      345.192       22.546      861.229
09/14/2014  22:43:00      -63.032     -168.964       -4.417       33.832       26.340       20.458     1144.603      693.791      418.511        1.740        0.113      180.338       18.585        0.011      345.163       22.497      861.240
09/14/2014  22:44:00      -38.074     -150.177       -5.162       24.482       18.010       16.290      599.384      324.365      265.367        1.261        0.059      154.928        9.682        0.004      345.317       22.762      861.251
09/14/2014  22:45:00      -93.556     -131.992       -5.175       29.241       30.687       23.306      855.049      941.720      543.159        1.427        0.117      161.786       17.337        0.011      345.260       22.664      861.269
09/14/2014  22:46:00      -93.269      -97.802       -4.409       36.280       45.406       24.751     1316.265     2061.691      612.613        1.114        0.200      135.146       22.626        0.028      345.143       22.463      861.287
09/14/2014  22:47:00      -99.154     -117.945       -0.407       51.671       43.771       31.831     2669.940     1915.924     1013.225        1.467        0.280      154.086       34.541        0.050      345.484       23.048      861.300
09/14/2014  22:48:00      -50.071      -75.972       -4.261       41.109       46.065       26.902     1689.922     2121.998      723.697        0.642        0.227       90.988       23.628        0.067      345.307       22.743      861.309
09/14/2014  22:49:00       -3.936      -49.195       -0.624       44.620       24.421       18.469     1990.912      596.377      341.116        0.268        0.146       49.353       17.825        0.130      345.153       22.481      861.299
09/14/2014  22:50:00        8.817      -22.949        7.415       20.305       20.132       17.875      412.304      405.317      319.533        0.090        0.057       24.585       12.814        0.272      344.960       22.151      861.281
09/14/2014  22:51:00       17.444      -53.880        1.185       20.448       19.479       16.451      418.139      379.449      270.638        0.214        0.053       56.633        8.965        0.025      344.978       22.181      861.273
09/14/2014  22:52:00       -7.494      -25.748       -8.969       21.326       17.347       10.176      454.786      300.915      103.551        0.083        0.043       26.817       10.606        0.156      345.076       22.349      861.274
09/14/2014  22:53:00        5.447      -18.294        2.226       12.734       17.460        8.246      162.149      304.837       67.989        0.045        0.027       19.087        7.138        0.140      345.021       22.254      861.265
09/14/2014  22:54:00       -9.566      -48.328       -7.313       19.183       22.631       13.988      367.999      512.172      195.658        0.178        0.054       49.266       10.434        0.045      345.107       22.401      861.253
09/14/2014  22:55:00        2.708      -86.881       -5.137       28.727       39.589       30.690      825.254     1567.251      941.882        0.546        0.167       86.923       16.278        0.035      345.019       22.252      861.243
09/14/2014  22:56:00        3.593      -74.876       -4.252       30.039       34.802       16.761      902.323     1211.159      280.926        0.402        0.120       74.962        6.392        0.007      344.895       22.038      861.251
09/14/2014  22:57:00       -1.090      -74.298      -17.479       47.783       37.062       30.502     2283.184     1373.573      930.388        0.521        0.229       74.306       26.031        0.123      344.846       21.954      861.262
09/14/2014  22:58:00      -25.832      -40.956       10.529       40.479       25.926       18.443     1638.545      672.177      340.160        0.255        0.133       48.422       12.664        0.068      344.748       21.786      861.277
09/14/2014  22:59:00      -93.960      -90.737        5.451       39.344       56.054       25.513     1547.983     3142.063      650.939        1.122        0.267      130.620       26.758        0.042      344.863       21.984      861.284
09/14/2014  23:00:00     -104.467     -124.834       -8.190       39.290       62.040       29.852     1543.719     3848.936      891.147        1.642        0.314      162.778       20.686        0.016      344.861       21.979      861.292
09/14/2014  23:01:00      -66.899      -73.496        0.594       32.865       48.474       26.940     1080.092     2349.682      725.785        0.702        0.208       99.384       19.856        0.040      344.739       21.771      861.289
09/14/2014  23:02:00      -49.276      -54.657       10.298       38.545       25.052       20.047     1485.735      627.600      401.863        0.402        0.126       73.590       21.156        0.083      344.730       21.754      861.281
09/14/2014  23:03:00      -37.871      -48.035        3.218       26.786       22.989       17.524      717.501      528.483      307.076        0.265        0.078       61.168       16.923        0.077      344.757       21.803      861.274
09/14/2014  23:04:00        1.025      -23.460        2.010       18.363       24.777       11.716      337.200      613.883      137.256        0.082        0.054       23.482       13.247        0.318      344.674       21.660      861.275
09/14/2014  23:05:00      -37.748      -27.282        6.838       35.315       22.979       16.002     1247.167      528.029      256.053        0.212        0.102       46.575       15.729        0.114      344.643       21.607      861.279
09/14/2014  23:06:00        5.634      -55.896       -3.574       31.373       26.930       14.331      984.240      725.248      205.374        0.254        0.096       56.179        7.384        0.017      344.611       21.553      861.270
09/14/2014  23:07:00      -47.416      -39.470      -10.511       28.608       31.401       16.588      818.406      986.028      275.157        0.300        0.104       61.694       16.204        0.069      344.619       21.568      861.260
09/14/2014  23:08:00      -46.921       11.858       -4.177       12.659       20.272        8.008      160.254      410.967       64.129        0.150        0.032       48.396        8.411        0.030      344.498       21.360      861.259
09/14/2014  23:09:00      -60.186       -7.158       -6.683       18.385       13.736        5.708      337.999      188.681       32.579        0.214        0.028       60.611        5.736        0.009      344.443       21.264      861.262
09/14/2014  23:10:00     -123.158      -39.127      -10.869       13.871       18.258        9.568      192.401      333.338       91.549        0.872        0.031      129.224        9.364        0.005      344.172       20.802      861.272
09/14/2014  23:11:00     -124.363      -30.851      -12.779       18.576       32.817       15.945      345.063     1076.988      254.254        0.913        0.084      128.132       11.002        0.007      344.103       20.684      861.283
09/14/2014  23:12:00      -85.526      -30.106       -9.179       29.045       34.719       18.138      843.621     1205.433      328.988        0.534        0.119       90.670       16.492        0.033      344.147       20.759      861.293
09/14/2014  23:13:00      -62.844      -34.881        2.647       35.304       24.330       18.505     1246.347      591.951      342.435        0.368        0.109       71.876       19.251        0.072      344.211       20.868      861.286
09/14/2014  23:14:00     -115.557      -44.550       -5.445       24.812       26.262       13.975      615.649      689.699      195.304        0.843        0.075      123.847        6.468        0.003      344.312       21.041      861.279
09/14/2014  23:15:00      -86.754      -51.851        2.040       31.756       33.618       20.360     1008.473     1130.193      414.533        0.639        0.128      101.068       20.717        0.042      344.238       20.915      861.275
09/14/2014  23:16:00     -123.350      -44.840       -4.974       34.719       25.225       19.353     1205.390      636.292      374.530        0.973        0.111      131.247       16.550        0.016      344.291       21.004      861.276
09/14/2014  23:17:00     -150.632      -44.582       -1.518       25.718       26.946       16.532      661.396      726.068      273.298        1.317        0.083      157.091       13.496        0.007      344.173       20.803      861.282
09/14/2014  23:18:00     -118.726      -26.811       -4.964       40.699       31.782       19.090     1656.372     1010.084      364.434        0.893        0.152      121.716       17.529        0.021      343.879       20.303      861.287
09/14/2014  23:19:00     -118.351       -7.929       -0.040       44.881       36.911       27.081     2014.344     1362.426      733.403        0.909        0.206      118.617       27.563        0.054      343.794       20.155      861.290
09/14/2014  23:20:00      -70.994      -27.827        6.018       39.500       31.324       18.034     1560.237      981.180      325.241        0.436        0.143       76.253       17.292        0.051      343.826       20.210      861.297
09/14/2014  23:21:00      -87.090      -53.670        0.372       45.466       33.319       20.858     2067.194     1110.181      435.069        0.704        0.181      102.299       23.311        0.052      344.054       20.602      861.308
09/14/2014  23:22:00     -108.086      -43.751        0.420       35.779       24.045       15.903     1280.141      578.143      252.911        0.785        0.106      116.605       14.865        0.016      344.042       20.582      861.320
09/14/2014  23:23:00     -102.597      -33.234       -3.634       25.616       26.468       11.761      656.182      700.540      138.317        0.657        0.075      107.845       10.310        0.009      343.961       20.442      861.333
09/14/2014  23:24:00      -92.145       -5.834       -5.644       48.644       19.266       17.640     2366.279      371.161      311.159        0.580        0.152       92.330       22.404        0.059      343.861       20.271      861.344
09/14/2014  23:25:00     -113.702        8.171       -6.830       39.968       27.511       20.517     1597.467      756.850      420.965        0.791        0.139      113.996       18.462        0.026      343.763       20.105      861.349
09/14/2014  23:26:00     -144.001        0.735      -12.426       27.975       23.330       14.620      782.575      544.290      213.758        1.122        0.077      144.003       10.453        0.005      343.820       20.201      861.342
09/14/2014  23:27:00      -94.968       -0.373       -3.927       37.833       31.742       24.082     1431.330     1007.540      579.934        0.603        0.151       94.969       24.706        0.068      343.803       20.170      861.337
09/14/2014  23:28:00      -73.273      -26.221       -3.147       29.647       17.956       17.035      878.950      322.415      290.196        0.378        0.075       77.823       17.097        0.048      343.885       20.313      861.339
09/14/2014  23:29:00      -76.074      -30.100       -5.701       32.172       21.172       17.860     1035.065      448.270      318.963        0.426        0.090       81.812       18.876        0.053      343.854       20.259      861.351
09/14/2014  23:30:00      -80.482      -33.463       -8.076       22.363       23.457       14.762      500.102      550.242      217.915        0.447        0.063       87.161       11.437        0.017      343.670       19.945      861.358
09/14/2014  23:31:00      -99.122      -42.402       -9.868       17.491       18.377       11.262      305.940      337.726      126.830        0.625        0.039      107.810        7.834        0.005      343.557       19.753      861.370
09/14/2014  23:32:00      -88.178      -35.726       -3.587       27.715       25.610       15.016      768.143      655.885      225.485        0.536        0.082       95.140       17.319        0.033      343.416       19.511      861.381
09/14/2014  23:33:00      -69.009       -7.080        1.620       24.827       17.763       14.083      616.401      315.515      198.331        0.297        0.057       69.372       13.843        0.040      343.267       19.258      861.393
09/14/2014  23:34:00      -82.310        0.318       -7.574       22.749       22.573       14.933      517.515      509.553      223.006        0.404        0.063       82.310        4.461        0.003      343.360       19.417      861.391
09/14/2014  23:35:00      -82.746      -31.574       -8.698       20.617       14.376       11.011      425.053      206.656      121.247        0.434        0.038       88.566        9.232        0.011      343.397       19.478      861.390
09/14/2014  23:36:00      -74.541       -1.300       -5.146       23.720       20.507       15.516      562.622      420.537      240.742        0.340        0.061       74.552       13.080        0.031      343.306       19.323      861.402
09/14/2014  23:37:00      -97.728        8.859       -8.075       35.667       35.336       18.058     1272.116     1248.619      326.075        0.627        0.142       98.129       20.699        0.044      343.349       19.399      861.412
09/14/2014  23:38:00      -73.747      -11.559       -5.319       41.207       32.143       16.989     1698.016     1033.196      288.616        0.431        0.151       74.648       15.689        0.044      343.273       19.268      861.418
09/14/2014  23:39:00      -71.758      -37.804       -1.795       32.265       38.655       20.668     1041.060     1494.190      427.166        0.477        0.148       81.106       13.458        0.028      343.215       19.169      861.437
09/14/2014  23:40:00      -92.698      -10.074       -1.877       31.992       23.062       16.957     1023.497      531.846      287.554        0.527        0.092       93.244       15.709        0.028      343.143       19.046      861.460
09/14/2014  23:41:00     -113.509       34.105      -15.254       32.795       22.059       12.468     1075.530      486.613      155.462        0.800        0.086      118.522       13.677        0.013      343.161       19.078      861.474
09/14/2014  23:42:00     -101.172       38.106      -13.844       32.872       25.953       14.608     1080.539      673.577      213.405        0.692        0.098      108.111        9.150        0.007      343.199       19.143      861.469
09/14/2014  23:43:00      -72.807       93.580      -14.461       31.231       36.621       21.261      975.362     1341.096      452.029        0.852        0.138      118.567       20.320        0.029      343.175       19.102      861.469
09/14/2014  23:44:00     -113.616       52.697      -22.396       30.440       38.101       20.137      926.565     1451.717      405.485        0.948        0.139      125.242       16.352        0.017      343.208       19.158      861.491
09/14/2014  23:45:00      -70.062       -0.752      -11.396       20.751       34.621       14.760      430.611     1198.594      217.857        0.344        0.092       70.066        9.268        0.017      343.160       19.077      861.514
09/14/2014  23:46:00      -18.398      -11.653        1.270       20.049       16.807       12.272      401.948      282.490      150.604        0.066        0.042       21.778        9.959        0.209      343.091       18.957      861.535
09/14/2014  23:47:00        9.213      -12.844       -3.436       17.360       15.690       15.549      301.378      246.190      241.758        0.053        0.039       15.806        8.097        0.262      343.130       19.026      861.562
09/14/2014  23:48:00      -71.531      -24.727       -6.203       19.545       17.915       18.058      381.993      320.937      326.075        0.340        0.051       75.684       10.740        0.020      342.968       18.750      861.564
09/14/2014  23:49:00      -99.240      -16.076      -13.841       24.128       14.738       10.242      582.164      217.211      104.898        0.560        0.045      100.533        8.159        0.007      342.899       18.632      861.562
09/14/2014  23:50:00      -79.782      -11.943      -10.286       19.310       14.877       14.478      372.874      221.321      209.611        0.371        0.040       80.671       10.337        0.016      342.791       18.447      861.557
09/14/2014  23:51:00      -80.652      -15.920       -9.204       17.716       19.019       10.545      313.851      361.706      111.194        0.381        0.039       82.208        8.986        0.012      342.815       18.489      861.535
09/14/2014  23:52:00      -96.429      -32.492       -9.998       35.971       32.714       16.597     1293.938     1070.236      275.454        0.655        0.132      101.756       14.607        0.021      342.872       18.586      861.528
09/14/2014  23:53:00      -89.619      -26.574       -9.104       39.437       33.966       15.722     1555.250     1153.700      247.194        0.589        0.148       93.476       14.642        0.025      342.877       18.595      861.509
09/14/2014  23:54:00      -96.346      -16.338      -12.919       39.570       36.342       24.920     1565.788     1320.731      621.018        0.661        0.175       97.721       23.144        0.056      342.872       18.587      861.508
09/14/2014  23:55:00      -66.697       -2.214      -10.739       36.708       34.271       24.585     1347.445     1174.524      604.433        0.385        0.156       66.733       18.976        0.081      343.067       18.919      861.510
09/14/2014  23:56:00     -111.677       -0.824      -14.960       44.061       32.155       23.598     1941.329     1033.938      556.876        0.811        0.177      111.680       19.380        0.030      343.067       18.917      861.498
09/14/2014  23:57:00      -91.916      -34.778       -5.334       32.416       32.252       23.776     1050.811     1040.188      565.291        0.617        0.133       98.275       13.371        0.019      342.984       18.777      861.507
09/14/2014  23:58:00     -121.521      -21.596       -9.385       37.824       34.601       20.012     1430.673     1197.242      400.489        0.917        0.151      123.425       17.356        0.020      342.908       18.647      861.506
09/14/2014  23:59:00     -100.979      -53.825       -5.485       35.253       30.511       23.928     1242.789      930.917      572.568        0.793        0.137      114.428       12.150        0.011      342.888       18.612      861.496
